Time,TemperatureF,DewpointF,PressureIn,WindDirection,WindDirectionDegrees,WindSpeedMPH,WindSpeedGustMPH,Humidity,HourlyPrecipIn,Conditions,Clouds,dailyrainin,SoftwareType,DateUTC
2013-05-04 00:00:00,61.3,39.8,30.01,SE,145,2.0,0.0,45,0.00,,OVC003,0.00,VWS V14.01,2013-05-04 04:00:00,
2013-05-04 00:01:00,61.3,39.8,30.01,SE,146,3.0,3.0,45,0.00,,OVC003,0.00,VWS V14.01,2013-05-04 04:01:00,
2013-05-04 00:02:00,61.3,40.4,30.01,SE,145,2.0,2.0,46,0.00,,OVC003,0.00,VWS V14.01,2013-05-04 04:02:00,
2013-05-04 00:03:00,61.3,39.8,30.01,SE,145,2.0,2.0,45,0.00,,OVC003,0.00,VWS V14.01,2013-05-04 04:03:00,
2013-05-04 00:04:00,61.3,39.8,30.01,SE,146,2.0,2.0,45,0.00,,OVC003,0.00,VWS V14.01,2013-05-04 04:04:00,
2013-05-04 00:05:00,61.3,39.8,30.01,SE,146,2.0,0.0,45,0.00,,OVC003,0.00,VWS V14.01,2013-05-04 04:05:00,
2013-05-04 00:06:00,61.3,39.8,30.01,SE,145,2.0,0.0,45,0.00,,OVC003,0.00,VWS V14.01,2013-05-04 04:06:00,
2013-05-04 00:07:00,61.3,39.8,30.01,SE,145,2.0,0.0,45,0.00,,OVC003,0.00,VWS V14.01,2013-05-04 04:07:00,
2013-05-04 00:08:00,61.2,40.3,30.01,SE,145,2.0,0.0,46,0.00,,OVC003,0.00,VWS V14.01,2013-05-04 04:08:00,
2013-05-04 00:09:00,61.2,40.3,30.01,SE,146,2.0,0.0,46,0.00,,OVC003,0.00,VWS V14.01,2013-05-04 04:09:00,
2013-05-04 00:10:00,61.2,40.3,30.01,SE,146,2.0,0.0,46,0.00,,OVC003,0.00,VWS V14.01,2013-05-04 04:10:00,
2013-05-04 00:11:00,61.2,40.3,30.01,SE,146,2.0,0.0,46,0.00,,OVC003,0.00,VWS V14.01,2013-05-04 04:11:00,
2013-05-04 00:12:00,61.2,40.3,30.01,SE,146,2.0,0.0,46,0.00,,OVC003,0.00,VWS V14.01,2013-05-04 04:12:00,
2013-05-04 00:13:00,61.2,40.8,30.01,SE,145,2.0,0.0,47,0.00,,OVC003,0.00,VWS V14.01,2013-05-04 04:13:00,
2013-05-04 00:14:00,61.3,39.8,30.01,SE,146,2.0,2.0,45,0.00,,OVC003,0.00,VWS V14.01,2013-05-04 04:14:00,
2013-05-04 00:15:00,61.1,40.2,30.01,SE,146,2.0,0.0,46,0.00,,OVC003,0.00,VWS V14.01,2013-05-04 04:15:00,
2013-05-04 00:16:00,61.1,40.7,30.01,SE,145,2.0,0.0,47,0.00,,OVC003,0.00,VWS V14.01,2013-05-04 04:16:00,
2013-05-04 00:17:00,61.1,40.2,30.01,SE,146,2.0,0.0,46,0.00,,OVC003,0.00,VWS V14.01,2013-05-04 04:17:00,
2013-05-04 00:18:00,61.1,40.7,30.01,SE,146,2.0,0.0,47,0.00,,OVC003,0.00,VWS V14.01,2013-05-04 04:18:00,
2013-05-04 00:19:00,61.1,40.2,30.01,SE,146,2.0,0.0,46,0.00,,OVC003,0.00,VWS V14.01,2013-05-04 04:19:00,
2013-05-04 00:20:00,61.1,40.7,30.01,SE,146,2.0,0.0,47,0.00,,OVC003,0.00,VWS V14.01,2013-05-04 04:20:00,
2013-05-04 00:21:00,61.1,40.7,30.01,SE,146,2.0,0.0,47,0.00,,OVC003,0.00,VWS V14.01,2013-05-04 04:21:00,
2013-05-04 00:22:00,61.1,40.7,30.01,SE,146,2.0,0.0,47,0.00,,OVC003,0.00,VWS V14.01,2013-05-04 04:22:00,
2013-05-04 00:23:00,61.0,40.7,30.01,SE,146,2.0,0.0,47,0.00,,OVC003,0.00,VWS V14.01,2013-05-04 04:23:00,
2013-05-04 00:24:00,61.0,40.7,30.01,SE,145,2.0,0.0,47,0.00,,OVC003,0.00,VWS V14.01,2013-05-04 04:24:00,
2013-05-04 00:25:00,61.0,40.7,30.01,SE,145,2.0,0.0,47,0.00,,OVC003,0.00,VWS V14.01,2013-05-04 04:25:00,
2013-05-04 00:26:00,61.0,40.7,30.01,SE,146,2.0,0.0,47,0.00,,OVC003,0.00,VWS V14.01,2013-05-04 04:26:00,
2013-05-04 00:27:00,60.9,40.5,30.01,SE,146,2.0,0.0,47,0.00,,OVC003,0.00,VWS V14.01,2013-05-04 04:27:00,
2013-05-04 00:28:00,60.9,40.5,30.01,SE,146,2.0,0.0,47,0.00,,OVC003,0.00,VWS V14.01,2013-05-04 04:28:00,
2013-05-04 00:29:00,61.1,40.2,30.01,SE,146,2.0,0.0,46,0.00,,OVC003,0.00,VWS V14.01,2013-05-04 04:29:00,
2013-05-04 00:30:00,60.9,40.5,30.00,SE,145,2.0,0.0,47,0.00,,OVC003,0.00,VWS V14.01,2013-05-04 04:30:00,
2013-05-04 00:31:00,60.9,41.1,30.00,SE,146,2.0,0.0,48,0.00,,OVC003,0.00,VWS V14.01,2013-05-04 04:31:00,
2013-05-04 00:32:00,60.9,41.1,30.00,SE,145,2.0,0.0,48,0.00,,OVC003,0.00,VWS V14.01,2013-05-04 04:32:00,
2013-05-04 00:33:00,60.8,41.0,30.00,SE,146,2.0,0.0,48,0.00,,OVC003,0.00,VWS V14.01,2013-05-04 04:33:00,
2013-05-04 00:34:00,60.8,41.0,30.00,SE,146,2.0,0.0,48,0.00,,OVC003,0.00,VWS V14.01,2013-05-04 04:34:00,
2013-05-04 00:35:00,60.8,41.0,30.00,SE,146,2.0,0.0,48,0.00,,OVC003,0.00,VWS V14.01,2013-05-04 04:35:00,
2013-05-04 00:36:00,60.8,41.0,30.00,SE,146,2.0,0.0,48,0.00,,OVC003,0.00,VWS V14.01,2013-05-04 04:36:00,
2013-05-04 00:37:00,60.7,40.9,30.00,SE,145,2.0,0.0,48,0.00,,OVC003,0.00,VWS V14.01,2013-05-04 04:37:00,
2013-05-04 00:38:00,60.7,40.9,30.00,SE,145,2.0,0.0,48,0.00,,OVC003,0.00,VWS V14.01,2013-05-04 04:38:00,
2013-05-04 00:39:00,60.9,41.1,30.00,SE,146,2.0,0.0,48,0.00,,OVC003,0.00,VWS V14.01,2013-05-04 04:39:00,
2013-05-04 00:40:00,60.7,40.9,30.00,SE,145,2.0,0.0,48,0.00,,OVC003,0.00,VWS V14.01,2013-05-04 04:40:00,
2013-05-04 00:41:00,60.7,41.5,30.00,SE,145,2.0,0.0,49,0.00,,OVC003,0.00,VWS V14.01,2013-05-04 04:41:00,
2013-05-04 00:42:00,60.6,41.4,30.00,SE,146,2.0,0.0,49,0.00,,OVC003,0.00,VWS V14.01,2013-05-04 04:42:00,
2013-05-04 00:43:00,60.6,41.4,30.00,SE,146,2.0,0.0,49,0.00,,OVC003,0.00,VWS V14.01,2013-05-04 04:43:00,
2013-05-04 00:44:00,60.8,41.0,30.00,SE,146,2.0,0.0,48,0.00,,OVC003,0.00,VWS V14.01,2013-05-04 04:44:00,
2013-05-04 00:45:00,60.5,41.3,30.01,SE,146,2.0,0.0,49,0.00,,OVC003,0.00,VWS V14.01,2013-05-04 04:45:00,
2013-05-04 00:46:00,60.5,41.3,30.01,SE,146,2.0,0.0,49,0.00,,OVC003,0.00,VWS V14.01,2013-05-04 04:46:00,
2013-05-04 00:47:00,60.5,41.3,30.01,SE,145,2.0,2.0,49,0.00,,OVC003,0.00,VWS V14.01,2013-05-04 04:47:00,
2013-05-04 00:48:00,60.5,41.8,30.01,SE,145,2.0,2.0,50,0.00,,OVC003,0.00,VWS V14.01,2013-05-04 04:48:00,
2013-05-04 00:49:00,60.5,41.3,30.01,SE,146,2.0,2.0,49,0.00,,OVC003,0.00,VWS V14.01,2013-05-04 04:49:00,
2013-05-04 00:50:00,60.5,41.3,30.01,SE,146,2.0,2.0,49,0.00,,OVC003,0.00,VWS V14.01,2013-05-04 04:50:00,
2013-05-04 00:54:00,60.5,41.3,30.01,SE,146,2.0,0.0,49,0.00,,OVC003,0.00,VWS V14.01,2013-05-04 04:54:00,
2013-05-04 00:55:00,60.4,41.7,30.01,SE,145,2.0,0.0,50,0.00,,OVC003,0.00,VWS V14.01,2013-05-04 04:55:00,
2013-05-04 00:56:00,60.4,41.7,30.01,SE,146,2.0,0.0,50,0.00,,OVC003,0.00,VWS V14.01,2013-05-04 04:56:00,
2013-05-04 01:00:00,60.5,41.3,30.01,SE,146,2.0,0.0,49,0.00,,OVC003,0.00,VWS V14.01,2013-05-04 05:00:00,
2013-05-04 01:05:00,60.2,42.0,30.01,SE,145,2.0,0.0,51,0.00,,OVC003,0.00,VWS V14.01,2013-05-04 05:05:00,
2013-05-04 01:07:00,60.4,41.7,30.01,SE,145,2.0,0.0,50,0.00,,OVC003,0.00,VWS V14.01,2013-05-04 05:07:00,
2013-05-04 01:10:00,60.1,41.9,30.01,SE,146,2.0,0.0,51,0.00,,OVC003,0.00,VWS V14.01,2013-05-04 05:10:00,
2013-05-04 01:12:00,60.3,42.1,30.01,SE,146,2.0,0.0,51,0.00,,OVC003,0.00,VWS V14.01,2013-05-04 05:12:00,
2013-05-04 01:15:00,59.9,42.2,30.01,SE,146,2.0,0.0,52,0.00,,OVC003,0.00,VWS V14.01,2013-05-04 05:15:00,
2013-05-04 01:17:00,60.1,41.9,30.01,SE,146,2.0,0.0,51,0.00,,OVC003,0.00,VWS V14.01,2013-05-04 05:17:00,
2013-05-04 01:20:00,59.8,42.7,30.01,SE,145,2.0,0.0,53,0.00,,OVC003,0.00,VWS V14.01,2013-05-04 05:20:00,
2013-05-04 01:22:00,60.0,42.3,30.01,SE,146,2.0,0.0,52,0.00,,OVC003,0.00,VWS V14.01,2013-05-04 05:22:00,
2013-05-04 01:23:00,59.8,42.7,30.01,SE,146,2.0,0.0,53,0.00,,OVC003,0.00,VWS V14.01,2013-05-04 05:23:00,
2013-05-04 01:24:00,59.8,42.7,30.01,SE,146,2.0,2.0,53,0.00,,OVC003,0.00,VWS V14.01,2013-05-04 05:24:00,
2013-05-04 01:25:00,59.8,42.7,30.01,SE,146,2.0,0.0,53,0.00,,OVC003,0.00,VWS V14.01,2013-05-04 05:25:00,
2013-05-04 01:26:00,59.8,43.1,30.01,SE,146,2.0,0.0,54,0.00,,OVC003,0.00,VWS V14.01,2013-05-04 05:26:00,
2013-05-04 01:27:00,59.8,42.7,30.01,SE,146,2.0,0.0,53,0.00,,OVC003,0.00,VWS V14.01,2013-05-04 05:27:00,
2013-05-04 01:28:00,59.9,42.2,30.01,SE,145,2.0,0.0,52,0.00,,OVC003,0.00,VWS V14.01,2013-05-04 05:28:00,
2013-05-04 01:29:00,59.8,43.1,30.01,SE,145,2.0,0.0,54,0.00,,OVC003,0.00,VWS V14.01,2013-05-04 05:29:00,
2013-05-04 01:30:00,59.7,43.0,30.01,SE,146,2.0,0.0,54,0.00,,OVC003,0.00,VWS V14.01,2013-05-04 05:30:00,
2013-05-04 01:31:00,59.7,43.0,30.01,SE,146,2.0,0.0,54,0.00,,OVC003,0.00,VWS V14.01,2013-05-04 05:31:00,
2013-05-04 01:32:00,59.7,43.0,30.01,SE,146,2.0,0.0,54,0.00,,OVC003,0.00,VWS V14.01,2013-05-04 05:32:00,
2013-05-04 01:33:00,59.7,43.0,30.01,SE,146,2.0,2.0,54,0.00,,OVC003,0.00,VWS V14.01,2013-05-04 05:33:00,
2013-05-04 01:34:00,59.8,42.7,30.01,SE,145,2.0,2.0,53,0.00,,OVC003,0.00,VWS V14.01,2013-05-04 05:34:00,
2013-05-04 01:35:00,59.8,43.1,30.01,SE,145,2.0,0.0,54,0.00,,OVC003,0.00,VWS V14.01,2013-05-04 05:35:00,
2013-05-04 01:36:00,59.8,43.1,30.01,SE,145,2.0,2.0,54,0.00,,OVC003,0.00,VWS V14.01,2013-05-04 05:36:00,
2013-05-04 01:37:00,59.8,43.1,30.01,SE,146,2.0,2.0,54,0.00,,OVC003,0.00,VWS V14.01,2013-05-04 05:37:00,
2013-05-04 01:38:00,59.9,43.2,30.01,SE,146,2.0,2.0,54,0.00,,OVC003,0.00,VWS V14.01,2013-05-04 05:38:00,
2013-05-04 01:39:00,59.7,43.0,30.01,SE,146,2.0,0.0,54,0.00,,OVC003,0.00,VWS V14.01,2013-05-04 05:39:00,
2013-05-04 01:40:00,59.9,43.2,30.01,SE,145,2.0,0.0,54,0.00,,OVC003,0.00,VWS V14.01,2013-05-04 05:40:00,
2013-05-04 01:41:00,60.0,43.3,30.01,SE,146,2.0,0.0,54,0.00,,OVC003,0.00,VWS V14.01,2013-05-04 05:41:00,
2013-05-04 01:42:00,60.0,43.3,30.01,SE,146,2.0,0.0,54,0.00,,OVC003,0.00,VWS V14.01,2013-05-04 05:42:00,
2013-05-04 01:43:00,60.1,43.4,30.01,SE,145,2.0,2.0,54,0.00,,OVC003,0.00,VWS V14.01,2013-05-04 05:43:00,
2013-05-04 01:44:00,59.8,43.1,30.01,SE,146,2.0,2.0,54,0.00,,OVC003,0.00,VWS V14.01,2013-05-04 05:44:00,
2013-05-04 01:45:00,60.2,43.5,30.00,SE,145,2.0,0.0,54,0.00,,OVC003,0.00,VWS V14.01,2013-05-04 05:45:00,
2013-05-04 01:46:00,60.2,43.5,30.00,SE,146,2.0,0.0,54,0.00,,OVC003,0.00,VWS V14.01,2013-05-04 05:46:00,
2013-05-04 01:47:00,60.2,43.5,30.00,SE,146,2.0,0.0,54,0.00,,OVC003,0.00,VWS V14.01,2013-05-04 05:47:00,
2013-05-04 01:48:00,60.2,43.5,30.00,SE,146,2.0,0.0,54,0.00,,OVC003,0.00,VWS V14.01,2013-05-04 05:48:00,
2013-05-04 01:49:00,59.9,43.2,30.01,SE,145,2.0,2.0,54,0.00,,OVC003,0.00,VWS V14.01,2013-05-04 05:49:00,
2013-05-04 01:50:00,60.2,43.5,30.00,SE,145,2.0,0.0,54,0.00,,OVC003,0.00,VWS V14.01,2013-05-04 05:50:00,
2013-05-04 01:51:00,60.1,43.4,30.00,SE,146,2.0,0.0,54,0.00,,OVC003,0.00,VWS V14.01,2013-05-04 05:51:00,
2013-05-04 01:54:00,60.2,43.0,30.00,SE,146,2.0,2.0,53,0.00,,OVC003,0.00,VWS V14.01,2013-05-04 05:54:00,
2013-05-04 01:55:00,60.0,43.3,30.00,SE,145,2.0,0.0,54,0.00,,OVC003,0.00,VWS V14.01,2013-05-04 05:55:00,
2013-05-04 01:56:00,59.9,43.7,30.00,SE,145,2.0,0.0,55,0.00,,OVC003,0.00,VWS V14.01,2013-05-04 05:56:00,
2013-05-04 01:57:00,59.9,43.7,30.00,SE,146,2.0,0.0,55,0.00,,OVC003,0.00,VWS V14.01,2013-05-04 05:57:00,
2013-05-04 01:58:00,59.8,43.6,30.00,SE,146,2.0,0.0,55,0.00,,OVC003,0.00,VWS V14.01,2013-05-04 05:58:00,
2013-05-04 01:59:00,60.2,43.5,30.00,SE,146,2.0,0.0,54,0.00,,OVC003,0.00,VWS V14.01,2013-05-04 05:59:00,
2013-05-04 02:00:00,59.8,43.6,30.00,SE,146,2.0,0.0,55,0.00,,OVC003,0.00,VWS V14.01,2013-05-04 06:00:00,
2013-05-04 02:02:00,59.6,43.4,30.00,SE,146,2.0,0.0,55,0.00,,OVC003,0.00,VWS V14.01,2013-05-04 06:02:00,
2013-05-04 02:03:00,59.6,43.4,30.00,SE,146,2.0,0.0,55,0.00,,OVC003,0.00,VWS V14.01,2013-05-04 06:03:00,
2013-05-04 02:04:00,60.0,43.3,30.00,SE,146,2.0,2.0,54,0.00,,OVC003,0.00,VWS V14.01,2013-05-04 06:04:00,
2013-05-04 02:05:00,59.5,43.3,30.00,SE,146,2.0,0.0,55,0.00,,OVC003,0.00,VWS V14.01,2013-05-04 06:05:00,
2013-05-04 02:06:00,59.4,43.7,30.00,SE,146,2.0,0.0,56,0.00,,OVC003,0.00,VWS V14.01,2013-05-04 06:06:00,
2013-05-04 02:07:00,59.3,43.6,30.00,SE,145,2.0,0.0,56,0.00,,OVC003,0.00,VWS V14.01,2013-05-04 06:07:00,
2013-05-04 02:08:00,59.3,43.6,30.00,SE,145,2.0,0.0,56,0.00,,OVC003,0.00,VWS V14.01,2013-05-04 06:08:00,
2013-05-04 02:09:00,59.8,43.6,30.00,SE,146,2.0,0.0,55,0.00,,OVC003,0.00,VWS V14.01,2013-05-04 06:09:00,
2013-05-04 02:10:00,59.1,43.4,30.00,SE,146,2.0,0.0,56,0.00,,OVC003,0.00,VWS V14.01,2013-05-04 06:10:00,
2013-05-04 02:11:00,59.0,43.3,30.00,SE,146,2.0,0.0,56,0.00,,OVC003,0.00,VWS V14.01,2013-05-04 06:11:00,
2013-05-04 02:13:00,59.0,43.8,30.00,SE,146,2.0,0.0,57,0.00,,OVC003,0.00,VWS V14.01,2013-05-04 06:13:00,
2013-05-04 02:14:00,59.5,43.3,30.00,SE,146,2.0,0.0,55,0.00,,OVC003,0.00,VWS V14.01,2013-05-04 06:14:00,
2013-05-04 02:15:00,59.0,43.8,30.00,SE,145,2.0,0.0,57,0.00,,OVC003,0.00,VWS V14.01,2013-05-04 06:15:00,
2013-05-04 02:16:00,59.0,43.8,30.00,SE,146,2.0,0.0,57,0.00,,OVC003,0.00,VWS V14.01,2013-05-04 06:16:00,
2013-05-04 02:18:00,59.0,43.8,30.00,SE,145,2.0,0.0,57,0.00,,OVC003,0.00,VWS V14.01,2013-05-04 06:18:00,
2013-05-04 02:19:00,59.1,43.4,30.00,SE,146,2.0,0.0,56,0.00,,OVC003,0.00,VWS V14.01,2013-05-04 06:19:00,
2013-05-04 02:20:00,59.0,43.3,30.00,SE,146,2.0,0.0,56,0.00,,OVC003,0.00,VWS V14.01,2013-05-04 06:20:00,
2013-05-04 02:22:00,59.0,43.8,30.00,SE,146,2.0,0.0,57,0.00,,OVC003,0.00,VWS V14.01,2013-05-04 06:22:00,
2013-05-04 02:25:00,59.0,43.8,30.00,SE,145,2.0,0.0,57,0.00,,OVC003,0.00,VWS V14.01,2013-05-04 06:25:00,
2013-05-04 02:28:00,59.0,43.8,30.00,SE,146,2.0,2.0,57,0.00,,OVC003,0.00,VWS V14.01,2013-05-04 06:28:00,
2013-05-04 02:29:00,59.0,43.8,30.00,SE,145,2.0,2.0,57,0.00,,OVC003,0.00,VWS V14.01,2013-05-04 06:29:00,
2013-05-04 02:30:00,59.0,43.8,30.00,SE,146,2.0,2.0,57,0.00,,OVC003,0.00,VWS V14.01,2013-05-04 06:30:00,
2013-05-04 02:31:00,59.0,43.8,30.00,SE,146,2.0,0.0,57,0.00,,OVC003,0.00,VWS V14.01,2013-05-04 06:31:00,
2013-05-04 02:34:00,59.0,43.8,30.00,SE,146,2.0,2.0,57,0.00,,OVC003,0.00,VWS V14.01,2013-05-04 06:34:00,
2013-05-04 02:35:00,59.0,44.3,30.00,SE,146,2.0,2.0,58,0.00,,OVC003,0.00,VWS V14.01,2013-05-04 06:35:00,
2013-05-04 02:36:00,59.0,43.8,30.00,SE,146,2.0,2.0,57,0.00,,OVC003,0.00,VWS V14.01,2013-05-04 06:36:00,
2013-05-04 02:37:00,59.0,43.8,30.00,SE,146,2.0,0.0,57,0.00,,OVC003,0.00,VWS V14.01,2013-05-04 06:37:00,
2013-05-04 02:39:00,59.0,44.3,30.00,SE,145,2.0,0.0,58,0.00,,OVC003,0.00,VWS V14.01,2013-05-04 06:39:00,
2013-05-04 02:40:00,58.8,44.1,30.00,SE,146,2.0,0.0,58,0.00,,OVC003,0.00,VWS V14.01,2013-05-04 06:40:00,
2013-05-04 02:41:00,59.0,43.8,30.00,SE,146,2.0,0.0,57,0.00,,OVC003,0.00,VWS V14.01,2013-05-04 06:41:00,
2013-05-04 02:42:00,58.7,44.0,30.00,SE,146,2.0,0.0,58,0.00,,OVC003,0.00,VWS V14.01,2013-05-04 06:42:00,
2013-05-04 02:43:00,58.7,44.0,30.00,SE,145,2.0,0.0,58,0.00,,OVC003,0.00,VWS V14.01,2013-05-04 06:43:00,
2013-05-04 02:44:00,58.6,43.9,30.00,SE,146,2.0,0.0,58,0.00,,OVC003,0.00,VWS V14.01,2013-05-04 06:44:00,
2013-05-04 02:45:00,58.6,43.9,30.00,SE,146,2.0,0.0,58,0.00,,OVC003,0.00,VWS V14.01,2013-05-04 06:45:00,
2013-05-04 02:46:00,58.6,43.9,30.00,SE,145,2.0,0.0,58,0.00,,OVC003,0.00,VWS V14.01,2013-05-04 06:46:00,
2013-05-04 02:48:00,59.0,44.3,30.00,SE,145,2.0,0.0,58,0.00,,OVC003,0.00,VWS V14.01,2013-05-04 06:48:00,
2013-05-04 02:50:00,58.5,44.2,30.00,SE,145,2.0,0.0,59,0.00,,OVC003,0.00,VWS V14.01,2013-05-04 06:50:00,
2013-05-04 02:51:00,58.4,44.1,30.00,SE,146,2.0,0.0,59,0.00,,OVC003,0.00,VWS V14.01,2013-05-04 06:51:00,
2013-05-04 02:53:00,58.3,44.0,30.00,SE,146,2.0,0.0,59,0.00,,OVC003,0.00,VWS V14.01,2013-05-04 06:53:00,
2013-05-04 02:54:00,58.3,44.0,30.00,SE,146,2.0,0.0,59,0.00,,OVC003,0.00,VWS V14.01,2013-05-04 06:54:00,
2013-05-04 02:55:00,58.6,43.9,30.00,SE,146,2.0,0.0,58,0.00,,OVC003,0.00,VWS V14.01,2013-05-04 06:55:00,
2013-05-04 02:56:00,58.2,44.4,30.00,SE,146,2.0,0.0,60,0.00,,OVC003,0.00,VWS V14.01,2013-05-04 06:56:00,
2013-05-04 02:58:00,58.1,44.3,30.00,SE,145,2.0,0.0,60,0.00,,OVC003,0.00,VWS V14.01,2013-05-04 06:58:00,
2013-05-04 02:59:00,58.1,44.3,30.00,SE,145,2.0,0.0,60,0.00,,OVC003,0.00,VWS V14.01,2013-05-04 06:59:00,
2013-05-04 03:00:00,58.1,44.3,30.00,SE,146,2.0,0.0,60,0.00,,OVC003,0.00,VWS V14.01,2013-05-04 07:00:00,
2013-05-04 03:01:00,58.0,44.2,30.00,SE,146,2.0,0.0,60,0.00,,OVC003,0.00,VWS V14.01,2013-05-04 07:01:00,
2013-05-04 03:02:00,58.4,44.1,30.00,SE,146,2.0,0.0,59,0.00,,OVC003,0.00,VWS V14.01,2013-05-04 07:02:00,
2013-05-04 03:04:00,57.9,44.1,30.00,SE,145,2.0,0.0,60,0.00,,OVC003,0.00,VWS V14.01,2013-05-04 07:04:00,
2013-05-04 03:05:00,57.9,44.1,30.00,SE,145,2.0,0.0,60,0.00,,OVC003,0.00,VWS V14.01,2013-05-04 07:05:00,
2013-05-04 03:06:00,57.9,44.1,30.00,SE,145,2.0,0.0,60,0.00,,OVC003,0.00,VWS V14.01,2013-05-04 07:06:00,
2013-05-04 03:07:00,58.2,44.4,30.00,SE,146,2.0,0.0,60,0.00,,OVC003,0.00,VWS V14.01,2013-05-04 07:07:00,
2013-05-04 03:09:00,57.8,44.0,30.00,SE,146,2.0,0.0,60,0.00,,OVC003,0.00,VWS V14.01,2013-05-04 07:09:00,
2013-05-04 03:10:00,57.8,44.0,30.00,SE,146,2.0,0.0,60,0.00,,OVC003,0.00,VWS V14.01,2013-05-04 07:10:00,
2013-05-04 03:13:00,58.0,44.2,30.00,SE,145,2.0,0.0,60,0.00,,OVC003,0.00,VWS V14.01,2013-05-04 07:13:00,
2013-05-04 03:15:00,57.7,44.4,30.00,SE,146,2.0,0.0,61,0.00,,OVC003,0.00,VWS V14.01,2013-05-04 07:15:00,
2013-05-04 03:16:00,57.6,44.3,30.00,SE,146,2.0,0.0,61,0.00,,OVC003,0.00,VWS V14.01,2013-05-04 07:16:00,
2013-05-04 03:17:00,57.6,44.3,30.00,SE,146,2.0,0.0,61,0.00,,OVC003,0.00,VWS V14.01,2013-05-04 07:17:00,
2013-05-04 03:18:00,57.8,44.0,30.00,SE,146,2.0,0.0,60,0.00,,OVC003,0.00,VWS V14.01,2013-05-04 07:18:00,
2013-05-04 03:20:00,57.6,44.3,30.00,SE,146,2.0,0.0,61,0.00,,OVC003,0.00,VWS V14.01,2013-05-04 07:20:00,
2013-05-04 03:21:00,57.5,44.2,30.00,SE,146,2.0,0.0,61,0.00,,OVC003,0.00,VWS V14.01,2013-05-04 07:21:00,
2013-05-04 03:22:00,57.5,44.2,30.00,SE,145,2.0,0.0,61,0.00,,OVC003,0.00,VWS V14.01,2013-05-04 07:22:00,
2013-05-04 03:23:00,57.5,44.2,30.00,SE,146,2.0,0.0,61,0.00,,OVC003,0.00,VWS V14.01,2013-05-04 07:23:00,
2013-05-04 03:24:00,57.7,44.4,30.00,SE,146,2.0,0.0,61,0.00,,OVC003,0.00,VWS V14.01,2013-05-04 07:24:00,
2013-05-04 03:25:00,57.4,44.1,30.00,SE,146,2.0,0.0,61,0.00,,OVC003,0.00,VWS V14.01,2013-05-04 07:25:00,
2013-05-04 03:27:00,57.4,44.5,30.00,SE,146,2.0,0.0,62,0.00,,OVC003,0.00,VWS V14.01,2013-05-04 07:27:00,
2013-05-04 03:28:00,57.3,44.4,30.00,SE,146,2.0,0.0,62,0.00,,OVC003,0.00,VWS V14.01,2013-05-04 07:28:00,
2013-05-04 03:29:00,57.6,44.3,30.00,SE,145,2.0,0.0,61,0.00,,OVC003,0.00,VWS V14.01,2013-05-04 07:29:00,
2013-05-04 03:30:00,57.3,44.4,30.00,SE,146,2.0,0.0,62,0.00,,OVC003,0.00,VWS V14.01,2013-05-04 07:30:00,
2013-05-04 03:33:00,57.2,44.3,30.00,SE,145,2.0,0.0,62,0.00,,OVC003,0.00,VWS V14.01,2013-05-04 07:33:00,
2013-05-04 03:34:00,57.5,44.2,30.00,SE,146,2.0,0.0,61,0.00,,OVC003,0.00,VWS V14.01,2013-05-04 07:34:00,
2013-05-04 03:35:00,57.2,44.3,30.00,SE,146,2.0,0.0,62,0.00,,OVC003,0.00,VWS V14.01,2013-05-04 07:35:00,
2013-05-04 03:36:00,57.2,44.3,30.00,SE,145,2.0,0.0,62,0.00,,OVC003,0.00,VWS V14.01,2013-05-04 07:36:00,
2013-05-04 03:38:00,57.1,44.2,30.00,SE,146,2.0,0.0,62,0.00,,OVC003,0.00,VWS V14.01,2013-05-04 07:38:00,
2013-05-04 03:39:00,57.3,44.4,30.00,SE,146,2.0,0.0,62,0.00,,OVC003,0.00,VWS V14.01,2013-05-04 07:39:00,
2013-05-04 03:40:00,57.1,44.6,30.00,SE,145,2.0,0.0,63,0.00,,OVC003,0.00,VWS V14.01,2013-05-04 07:40:00,
2013-05-04 03:41:00,57.1,44.6,30.00,SE,146,2.0,0.0,63,0.00,,OVC003,0.00,VWS V14.01,2013-05-04 07:41:00,
2013-05-04 03:44:00,57.1,44.6,30.00,SE,145,2.0,2.0,63,0.00,,OVC003,0.00,VWS V14.01,2013-05-04 07:44:00,
2013-05-04 03:45:00,57.2,44.3,30.00,SE,145,2.0,0.0,62,0.00,,OVC003,0.00,VWS V14.01,2013-05-04 07:45:00,
2013-05-04 03:48:00,57.0,44.5,30.00,SE,146,2.0,0.0,63,0.00,,OVC003,0.00,VWS V14.01,2013-05-04 07:48:00,
2013-05-04 03:49:00,57.0,44.5,30.00,SE,146,2.0,0.0,63,0.00,,OVC003,0.00,VWS V14.01,2013-05-04 07:49:00,
2013-05-04 03:50:00,57.0,44.5,30.00,SE,146,2.0,0.0,63,0.00,,OVC003,0.00,VWS V14.01,2013-05-04 07:50:00,
2013-05-04 03:51:00,56.9,44.5,30.00,SE,145,2.0,0.0,63,0.00,,OVC003,0.00,VWS V14.01,2013-05-04 07:51:00,
2013-05-04 03:52:00,57.1,44.6,30.00,SE,146,2.0,0.0,63,0.00,,OVC003,0.00,VWS V14.01,2013-05-04 07:52:00,
2013-05-04 03:53:00,56.9,44.5,30.00,SE,146,2.0,0.0,63,0.00,,OVC003,0.00,VWS V14.01,2013-05-04 07:53:00,
2013-05-04 03:54:00,56.9,44.5,30.00,SE,145,2.0,0.0,63,0.00,,OVC003,0.00,VWS V14.01,2013-05-04 07:54:00,
2013-05-04 03:55:00,56.9,44.5,30.00,SE,146,2.0,0.0,63,0.00,,OVC003,0.00,VWS V14.01,2013-05-04 07:55:00,
2013-05-04 03:57:00,57.0,44.5,30.00,SE,146,2.0,0.0,63,0.00,,OVC003,0.00,VWS V14.01,2013-05-04 07:57:00,
2013-05-04 03:59:00,56.8,44.3,30.00,SE,146,2.0,0.0,63,0.00,,OVC003,0.00,VWS V14.01,2013-05-04 07:59:00,
2013-05-04 04:00:00,56.8,44.3,30.00,SE,146,2.0,0.0,63,0.00,,OVC003,0.00,VWS V14.01,2013-05-04 08:00:00,
2013-05-04 04:02:00,56.9,44.5,30.00,SE,145,2.0,0.0,63,0.00,,OVC003,0.00,VWS V14.01,2013-05-04 08:02:00,
2013-05-04 04:03:00,56.8,44.3,30.00,SE,145,2.0,0.0,63,0.00,,OVC003,0.00,VWS V14.01,2013-05-04 08:03:00,
2013-05-04 04:04:00,56.8,44.8,30.00,SE,146,2.0,0.0,64,0.00,,OVC003,0.00,VWS V14.01,2013-05-04 08:04:00,
2013-05-04 04:05:00,56.8,44.8,30.00,SE,146,2.0,0.0,64,0.00,,OVC003,0.00,VWS V14.01,2013-05-04 08:05:00,
2013-05-04 04:06:00,56.8,44.8,30.00,SE,146,2.0,0.0,64,0.00,,OVC003,0.00,VWS V14.01,2013-05-04 08:06:00,
2013-05-04 04:07:00,56.8,44.8,30.00,SE,145,2.0,0.0,64,0.00,,OVC003,0.00,VWS V14.01,2013-05-04 08:07:00,
2013-05-04 04:08:00,56.9,44.5,30.00,SE,146,2.0,0.0,63,0.00,,OVC003,0.00,VWS V14.01,2013-05-04 08:08:00,
2013-05-04 04:10:00,56.7,44.7,30.00,SE,145,2.0,0.0,64,0.00,,OVC003,0.00,VWS V14.01,2013-05-04 08:10:00,
2013-05-04 04:12:00,56.8,44.8,30.00,SE,146,2.0,0.0,64,0.00,,OVC003,0.00,VWS V14.01,2013-05-04 08:12:00,
2013-05-04 04:13:00,56.7,44.7,30.00,SE,146,2.0,0.0,64,0.00,,OVC003,0.00,VWS V14.01,2013-05-04 08:13:00,
2013-05-04 04:14:00,56.7,44.7,30.01,SE,146,2.0,0.0,64,0.00,,OVC003,0.00,VWS V14.01,2013-05-04 08:14:00,
2013-05-04 04:15:00,56.7,44.7,30.01,SE,146,2.0,0.0,64,0.00,,OVC003,0.00,VWS V14.01,2013-05-04 08:15:00,
2013-05-04 04:17:00,56.7,44.7,30.01,SE,145,2.0,0.0,64,0.00,,OVC003,0.00,VWS V14.01,2013-05-04 08:17:00,
2013-05-04 04:18:00,56.7,44.7,30.01,SE,146,2.0,0.0,64,0.00,,OVC003,0.00,VWS V14.01,2013-05-04 08:18:00,
2013-05-04 04:19:00,56.8,44.8,30.00,SE,146,2.0,0.0,64,0.00,,OVC003,0.00,VWS V14.01,2013-05-04 08:19:00,
2013-05-04 04:20:00,56.7,44.7,30.01,SE,146,2.0,0.0,64,0.00,,OVC003,0.00,VWS V14.01,2013-05-04 08:20:00,
2013-05-04 04:22:00,56.6,45.0,30.01,SE,145,2.0,0.0,65,0.00,,OVC003,0.00,VWS V14.01,2013-05-04 08:22:00,
2013-05-04 04:23:00,56.6,45.0,30.01,SE,145,2.0,0.0,65,0.00,,OVC003,0.00,VWS V14.01,2013-05-04 08:23:00,
2013-05-04 04:25:00,56.6,45.0,30.01,SE,145,2.0,0.0,65,0.00,,OVC003,0.00,VWS V14.01,2013-05-04 08:25:00,
2013-05-04 04:26:00,56.7,44.7,30.01,SE,146,2.0,0.0,64,0.00,,OVC003,0.00,VWS V14.01,2013-05-04 08:26:00,
2013-05-04 04:27:00,56.5,44.5,30.01,SE,146,2.0,0.0,64,0.00,,OVC003,0.00,VWS V14.01,2013-05-04 08:27:00,
2013-05-04 04:29:00,56.5,44.5,30.01,SE,146,2.0,0.0,64,0.00,,OVC003,0.00,VWS V14.01,2013-05-04 08:29:00,
2013-05-04 04:30:00,56.5,44.9,30.01,SE,145,2.0,0.0,65,0.00,,OVC003,0.00,VWS V14.01,2013-05-04 08:30:00,
2013-05-04 04:31:00,56.6,44.6,30.01,SE,146,2.0,0.0,64,0.00,,OVC003,0.00,VWS V14.01,2013-05-04 08:31:00,
2013-05-04 04:32:00,56.5,44.9,30.01,SE,146,2.0,0.0,65,0.00,,OVC003,0.00,VWS V14.01,2013-05-04 08:32:00,
2013-05-04 04:33:00,56.4,44.8,30.01,SE,146,2.0,0.0,65,0.00,,OVC003,0.00,VWS V14.01,2013-05-04 08:33:00,
2013-05-04 04:34:00,56.4,44.8,30.01,SE,146,2.0,0.0,65,0.00,,OVC003,0.00,VWS V14.01,2013-05-04 08:34:00,
2013-05-04 04:35:00,56.4,44.8,30.01,SE,146,2.0,0.0,65,0.00,,OVC003,0.00,VWS V14.01,2013-05-04 08:35:00,
2013-05-04 04:37:00,56.4,44.8,30.01,SE,145,2.0,0.0,65,0.00,,OVC003,0.00,VWS V14.01,2013-05-04 08:37:00,
2013-05-04 04:38:00,56.5,44.5,30.01,SE,145,2.0,0.0,64,0.00,,OVC003,0.00,VWS V14.01,2013-05-04 08:38:00,
2013-05-04 04:39:00,56.3,44.7,30.01,SE,146,2.0,0.0,65,0.00,,OVC003,0.00,VWS V14.01,2013-05-04 08:39:00,
2013-05-04 04:40:00,56.3,44.7,30.01,SE,146,2.0,0.0,65,0.00,,OVC003,0.00,VWS V14.01,2013-05-04 08:40:00,
2013-05-04 04:41:00,56.3,44.7,30.01,SE,146,2.0,0.0,65,0.00,,OVC003,0.00,VWS V14.01,2013-05-04 08:41:00,
2013-05-04 04:42:00,56.3,44.7,30.01,SE,146,2.0,0.0,65,0.00,,OVC003,0.00,VWS V14.01,2013-05-04 08:42:00,
2013-05-04 04:44:00,56.2,44.6,30.01,SE,146,2.0,0.0,65,0.00,,OVC003,0.00,VWS V14.01,2013-05-04 08:44:00,
2013-05-04 04:45:00,56.4,44.8,30.01,SE,146,2.0,0.0,65,0.00,,OVC003,0.00,VWS V14.01,2013-05-04 08:45:00,
2013-05-04 04:46:00,56.2,44.6,30.01,SE,146,2.0,0.0,65,0.00,,OVC003,0.00,VWS V14.01,2013-05-04 08:46:00,
2013-05-04 04:47:00,56.2,45.0,30.01,SE,146,2.0,0.0,66,0.00,,OVC003,0.00,VWS V14.01,2013-05-04 08:47:00,
2013-05-04 04:49:00,56.2,45.0,30.01,SE,145,2.0,0.0,66,0.00,,OVC003,0.00,VWS V14.01,2013-05-04 08:49:00,
2013-05-04 04:50:00,56.1,44.9,30.01,SE,146,2.0,0.0,66,0.00,,OVC003,0.00,VWS V14.01,2013-05-04 08:50:00,
2013-05-04 04:51:00,56.1,44.9,30.01,SE,146,2.0,0.0,66,0.00,,OVC003,0.00,VWS V14.01,2013-05-04 08:51:00,
2013-05-04 04:52:00,56.1,44.9,30.01,SE,146,2.0,0.0,66,0.00,,OVC003,0.00,VWS V14.01,2013-05-04 08:52:00,
2013-05-04 04:53:00,56.2,44.6,30.01,SE,145,2.0,0.0,65,0.00,,OVC003,0.00,VWS V14.01,2013-05-04 08:53:00,
2013-05-04 04:54:00,56.1,44.9,30.01,SE,145,2.0,0.0,66,0.00,,OVC003,0.00,VWS V14.01,2013-05-04 08:54:00,
2013-05-04 04:55:00,56.0,44.8,30.01,SE,146,2.0,0.0,66,0.00,,OVC003,0.00,VWS V14.01,2013-05-04 08:55:00,
2013-05-04 04:56:00,56.0,44.8,30.01,SE,146,2.0,0.0,66,0.00,,OVC003,0.00,VWS V14.01,2013-05-04 08:56:00,
2013-05-04 04:57:00,56.0,44.8,30.01,SE,145,2.0,0.0,66,0.00,,OVC003,0.00,VWS V14.01,2013-05-04 08:57:00,
2013-05-04 04:58:00,56.2,44.6,30.01,SE,145,2.0,0.0,65,0.00,,OVC003,0.00,VWS V14.01,2013-05-04 08:58:00,
2013-05-04 04:59:00,56.0,44.8,30.01,SE,145,2.0,0.0,66,0.00,,OVC003,0.00,VWS V14.01,2013-05-04 08:59:00,
2013-05-04 05:00:00,55.9,44.7,30.01,SE,145,2.0,0.0,66,0.00,,OVC003,0.00,VWS V14.01,2013-05-04 09:00:00,
2013-05-04 05:01:00,55.9,44.7,30.01,SE,146,2.0,0.0,66,0.00,,OVC003,0.00,VWS V14.01,2013-05-04 09:01:00,
2013-05-04 05:02:00,55.9,44.7,30.01,SE,146,2.0,0.0,66,0.00,,OVC003,0.00,VWS V14.01,2013-05-04 09:02:00,
2013-05-04 05:03:00,55.9,44.7,30.01,SE,145,2.0,0.0,66,0.00,,OVC003,0.00,VWS V14.01,2013-05-04 09:03:00,
2013-05-04 05:04:00,56.1,44.9,30.01,SE,146,2.0,0.0,66,0.00,,OVC003,0.00,VWS V14.01,2013-05-04 09:04:00,
2013-05-04 05:05:00,55.9,44.7,30.01,SE,145,2.0,0.0,66,0.00,,OVC003,0.00,VWS V14.01,2013-05-04 09:05:00,
2013-05-04 05:06:00,55.9,44.7,30.01,SE,145,2.0,0.0,66,0.00,,OVC003,0.00,VWS V14.01,2013-05-04 09:06:00,
2013-05-04 05:07:00,55.9,44.7,30.01,SE,146,2.0,0.0,66,0.00,,OVC003,0.00,VWS V14.01,2013-05-04 09:07:00,
2013-05-04 05:08:00,55.8,44.6,30.01,SE,146,2.0,0.0,66,0.00,,OVC003,0.00,VWS V14.01,2013-05-04 09:08:00,
2013-05-04 05:09:00,55.8,44.6,30.01,SE,146,2.0,0.0,66,0.00,,OVC003,0.00,VWS V14.01,2013-05-04 09:09:00,
2013-05-04 05:10:00,55.8,44.6,30.01,SE,146,2.0,0.0,66,0.00,,OVC003,0.00,VWS V14.01,2013-05-04 09:10:00,
2013-05-04 05:11:00,55.8,45.0,30.01,SE,146,2.0,0.0,67,0.00,,OVC003,0.00,VWS V14.01,2013-05-04 09:11:00,
2013-05-04 05:12:00,55.8,45.0,30.01,SE,146,2.0,0.0,67,0.00,,OVC003,0.00,VWS V14.01,2013-05-04 09:12:00,
2013-05-04 05:13:00,55.8,45.0,30.01,SE,146,2.0,0.0,67,0.00,,OVC003,0.00,VWS V14.01,2013-05-04 09:13:00,
2013-05-04 05:14:00,55.8,45.0,30.01,SE,145,2.0,0.0,67,0.00,,OVC003,0.00,VWS V14.01,2013-05-04 09:14:00,
2013-05-04 05:15:00,55.8,45.0,30.01,SE,146,2.0,0.0,67,0.00,,OVC003,0.00,VWS V14.01,2013-05-04 09:15:00,
2013-05-04 05:16:00,55.8,45.0,30.01,SE,145,2.0,0.0,67,0.00,,OVC003,0.00,VWS V14.01,2013-05-04 09:16:00,
2013-05-04 05:17:00,55.8,45.0,30.01,SE,146,2.0,0.0,67,0.00,,OVC003,0.00,VWS V14.01,2013-05-04 09:17:00,
2013-05-04 05:18:00,55.8,45.0,30.01,SE,146,2.0,0.0,67,0.00,,OVC003,0.00,VWS V14.01,2013-05-04 09:18:00,
2013-05-04 05:19:00,55.8,45.0,30.01,SE,146,2.0,0.0,67,0.00,,OVC003,0.00,VWS V14.01,2013-05-04 09:19:00,
2013-05-04 05:20:00,55.8,45.0,30.01,SE,146,2.0,0.0,67,0.00,,OVC003,0.00,VWS V14.01,2013-05-04 09:20:00,
2013-05-04 05:25:00,55.9,45.1,30.01,SE,146,2.0,0.0,67,0.00,,OVC003,0.00,VWS V14.01,2013-05-04 09:25:00,
2013-05-04 05:26:00,55.9,45.1,30.01,SE,146,2.0,0.0,67,0.00,,OVC003,0.00,VWS V14.01,2013-05-04 09:26:00,
2013-05-04 05:27:00,55.9,45.1,30.01,SE,146,2.0,0.0,67,0.00,,OVC003,0.00,VWS V14.01,2013-05-04 09:27:00,
2013-05-04 05:28:00,55.8,45.0,30.01,SE,146,2.0,0.0,67,0.00,,OVC003,0.00,VWS V14.01,2013-05-04 09:28:00,
2013-05-04 05:29:00,55.8,45.0,30.01,SE,145,2.0,0.0,67,0.00,,OVC003,0.00,VWS V14.01,2013-05-04 09:29:00,
2013-05-04 05:30:00,55.8,45.0,30.01,SE,146,2.0,0.0,67,0.00,,OVC003,0.00,VWS V14.01,2013-05-04 09:30:00,
2013-05-04 05:35:00,55.7,44.9,30.01,SE,145,2.0,0.0,67,0.00,,OVC003,0.00,VWS V14.01,2013-05-04 09:35:00,
2013-05-04 05:40:00,55.7,44.9,30.01,SE,145,2.0,0.0,67,0.00,,OVC003,0.00,VWS V14.01,2013-05-04 09:40:00,
2013-05-04 05:41:00,55.8,45.0,30.01,SE,146,2.0,0.0,67,0.00,,OVC003,0.00,VWS V14.01,2013-05-04 09:41:00,
2013-05-04 05:45:00,55.6,44.8,30.02,SE,146,2.0,0.0,67,0.00,,OVC003,0.00,VWS V14.01,2013-05-04 09:45:00,
2013-05-04 05:46:00,55.7,44.9,30.01,SE,146,2.0,0.0,67,0.00,,OVC003,0.00,VWS V14.01,2013-05-04 09:46:00,
2013-05-04 05:47:00,55.6,44.8,30.02,SE,146,2.0,0.0,67,0.00,,OVC003,0.00,VWS V14.01,2013-05-04 09:47:00,
2013-05-04 05:48:00,55.6,44.8,30.02,SE,146,2.0,0.0,67,0.00,,OVC003,0.00,VWS V14.01,2013-05-04 09:48:00,
2013-05-04 05:49:00,55.6,45.2,30.02,SE,145,2.0,0.0,68,0.00,,OVC003,0.00,VWS V14.01,2013-05-04 09:49:00,
2013-05-04 05:50:00,55.5,44.7,30.02,SE,146,2.0,0.0,67,0.00,,OVC003,0.00,VWS V14.01,2013-05-04 09:50:00,
2013-05-04 05:51:00,55.5,45.1,30.02,SE,145,2.0,0.0,68,0.00,,OVC003,0.00,VWS V14.01,2013-05-04 09:51:00,
2013-05-04 05:52:00,55.6,44.8,30.01,SE,146,2.0,0.0,67,0.00,,OVC003,0.00,VWS V14.01,2013-05-04 09:52:00,
2013-05-04 05:53:00,55.5,45.1,30.02,SE,146,2.0,0.0,68,0.00,,OVC003,0.00,VWS V14.01,2013-05-04 09:53:00,
2013-05-04 05:54:00,55.4,45.0,30.02,SE,146,2.0,0.0,68,0.00,,OVC003,0.00,VWS V14.01,2013-05-04 09:54:00,
2013-05-04 05:55:00,55.4,45.0,30.02,SE,146,2.0,0.0,68,0.00,,OVC003,0.00,VWS V14.01,2013-05-04 09:55:00,
2013-05-04 05:56:00,55.4,45.0,30.02,SE,146,2.0,0.0,68,0.00,,OVC003,0.00,VWS V14.01,2013-05-04 09:56:00,
2013-05-04 05:57:00,55.4,45.0,30.02,SE,146,2.0,0.0,68,0.00,,OVC003,0.00,VWS V14.01,2013-05-04 09:57:00,
2013-05-04 05:58:00,55.4,45.0,30.02,SE,146,2.0,0.0,68,0.00,,OVC003,0.00,VWS V14.01,2013-05-04 09:58:00,
2013-05-04 05:59:00,55.5,44.7,30.02,SE,146,2.0,0.0,67,0.00,,OVC003,0.00,VWS V14.01,2013-05-04 09:59:00,
2013-05-04 06:00:00,55.3,44.9,30.02,SE,145,2.0,0.0,68,0.00,,OVC003,0.00,VWS V14.01,2013-05-04 10:00:00,
2013-05-04 06:01:00,55.3,44.9,30.02,SE,146,2.0,0.0,68,0.00,,OVC003,0.00,VWS V14.01,2013-05-04 10:01:00,
2013-05-04 06:02:00,55.3,44.9,30.02,SE,146,2.0,0.0,68,0.00,,OVC003,0.00,VWS V14.01,2013-05-04 10:02:00,
2013-05-04 06:03:00,55.3,44.9,30.02,SE,146,2.0,0.0,68,0.00,,OVC003,0.00,VWS V14.01,2013-05-04 10:03:00,
2013-05-04 06:04:00,55.3,44.9,30.02,SE,145,2.0,0.0,68,0.00,,OVC003,0.00,VWS V14.01,2013-05-04 10:04:00,
2013-05-04 06:05:00,55.3,44.9,30.02,SE,145,2.0,0.0,68,0.00,,OVC003,0.00,VWS V14.01,2013-05-04 10:05:00,
2013-05-04 06:06:00,55.2,44.8,30.02,SE,146,2.0,0.0,68,0.00,,OVC003,0.00,VWS V14.01,2013-05-04 10:06:00,
2013-05-04 06:07:00,55.2,44.8,30.02,SE,146,2.0,0.0,68,0.00,,OVC003,0.00,VWS V14.01,2013-05-04 10:07:00,
2013-05-04 06:08:00,55.2,44.8,30.02,SE,146,2.0,0.0,68,0.00,,OVC003,0.00,VWS V14.01,2013-05-04 10:08:00,
2013-05-04 06:09:00,55.2,44.8,30.02,SE,146,2.0,0.0,68,0.00,,OVC003,0.00,VWS V14.01,2013-05-04 10:09:00,
2013-05-04 06:10:00,55.2,44.8,30.02,SE,146,2.0,0.0,68,0.00,,OVC003,0.00,VWS V14.01,2013-05-04 10:10:00,
2013-05-04 06:11:00,55.1,44.7,30.02,SE,146,2.0,0.0,68,0.00,,OVC003,0.00,VWS V14.01,2013-05-04 10:11:00,
2013-05-04 06:12:00,55.1,44.7,30.02,SE,145,2.0,0.0,68,0.00,,OVC003,0.00,VWS V14.01,2013-05-04 10:12:00,
2013-05-04 06:13:00,55.1,44.7,30.02,SE,146,2.0,0.0,68,0.00,,OVC003,0.00,VWS V14.01,2013-05-04 10:13:00,
2013-05-04 06:14:00,55.1,44.7,30.02,SE,145,2.0,0.0,68,0.00,,OVC003,0.00,VWS V14.01,2013-05-04 10:14:00,
2013-05-04 06:15:00,55.1,44.7,30.02,SE,145,2.0,0.0,68,0.00,,OVC003,0.00,VWS V14.01,2013-05-04 10:15:00,
2013-05-04 06:16:00,55.0,44.7,30.02,SE,146,2.0,0.0,68,0.00,,OVC003,0.00,VWS V14.01,2013-05-04 10:16:00,
2013-05-04 06:17:00,55.0,44.7,30.02,SE,146,2.0,0.0,68,0.00,,OVC003,0.00,VWS V14.01,2013-05-04 10:17:00,
2013-05-04 06:18:00,55.0,45.0,30.02,SE,146,2.0,0.0,69,0.00,,OVC003,0.00,VWS V14.01,2013-05-04 10:18:00,
2013-05-04 06:19:00,55.0,45.0,30.02,SE,145,2.0,0.0,69,0.00,,OVC003,0.00,VWS V14.01,2013-05-04 10:19:00,
2013-05-04 06:20:00,55.0,45.0,30.02,SE,146,2.0,0.0,69,0.00,,OVC003,0.00,VWS V14.01,2013-05-04 10:20:00,
2013-05-04 06:21:00,55.0,45.0,30.02,SE,146,2.0,0.0,69,0.00,,OVC003,0.00,VWS V14.01,2013-05-04 10:21:00,
2013-05-04 06:22:00,55.0,45.0,30.02,SE,146,2.0,0.0,69,0.00,,OVC003,0.00,VWS V14.01,2013-05-04 10:22:00,
2013-05-04 06:23:00,54.9,44.9,30.02,SE,145,2.0,0.0,69,0.00,,OVC003,0.00,VWS V14.01,2013-05-04 10:23:00,
2013-05-04 06:24:00,54.9,44.9,30.02,SE,146,2.0,0.0,69,0.00,,OVC003,0.00,VWS V14.01,2013-05-04 10:24:00,
2013-05-04 06:25:00,54.9,44.9,30.02,SE,146,2.0,0.0,69,0.00,,OVC003,0.00,VWS V14.01,2013-05-04 10:25:00,
2013-05-04 06:26:00,54.9,44.9,30.02,SE,146,2.0,0.0,69,0.00,,OVC003,0.00,VWS V14.01,2013-05-04 10:26:00,
2013-05-04 06:27:00,54.9,44.9,30.02,SE,145,2.0,0.0,69,0.00,,OVC003,0.00,VWS V14.01,2013-05-04 10:27:00,
2013-05-04 06:28:00,54.8,44.8,30.02,SE,145,2.0,0.0,69,0.00,,OVC003,0.00,VWS V14.01,2013-05-04 10:28:00,
2013-05-04 06:29:00,54.8,44.8,30.03,SE,146,2.0,0.0,69,0.00,,OVC003,0.00,VWS V14.01,2013-05-04 10:29:00,
2013-05-04 06:30:00,54.8,44.8,30.03,SE,146,2.0,0.0,69,0.00,,OVC003,0.00,VWS V14.01,2013-05-04 10:30:00,
2013-05-04 06:31:00,54.8,44.8,30.03,SE,146,2.0,0.0,69,0.00,,OVC003,0.00,VWS V14.01,2013-05-04 10:31:00,
2013-05-04 06:32:00,54.8,44.8,30.03,SE,145,2.0,0.0,69,0.00,,OVC003,0.00,VWS V14.01,2013-05-04 10:32:00,
2013-05-04 06:33:00,54.8,44.8,30.03,SE,145,2.0,0.0,69,0.00,,OVC003,0.00,VWS V14.01,2013-05-04 10:33:00,
2013-05-04 06:34:00,54.8,44.8,30.03,SE,146,2.0,0.0,69,0.00,,OVC003,0.00,VWS V14.01,2013-05-04 10:34:00,
2013-05-04 06:35:00,54.7,44.7,30.03,SE,145,2.0,0.0,69,0.00,,OVC003,0.00,VWS V14.01,2013-05-04 10:35:00,
2013-05-04 06:36:00,54.7,44.7,30.03,SE,145,2.0,0.0,69,0.00,,OVC003,0.00,VWS V14.01,2013-05-04 10:36:00,
2013-05-04 06:37:00,54.7,45.1,30.03,SE,145,2.0,0.0,70,0.00,,OVC003,0.00,VWS V14.01,2013-05-04 10:37:00,
2013-05-04 06:38:00,54.7,45.1,30.03,SE,145,2.0,0.0,70,0.00,,OVC003,0.00,VWS V14.01,2013-05-04 10:38:00,
2013-05-04 06:39:00,54.6,45.0,30.03,SE,146,2.0,0.0,70,0.00,,OVC003,0.00,VWS V14.01,2013-05-04 10:39:00,
2013-05-04 06:40:00,54.6,45.0,30.03,SE,146,2.0,0.0,70,0.00,,OVC003,0.00,VWS V14.01,2013-05-04 10:40:00,
2013-05-04 06:41:00,54.6,45.0,30.03,SE,146,2.0,0.0,70,0.00,,OVC003,0.00,VWS V14.01,2013-05-04 10:41:00,
2013-05-04 06:42:00,54.6,45.0,30.03,SE,145,2.0,0.0,70,0.00,,OVC003,0.00,VWS V14.01,2013-05-04 10:42:00,
2013-05-04 06:43:00,54.6,45.0,30.03,SE,145,2.0,0.0,70,0.00,,OVC003,0.00,VWS V14.01,2013-05-04 10:43:00,
2013-05-04 06:44:00,54.6,45.0,30.02,SE,145,2.0,0.0,70,0.00,,OVC003,0.00,VWS V14.01,2013-05-04 10:44:00,
2013-05-04 06:45:00,54.6,45.0,30.02,SE,145,2.0,0.0,70,0.00,,OVC003,0.00,VWS V14.01,2013-05-04 10:45:00,
2013-05-04 06:46:00,54.6,45.0,30.02,SE,146,2.0,0.0,70,0.00,,OVC003,0.00,VWS V14.01,2013-05-04 10:46:00,
2013-05-04 06:47:00,54.6,45.0,30.02,SE,146,2.0,0.0,70,0.00,,OVC003,0.00,VWS V14.01,2013-05-04 10:47:00,
2013-05-04 06:49:00,54.5,44.9,30.02,SE,146,2.0,0.0,70,0.00,,OVC003,0.00,VWS V14.01,2013-05-04 10:49:00,
2013-05-04 06:50:00,54.5,44.9,30.02,SE,145,2.0,0.0,70,0.00,,OVC003,0.00,VWS V14.01,2013-05-04 10:50:00,
2013-05-04 06:51:00,54.5,44.9,30.02,SE,146,2.0,0.0,70,0.00,,OVC003,0.00,VWS V14.01,2013-05-04 10:51:00,
2013-05-04 06:53:00,54.6,45.4,30.02,SE,145,2.0,0.0,71,0.00,,OVC003,0.00,VWS V14.01,2013-05-04 10:53:00,
2013-05-04 06:55:00,54.6,45.4,30.02,SE,146,2.0,0.0,71,0.00,,OVC003,0.00,VWS V14.01,2013-05-04 10:55:00,
2013-05-04 06:57:00,54.6,45.4,30.02,SE,146,2.0,0.0,71,0.00,,OVC003,0.00,VWS V14.01,2013-05-04 10:57:00,
2013-05-04 06:58:00,54.6,45.0,30.02,SE,145,2.0,0.0,70,0.00,,OVC003,0.00,VWS V14.01,2013-05-04 10:58:00,
2013-05-04 06:59:00,54.7,45.5,30.03,SE,146,2.0,0.0,71,0.00,,OVC003,0.00,VWS V14.01,2013-05-04 10:59:00,
2013-05-04 07:00:00,54.7,45.5,30.03,SE,145,2.0,0.0,71,0.00,,OVC003,0.00,VWS V14.01,2013-05-04 11:00:00,
2013-05-04 07:02:00,54.7,45.5,30.03,SE,146,2.0,0.0,71,0.00,,OVC003,0.00,VWS V14.01,2013-05-04 11:02:00,
2013-05-04 07:03:00,54.8,45.6,30.03,SE,146,2.0,0.0,71,0.00,,OVC003,0.00,VWS V14.01,2013-05-04 11:03:00,
2013-05-04 07:04:00,54.6,45.4,30.02,SE,146,2.0,0.0,71,0.00,,OVC003,0.00,VWS V14.01,2013-05-04 11:04:00,
2013-05-04 07:05:00,54.8,45.6,30.03,SE,146,2.0,0.0,71,0.00,,OVC003,0.00,VWS V14.01,2013-05-04 11:05:00,
2013-05-04 07:06:00,54.9,45.7,30.03,SE,146,2.0,0.0,71,0.00,,OVC003,0.00,VWS V14.01,2013-05-04 11:06:00,
2013-05-04 07:08:00,54.9,46.1,30.03,SE,146,2.0,0.0,72,0.00,,OVC003,0.00,VWS V14.01,2013-05-04 11:08:00,
2013-05-04 07:10:00,54.7,45.5,30.03,SE,146,2.0,0.0,71,0.00,,OVC003,0.00,VWS V14.01,2013-05-04 11:10:00,
2013-05-04 07:12:00,55.1,45.9,30.03,SE,146,2.0,0.0,71,0.00,,OVC003,0.00,VWS V14.01,2013-05-04 11:12:00,
2013-05-04 07:15:00,54.8,45.6,30.03,SE,146,2.0,0.0,71,0.00,,OVC003,0.00,VWS V14.01,2013-05-04 11:15:00,
2013-05-04 07:16:00,55.2,46.3,30.03,SE,145,2.0,0.0,72,0.00,,OVC003,0.00,VWS V14.01,2013-05-04 11:16:00,
2013-05-04 07:17:00,55.3,46.1,30.03,SE,145,2.0,0.0,71,0.00,,OVC003,0.00,VWS V14.01,2013-05-04 11:17:00,
2013-05-04 07:20:00,55.0,46.2,30.03,SE,146,2.0,0.0,72,0.00,,OVC003,0.00,VWS V14.01,2013-05-04 11:20:00,
2013-05-04 07:21:00,55.5,46.3,30.03,SE,146,2.0,0.0,71,0.00,,OVC003,0.00,VWS V14.01,2013-05-04 11:21:00,
2013-05-04 07:22:00,55.5,46.3,30.03,SE,146,2.0,0.0,71,0.00,,OVC003,0.00,VWS V14.01,2013-05-04 11:22:00,
2013-05-04 07:23:00,55.7,46.8,30.03,SE,146,2.0,0.0,72,0.00,,OVC003,0.00,VWS V14.01,2013-05-04 11:23:00,
2013-05-04 07:24:00,55.7,46.5,30.03,SE,145,2.0,0.0,71,0.00,,OVC003,0.00,VWS V14.01,2013-05-04 11:24:00,
2013-05-04 07:25:00,55.2,46.0,30.03,SE,145,2.0,0.0,71,0.00,,OVC003,0.00,VWS V14.01,2013-05-04 11:25:00,
2013-05-04 07:26:00,56.0,46.7,30.03,SE,146,2.0,0.0,71,0.00,,OVC003,0.00,VWS V14.01,2013-05-04 11:26:00,
2013-05-04 07:28:00,56.2,47.3,30.03,SE,146,2.0,0.0,72,0.00,,OVC003,0.00,VWS V14.01,2013-05-04 11:28:00,
2013-05-04 07:29:00,56.3,47.0,30.03,SE,146,2.0,0.0,71,0.00,,OVC003,0.00,VWS V14.01,2013-05-04 11:29:00,
2013-05-04 07:30:00,56.3,47.0,30.03,SE,145,2.0,0.0,71,0.00,,OVC003,0.00,VWS V14.01,2013-05-04 11:30:00,
2013-05-04 07:31:00,56.4,47.1,30.03,SE,145,2.0,0.0,71,0.00,,OVC003,0.00,VWS V14.01,2013-05-04 11:31:00,
2013-05-04 07:32:00,56.5,47.2,30.03,SE,145,2.0,0.0,71,0.00,,OVC003,0.00,VWS V14.01,2013-05-04 11:32:00,
2013-05-04 07:33:00,56.6,47.3,30.03,SE,146,2.0,0.0,71,0.00,,OVC003,0.00,VWS V14.01,2013-05-04 11:33:00,
2013-05-04 07:34:00,56.7,47.4,30.03,SE,146,2.0,0.0,71,0.00,,OVC003,0.00,VWS V14.01,2013-05-04 11:34:00,
2013-05-04 07:35:00,56.8,47.5,30.03,SE,145,2.0,0.0,71,0.00,,OVC003,0.00,VWS V14.01,2013-05-04 11:35:00,
2013-05-04 07:37:00,56.1,46.8,30.03,SE,146,2.0,0.0,71,0.00,,OVC003,0.00,VWS V14.01,2013-05-04 11:37:00,
2013-05-04 07:38:00,57.2,47.9,30.03,SE,146,2.0,0.0,71,0.00,,OVC003,0.00,VWS V14.01,2013-05-04 11:38:00,
2013-05-04 07:39:00,57.3,47.6,30.03,SE,146,2.0,2.0,70,0.00,,OVC003,0.00,VWS V14.01,2013-05-04 11:39:00,
2013-05-04 07:40:00,57.3,47.6,30.03,SE,146,2.0,2.0,70,0.00,,OVC003,0.00,VWS V14.01,2013-05-04 11:40:00,
2013-05-04 07:43:00,58.0,47.9,30.03,SE,141,2.0,4.0,69,0.00,,OVC003,0.00,VWS V14.01,2013-05-04 11:43:00,
2013-05-04 07:44:00,58.2,47.7,30.04,SE,142,3.0,4.0,68,0.00,,OVC003,0.00,VWS V14.01,2013-05-04 11:44:00,
2013-05-04 07:45:00,58.2,47.7,30.04,SE,142,2.0,4.0,68,0.00,,OVC003,0.00,VWS V14.01,2013-05-04 11:45:00,
2013-05-04 07:50:00,59.0,48.1,30.04,SE,141,2.0,2.0,67,0.00,,OVC003,0.00,VWS V14.01,2013-05-04 11:50:00,
2013-05-04 07:51:00,57.5,47.4,30.03,SE,146,2.0,0.0,69,0.00,,OVC003,0.00,VWS V14.01,2013-05-04 11:51:00,
2013-05-04 07:55:00,59.8,48.0,30.04,South,170,2.0,4.0,65,0.00,,OVC003,0.00,VWS V14.01,2013-05-04 11:55:00,
2013-05-04 07:56:00,58.6,48.1,30.04,SE,142,2.0,2.0,68,0.00,,OVC003,0.00,VWS V14.01,2013-05-04 11:56:00,
2013-05-04 07:57:00,60.1,48.3,30.04,SE,145,6.0,6.0,65,0.00,,OVC003,0.00,VWS V14.01,2013-05-04 11:57:00,
2013-05-04 07:58:00,60.3,48.1,30.04,SE,139,3.0,5.0,64,0.00,,OVC003,0.00,VWS V14.01,2013-05-04 11:58:00,
2013-05-04 07:59:00,60.4,47.8,30.04,SE,139,2.0,5.0,63,0.00,,OVC003,0.00,VWS V14.01,2013-05-04 11:59:00,
2013-05-04 08:00:00,60.5,47.4,30.04,SE,139,2.0,5.0,62,0.00,,OVC003,0.00,VWS V14.01,2013-05-04 12:00:00,
2013-05-04 08:01:00,60.7,47.6,30.04,SE,139,2.0,2.0,62,0.00,,OVC003,0.00,VWS V14.01,2013-05-04 12:01:00,
2013-05-04 08:02:00,60.8,48.1,30.04,SE,139,2.0,2.0,63,0.00,,OVC003,0.00,VWS V14.01,2013-05-04 12:02:00,
2013-05-04 08:03:00,59.4,47.7,30.04,South,170,3.0,4.0,65,0.00,,OVC003,0.00,VWS V14.01,2013-05-04 12:03:00,
2013-05-04 08:04:00,61.0,48.3,30.04,SE,139,2.0,2.0,63,0.00,,OVC003,0.00,VWS V14.01,2013-05-04 12:04:00,
2013-05-04 08:05:00,61.1,48.4,30.04,SE,139,2.0,2.0,63,0.00,,OVC003,0.00,VWS V14.01,2013-05-04 12:05:00,
2013-05-04 08:06:00,61.2,48.5,30.04,SE,139,2.0,0.0,63,0.00,,OVC003,0.00,VWS V14.01,2013-05-04 12:06:00,
2013-05-04 08:08:00,61.4,48.3,30.04,SE,139,2.0,2.0,62,0.00,,OVC003,0.00,VWS V14.01,2013-05-04 12:08:00,
2013-05-04 08:09:00,61.4,47.8,30.04,SE,139,3.0,3.0,61,0.00,,OVC003,0.00,VWS V14.01,2013-05-04 12:09:00,
2013-05-04 08:10:00,61.5,47.9,30.04,SE,139,3.0,3.0,61,0.00,,OVC003,0.00,VWS V14.01,2013-05-04 12:10:00,
2013-05-04 08:11:00,61.6,48.5,30.04,SE,139,2.0,2.0,62,0.00,,OVC003,0.00,VWS V14.01,2013-05-04 12:11:00,
2013-05-04 08:12:00,61.6,48.0,30.04,SE,132,3.0,3.0,61,0.00,,OVC003,0.00,VWS V14.01,2013-05-04 12:12:00,
2013-05-04 08:13:00,61.7,47.7,30.04,SSE,148,2.0,3.0,60,0.00,,OVC003,0.00,VWS V14.01,2013-05-04 12:13:00,
2013-05-04 08:14:00,61.8,48.2,30.04,SSE,149,2.0,3.0,61,0.00,,OVC003,0.00,VWS V14.01,2013-05-04 12:14:00,
2013-05-04 08:15:00,61.8,48.2,30.04,SSE,149,2.0,3.0,61,0.00,,OVC003,0.00,VWS V14.01,2013-05-04 12:15:00,
2013-05-04 08:16:00,61.9,48.3,30.04,SSE,149,2.0,0.0,61,0.00,,OVC003,0.00,VWS V14.01,2013-05-04 12:16:00,
2013-05-04 08:17:00,62.0,48.0,30.04,SSE,149,4.0,4.0,60,0.00,,OVC003,0.00,VWS V14.01,2013-05-04 12:17:00,
2013-05-04 08:18:00,62.0,48.0,30.04,SSE,149,2.0,3.0,60,0.00,,OVC003,0.00,VWS V14.01,2013-05-04 12:18:00,
2013-05-04 08:19:00,62.1,48.1,30.04,SSE,149,2.0,3.0,60,0.00,,OVC003,0.00,VWS V14.01,2013-05-04 12:19:00,
2013-05-04 08:20:00,62.1,48.1,30.04,SSE,149,2.0,3.0,60,0.00,,OVC003,0.00,VWS V14.01,2013-05-04 12:20:00,
2013-05-04 08:21:00,62.3,48.7,30.04,SSE,149,3.0,3.0,61,0.00,,OVC003,0.00,VWS V14.01,2013-05-04 12:21:00,
2013-05-04 08:22:00,62.3,48.2,30.04,SSE,149,3.0,3.0,60,0.00,,OVC003,0.00,VWS V14.01,2013-05-04 12:22:00,
2013-05-04 08:23:00,62.4,48.3,30.04,SSE,149,2.0,2.0,60,0.00,,OVC003,0.00,VWS V14.01,2013-05-04 12:23:00,
2013-05-04 08:24:00,62.5,48.4,30.04,SSE,149,2.0,2.0,60,0.00,,OVC003,0.00,VWS V14.01,2013-05-04 12:24:00,
2013-05-04 08:25:00,62.5,48.4,30.04,WSW,257,5.0,5.0,60,0.00,,OVC003,0.00,VWS V14.01,2013-05-04 12:25:00,
2013-05-04 08:26:00,62.6,48.1,30.04,WSW,256,4.0,4.0,59,0.00,,OVC003,0.00,VWS V14.01,2013-05-04 12:26:00,
2013-05-04 08:27:00,62.6,48.1,30.04,WSW,256,2.0,3.0,59,0.00,,OVC003,0.00,VWS V14.01,2013-05-04 12:27:00,
2013-05-04 08:28:00,62.7,48.2,30.04,WSW,256,3.0,3.0,59,0.00,,OVC003,0.00,VWS V14.01,2013-05-04 12:28:00,
2013-05-04 08:29:00,62.8,48.3,30.04,WSW,256,2.0,3.0,59,0.00,,OVC003,0.00,VWS V14.01,2013-05-04 12:29:00,
2013-05-04 08:30:00,62.8,48.3,30.04,WSW,256,2.0,3.0,59,0.00,,OVC003,0.00,VWS V14.01,2013-05-04 12:30:00,
2013-05-04 08:31:00,62.9,48.8,30.04,WSW,256,4.0,4.0,60,0.00,,OVC003,0.00,VWS V14.01,2013-05-04 12:31:00,
2013-05-04 08:32:00,62.9,48.4,30.04,WSW,256,2.0,2.0,59,0.00,,OVC003,0.00,VWS V14.01,2013-05-04 12:32:00,
2013-05-04 08:33:00,63.0,48.5,30.04,WSW,256,2.0,2.0,59,0.00,,OVC003,0.00,VWS V14.01,2013-05-04 12:33:00,
2013-05-04 08:34:00,63.1,48.6,30.04,WSW,256,2.0,2.0,59,0.00,,OVC003,0.00,VWS V14.01,2013-05-04 12:34:00,
2013-05-04 08:35:00,63.1,48.6,30.04,WSW,256,2.0,2.0,59,0.00,,OVC003,0.00,VWS V14.01,2013-05-04 12:35:00,
2013-05-04 08:36:00,63.2,48.7,30.04,WSW,256,2.0,3.0,59,0.00,,OVC003,0.00,VWS V14.01,2013-05-04 12:36:00,
2013-05-04 08:37:00,63.3,48.7,30.04,WSW,256,2.0,3.0,59,0.00,,OVC003,0.00,VWS V14.01,2013-05-04 12:37:00,
2013-05-04 08:38:00,63.4,48.4,30.04,WSW,256,2.0,3.0,58,0.00,,OVC003,0.00,VWS V14.01,2013-05-04 12:38:00,
2013-05-04 08:39:00,63.4,48.4,30.04,South,187,5.0,5.0,58,0.00,,OVC003,0.00,VWS V14.01,2013-05-04 12:39:00,
2013-05-04 08:40:00,63.5,48.5,30.04,South,187,2.0,3.0,58,0.00,,OVC003,0.00,VWS V14.01,2013-05-04 12:40:00,
2013-05-04 08:41:00,63.5,48.5,30.04,South,187,2.0,0.0,58,0.00,,OVC003,0.00,VWS V14.01,2013-05-04 12:41:00,
2013-05-04 08:42:00,63.6,48.6,30.04,South,187,4.0,4.0,58,0.00,,OVC003,0.00,VWS V14.01,2013-05-04 12:42:00,
2013-05-04 08:43:00,63.6,48.6,30.04,WSW,241,2.0,3.0,58,0.00,,OVC003,0.00,VWS V14.01,2013-05-04 12:43:00,
2013-05-04 08:44:00,63.7,49.1,30.04,WSW,241,2.0,3.0,59,0.00,,OVC003,0.00,VWS V14.01,2013-05-04 12:44:00,
2013-05-04 08:45:00,63.8,49.2,30.04,WSW,241,3.0,3.0,59,0.00,,OVC003,0.00,VWS V14.01,2013-05-04 12:45:00,
2013-05-04 08:46:00,63.9,48.4,30.04,WSW,241,2.0,2.0,57,0.00,,OVC003,0.00,VWS V14.01,2013-05-04 12:46:00,
2013-05-04 08:47:00,63.9,48.8,30.04,WSW,241,2.0,2.0,58,0.00,,OVC003,0.00,VWS V14.01,2013-05-04 12:47:00,
2013-05-04 08:48:00,64.0,48.9,30.04,SW,218,3.0,3.0,58,0.00,,OVC003,0.00,VWS V14.01,2013-05-04 12:48:00,
2013-05-04 08:49:00,64.1,49.0,30.04,SW,218,2.0,2.0,58,0.00,,OVC003,0.00,VWS V14.01,2013-05-04 12:49:00,
2013-05-04 08:50:00,64.1,48.6,30.04,SW,218,2.0,2.0,57,0.00,,OVC003,0.00,VWS V14.01,2013-05-04 12:50:00,
2013-05-04 08:51:00,64.2,48.7,30.04,SW,218,2.0,2.0,57,0.00,,OVC003,0.00,VWS V14.01,2013-05-04 12:51:00,
2013-05-04 08:52:00,64.2,48.7,30.04,SW,218,2.0,2.0,57,0.00,,OVC003,0.00,VWS V14.01,2013-05-04 12:52:00,
2013-05-04 08:53:00,64.3,48.8,30.04,SW,218,2.0,2.0,57,0.00,,OVC003,0.00,VWS V14.01,2013-05-04 12:53:00,
2013-05-04 08:54:00,64.3,49.2,30.04,SW,218,3.0,3.0,58,0.00,,OVC003,0.00,VWS V14.01,2013-05-04 12:54:00,
2013-05-04 08:55:00,64.3,48.8,30.04,SW,218,4.0,4.0,57,0.00,,OVC003,0.00,VWS V14.01,2013-05-04 12:55:00,
2013-05-04 08:56:00,64.4,48.8,30.04,SW,218,2.0,2.0,57,0.00,,OVC003,0.00,VWS V14.01,2013-05-04 12:56:00,
2013-05-04 08:57:00,64.5,48.5,30.04,SW,218,2.0,2.0,56,0.00,,OVC003,0.00,VWS V14.01,2013-05-04 12:57:00,
2013-05-04 08:58:00,64.5,48.5,30.04,SW,218,2.0,2.0,56,0.00,,OVC003,0.00,VWS V14.01,2013-05-04 12:58:00,
2013-05-04 08:59:00,64.5,48.5,30.04,SW,218,2.0,2.0,56,0.00,,OVC003,0.00,VWS V14.01,2013-05-04 12:59:00,
2013-05-04 09:00:00,64.6,48.6,30.04,SW,218,2.0,2.0,56,0.00,,OVC003,0.00,VWS V14.01,2013-05-04 13:00:00,
2013-05-04 09:01:00,64.6,48.6,30.04,SW,218,3.0,3.0,56,0.00,,OVC003,0.00,VWS V14.01,2013-05-04 13:01:00,
2013-05-04 09:02:00,64.6,48.6,30.04,SW,218,2.0,2.0,56,0.00,,OVC003,0.00,VWS V14.01,2013-05-04 13:02:00,
2013-05-04 09:03:00,64.7,48.7,30.04,SW,218,2.0,2.0,56,0.00,,OVC003,0.00,VWS V14.01,2013-05-04 13:03:00,
2013-05-04 09:04:00,64.7,48.7,30.04,SW,218,2.0,2.0,56,0.00,,OVC003,0.00,VWS V14.01,2013-05-04 13:04:00,
2013-05-04 09:05:00,64.7,48.7,30.04,SW,218,2.0,2.0,56,0.00,,OVC003,0.00,VWS V14.01,2013-05-04 13:05:00,
2013-05-04 09:06:00,64.8,48.8,30.04,SW,218,2.0,0.0,56,0.00,,OVC003,0.00,VWS V14.01,2013-05-04 13:06:00,
2013-05-04 09:07:00,64.8,48.8,30.04,SW,218,2.0,0.0,56,0.00,,OVC003,0.00,VWS V14.01,2013-05-04 13:07:00,
2013-05-04 09:08:00,64.9,48.8,30.04,SW,218,2.0,0.0,56,0.00,,OVC003,0.00,VWS V14.01,2013-05-04 13:08:00,
2013-05-04 09:09:00,65.0,48.9,30.04,SW,218,2.0,2.0,56,0.00,,OVC003,0.00,VWS V14.01,2013-05-04 13:09:00,
2013-05-04 09:10:00,65.0,48.9,30.04,SW,218,2.0,2.0,56,0.00,,OVC003,0.00,VWS V14.01,2013-05-04 13:10:00,
2013-05-04 09:11:00,65.1,49.0,30.04,SW,218,2.0,2.0,56,0.00,,OVC003,0.00,VWS V14.01,2013-05-04 13:11:00,
2013-05-04 09:12:00,65.2,48.6,30.04,SW,218,3.0,3.0,55,0.00,,OVC003,0.00,VWS V14.01,2013-05-04 13:12:00,
2013-05-04 09:13:00,65.2,49.1,30.04,SW,218,3.0,3.0,56,0.00,,OVC003,0.00,VWS V14.01,2013-05-04 13:13:00,
2013-05-04 09:14:00,65.2,48.6,30.05,SW,218,2.0,2.0,55,0.00,,OVC003,0.00,VWS V14.01,2013-05-04 13:14:00,
2013-05-04 09:15:00,65.2,48.6,30.05,SW,218,2.0,2.0,55,0.00,,OVC003,0.00,VWS V14.01,2013-05-04 13:15:00,
2013-05-04 09:16:00,65.3,48.7,30.05,SW,218,2.0,0.0,55,0.00,,OVC003,0.00,VWS V14.01,2013-05-04 13:16:00,
2013-05-04 09:17:00,65.3,49.2,30.05,SW,218,2.0,0.0,56,0.00,,OVC003,0.00,VWS V14.01,2013-05-04 13:17:00,
2013-05-04 09:18:00,65.3,49.2,30.05,SW,218,2.0,0.0,56,0.00,,OVC003,0.00,VWS V14.01,2013-05-04 13:18:00,
2013-05-04 09:19:00,65.4,49.8,30.05,SW,218,2.0,2.0,57,0.00,,OVC003,0.00,VWS V14.01,2013-05-04 13:19:00,
2013-05-04 09:20:00,65.4,49.8,30.05,SW,218,2.0,2.0,57,0.00,,OVC003,0.00,VWS V14.01,2013-05-04 13:20:00,
2013-05-04 09:21:00,65.5,48.9,30.05,SSW,201,2.0,3.0,55,0.00,,OVC003,0.00,VWS V14.01,2013-05-04 13:21:00,
2013-05-04 09:22:00,65.5,48.4,30.05,SSW,201,2.0,3.0,54,0.00,,OVC003,0.00,VWS V14.01,2013-05-04 13:22:00,
2013-05-04 09:23:00,65.5,48.4,30.05,SE,128,2.0,3.0,54,0.00,,OVC003,0.00,VWS V14.01,2013-05-04 13:23:00,
2013-05-04 09:24:00,65.5,48.4,30.05,SE,128,2.0,3.0,54,0.00,,OVC003,0.00,VWS V14.01,2013-05-04 13:24:00,
2013-05-04 09:25:00,65.5,48.4,30.05,SE,128,2.0,3.0,54,0.00,,OVC003,0.00,VWS V14.01,2013-05-04 13:25:00,
2013-05-04 09:26:00,65.5,48.4,30.05,South,182,4.0,4.0,54,0.00,,OVC003,0.00,VWS V14.01,2013-05-04 13:26:00,
2013-05-04 09:27:00,65.5,48.4,30.05,South,182,2.0,2.0,54,0.00,,OVC003,0.00,VWS V14.01,2013-05-04 13:27:00,
2013-05-04 09:28:00,65.5,48.4,30.05,South,182,2.0,2.0,54,0.00,,OVC003,0.00,VWS V14.01,2013-05-04 13:28:00,
2013-05-04 09:29:00,65.5,48.4,30.05,South,182,3.0,3.0,54,0.00,,OVC003,0.00,VWS V14.01,2013-05-04 13:29:00,
2013-05-04 09:30:00,65.5,48.4,30.05,South,182,2.0,2.0,54,0.00,,OVC003,0.00,VWS V14.01,2013-05-04 13:30:00,
2013-05-04 09:31:00,65.5,48.4,30.05,South,182,2.0,2.0,54,0.00,,OVC003,0.00,VWS V14.01,2013-05-04 13:31:00,
2013-05-04 09:32:00,65.5,48.4,30.05,South,182,2.0,2.0,54,0.00,,OVC003,0.00,VWS V14.01,2013-05-04 13:32:00,
2013-05-04 09:33:00,65.5,48.4,30.05,South,182,2.0,2.0,54,0.00,,OVC003,0.00,VWS V14.01,2013-05-04 13:33:00,
2013-05-04 09:34:00,65.6,49.0,30.05,South,182,2.0,2.0,55,0.00,,OVC003,0.00,VWS V14.01,2013-05-04 13:34:00,
2013-05-04 09:35:00,65.6,48.5,30.05,South,182,2.0,2.0,54,0.00,,OVC003,0.00,VWS V14.01,2013-05-04 13:35:00,
2013-05-04 09:36:00,65.6,48.5,30.05,South,182,2.0,0.0,54,0.00,,OVC003,0.00,VWS V14.01,2013-05-04 13:36:00,
2013-05-04 09:37:00,65.7,48.6,30.05,South,182,2.0,0.0,54,0.00,,OVC003,0.00,VWS V14.01,2013-05-04 13:37:00,
2013-05-04 09:38:00,65.7,48.6,30.05,South,182,2.0,2.0,54,0.00,,OVC003,0.00,VWS V14.01,2013-05-04 13:38:00,
2013-05-04 09:39:00,65.8,48.7,30.05,South,182,2.0,2.0,54,0.00,,OVC003,0.00,VWS V14.01,2013-05-04 13:39:00,
2013-05-04 09:40:00,65.8,48.7,30.05,South,182,2.0,2.0,54,0.00,,OVC003,0.00,VWS V14.01,2013-05-04 13:40:00,
2013-05-04 09:41:00,65.9,48.8,30.05,South,182,2.0,0.0,54,0.00,,OVC003,0.00,VWS V14.01,2013-05-04 13:41:00,
2013-05-04 09:42:00,66.0,48.9,30.05,South,182,2.0,0.0,54,0.00,,OVC003,0.00,VWS V14.01,2013-05-04 13:42:00,
2013-05-04 09:43:00,66.0,48.9,30.05,South,182,3.0,3.0,54,0.00,,OVC003,0.00,VWS V14.01,2013-05-04 13:43:00,
2013-05-04 09:44:00,66.0,48.9,30.05,South,182,2.0,2.0,54,0.00,,OVC003,0.00,VWS V14.01,2013-05-04 13:44:00,
2013-05-04 09:45:00,66.1,49.0,30.05,South,182,2.0,2.0,54,0.00,,OVC003,0.00,VWS V14.01,2013-05-04 13:45:00,
2013-05-04 09:46:00,66.1,49.0,30.05,South,182,2.0,2.0,54,0.00,,OVC003,0.00,VWS V14.01,2013-05-04 13:46:00,
2013-05-04 09:47:00,66.1,49.0,30.05,South,182,3.0,3.0,54,0.00,,OVC003,0.00,VWS V14.01,2013-05-04 13:47:00,
2013-05-04 09:48:00,66.3,49.2,30.05,South,182,3.0,3.0,54,0.00,,OVC003,0.00,VWS V14.01,2013-05-04 13:48:00,
2013-05-04 09:49:00,66.3,48.7,30.05,South,182,2.0,2.0,53,0.00,,OVC003,0.00,VWS V14.01,2013-05-04 13:49:00,
2013-05-04 09:50:00,66.3,48.7,30.05,South,182,2.0,2.0,53,0.00,,OVC003,0.00,VWS V14.01,2013-05-04 13:50:00,
2013-05-04 09:51:00,66.3,48.2,30.05,South,182,2.0,0.0,52,0.00,,OVC003,0.00,VWS V14.01,2013-05-04 13:51:00,
2013-05-04 09:52:00,66.4,48.8,30.05,South,182,2.0,2.0,53,0.00,,OVC003,0.00,VWS V14.01,2013-05-04 13:52:00,
2013-05-04 09:53:00,66.4,48.8,30.05,South,182,2.0,2.0,53,0.00,,OVC003,0.00,VWS V14.01,2013-05-04 13:53:00,
2013-05-04 09:54:00,66.5,48.9,30.05,South,182,3.0,3.0,53,0.00,,OVC003,0.00,VWS V14.01,2013-05-04 13:54:00,
2013-05-04 09:55:00,66.5,48.9,30.05,South,182,3.0,3.0,53,0.00,,OVC003,0.00,VWS V14.01,2013-05-04 13:55:00,
2013-05-04 09:56:00,66.5,48.9,30.05,South,182,2.0,2.0,53,0.00,,OVC003,0.00,VWS V14.01,2013-05-04 13:56:00,
2013-05-04 09:57:00,66.5,48.9,30.05,South,182,3.0,3.0,53,0.00,,OVC003,0.00,VWS V14.01,2013-05-04 13:57:00,
2013-05-04 09:58:00,66.5,48.3,30.05,South,182,3.0,3.0,52,0.00,,OVC003,0.00,VWS V14.01,2013-05-04 13:58:00,
2013-05-04 09:59:00,66.5,48.3,30.05,South,182,4.0,4.0,52,0.00,,OVC003,0.00,VWS V14.01,2013-05-04 13:59:00,
2013-05-04 10:00:00,66.5,48.3,30.05,South,182,3.0,3.0,52,0.00,,OVC003,0.00,VWS V14.01,2013-05-04 14:00:00,
2013-05-04 10:01:00,66.5,48.3,30.05,South,182,4.0,4.0,52,0.00,,OVC003,0.00,VWS V14.01,2013-05-04 14:01:00,
2013-05-04 10:02:00,66.5,48.3,30.05,West,266,5.0,5.0,52,0.00,,OVC003,0.00,VWS V14.01,2013-05-04 14:02:00,
2013-05-04 10:03:00,66.5,48.3,30.05,West,266,5.0,5.0,52,0.00,,OVC003,0.00,VWS V14.01,2013-05-04 14:03:00,
2013-05-04 10:04:00,66.5,48.9,30.05,WSW,254,3.0,3.0,53,0.00,,OVC003,0.00,VWS V14.01,2013-05-04 14:04:00,
2013-05-04 10:05:00,66.5,48.9,30.05,SSW,212,5.0,5.0,53,0.00,,OVC003,0.00,VWS V14.01,2013-05-04 14:05:00,
2013-05-04 10:06:00,66.5,48.3,30.05,SSW,211,2.0,3.0,52,0.00,,OVC003,0.00,VWS V14.01,2013-05-04 14:06:00,
2013-05-04 10:07:00,66.5,48.3,30.05,SSW,211,3.0,3.0,52,0.00,,OVC003,0.00,VWS V14.01,2013-05-04 14:07:00,
2013-05-04 10:08:00,66.5,48.3,30.05,SSW,211,4.0,4.0,52,0.00,,OVC003,0.00,VWS V14.01,2013-05-04 14:08:00,
2013-05-04 10:09:00,66.4,48.3,30.05,SSW,211,2.0,3.0,52,0.00,,OVC003,0.00,VWS V14.01,2013-05-04 14:09:00,
2013-05-04 10:10:00,66.4,48.3,30.05,SSW,211,2.0,3.0,52,0.00,,OVC003,0.00,VWS V14.01,2013-05-04 14:10:00,
2013-05-04 10:11:00,66.4,48.3,30.05,SSW,211,3.0,3.0,52,0.00,,OVC003,0.00,VWS V14.01,2013-05-04 14:11:00,
2013-05-04 10:12:00,66.4,48.3,30.05,SSW,211,3.0,3.0,52,0.00,,OVC003,0.00,VWS V14.01,2013-05-04 14:12:00,
2013-05-04 10:13:00,66.4,48.3,30.05,SSW,211,2.0,2.0,52,0.00,,OVC003,0.00,VWS V14.01,2013-05-04 14:13:00,
2013-05-04 10:14:00,66.4,47.7,30.05,SSW,211,2.0,2.0,51,0.00,,OVC003,0.00,VWS V14.01,2013-05-04 14:14:00,
2013-05-04 10:15:00,66.4,48.3,30.05,SSW,211,2.0,2.0,52,0.00,,OVC003,0.00,VWS V14.01,2013-05-04 14:15:00,
2013-05-04 10:20:00,66.4,48.3,30.05,SSW,211,3.0,3.0,52,0.00,,OVC003,0.00,VWS V14.01,2013-05-04 14:20:00,
2013-05-04 10:23:00,66.7,48.5,30.05,SSW,211,2.0,2.0,52,0.00,,OVC003,0.00,VWS V14.01,2013-05-04 14:23:00,
2013-05-04 10:24:00,66.8,48.6,30.05,SSW,211,2.0,2.0,52,0.00,,OVC003,0.00,VWS V14.01,2013-05-04 14:24:00,
2013-05-04 10:25:00,66.8,48.6,30.05,SSW,211,2.0,2.0,52,0.00,,OVC003,0.00,VWS V14.01,2013-05-04 14:25:00,
2013-05-04 10:26:00,66.5,48.3,30.05,SSW,211,2.0,2.0,52,0.00,,OVC003,0.00,VWS V14.01,2013-05-04 14:26:00,
2013-05-04 10:27:00,66.9,48.2,30.05,SSW,211,2.0,2.0,51,0.00,,OVC003,0.00,VWS V14.01,2013-05-04 14:27:00,
2013-05-04 10:29:00,66.9,48.2,30.05,SSW,211,2.0,2.0,51,0.00,,OVC003,0.00,VWS V14.01,2013-05-04 14:29:00,
2013-05-04 10:30:00,66.9,48.2,30.05,SSW,211,4.0,4.0,51,0.00,,OVC003,0.00,VWS V14.01,2013-05-04 14:30:00,
2013-05-04 10:31:00,66.6,47.9,30.05,SSW,211,2.0,2.0,51,0.00,,OVC003,0.00,VWS V14.01,2013-05-04 14:31:00,
2013-05-04 10:32:00,67.0,48.3,30.05,SSW,211,2.0,2.0,51,0.00,,OVC003,0.00,VWS V14.01,2013-05-04 14:32:00,
2013-05-04 10:33:00,66.9,47.7,30.05,SSW,211,2.0,2.0,50,0.00,,OVC003,0.00,VWS V14.01,2013-05-04 14:33:00,
2013-05-04 10:34:00,67.0,48.3,30.05,SSW,211,2.0,2.0,51,0.00,,OVC003,0.00,VWS V14.01,2013-05-04 14:34:00,
2013-05-04 10:35:00,67.0,47.8,30.05,SSW,211,2.0,2.0,50,0.00,,OVC003,0.00,VWS V14.01,2013-05-04 14:35:00,
2013-05-04 10:36:00,67.0,47.8,30.05,SSW,211,2.0,2.0,50,0.00,,OVC003,0.00,VWS V14.01,2013-05-04 14:36:00,
2013-05-04 10:37:00,67.0,47.8,30.05,SSW,211,3.0,3.0,50,0.00,,OVC003,0.00,VWS V14.01,2013-05-04 14:37:00,
2013-05-04 10:38:00,67.0,47.8,30.05,SSW,211,2.0,2.0,50,0.00,,OVC003,0.00,VWS V14.01,2013-05-04 14:38:00,
2013-05-04 10:39:00,67.0,47.8,30.05,SSW,211,2.0,2.0,50,0.00,,OVC003,0.00,VWS V14.01,2013-05-04 14:39:00,
2013-05-04 10:40:00,67.0,47.8,30.05,SSW,211,2.0,2.0,50,0.00,,OVC003,0.00,VWS V14.01,2013-05-04 14:40:00,
2013-05-04 10:41:00,67.1,48.4,30.05,SSW,211,2.0,2.0,51,0.00,,OVC003,0.00,VWS V14.01,2013-05-04 14:41:00,
2013-05-04 10:42:00,67.1,47.9,30.05,SSW,211,2.0,2.0,50,0.00,,OVC003,0.00,VWS V14.01,2013-05-04 14:42:00,
2013-05-04 10:43:00,67.2,48.5,30.05,SSW,211,2.0,2.0,51,0.00,,OVC003,0.00,VWS V14.01,2013-05-04 14:43:00,
2013-05-04 10:44:00,67.2,48.0,30.05,SSW,211,2.0,2.0,50,0.00,,OVC003,0.00,VWS V14.01,2013-05-04 14:44:00,
2013-05-04 10:45:00,67.3,48.0,30.05,East,83,2.0,2.0,50,0.00,,OVC003,0.00,VWS V14.01,2013-05-04 14:45:00,
2013-05-04 10:46:00,67.3,48.0,30.05,East,83,2.0,2.0,50,0.00,,OVC003,0.00,VWS V14.01,2013-05-04 14:46:00,
2013-05-04 10:47:00,67.4,48.1,30.05,East,83,4.0,4.0,50,0.00,,OVC003,0.00,VWS V14.01,2013-05-04 14:47:00,
2013-05-04 10:48:00,67.4,48.1,30.05,East,82,2.0,2.0,50,0.00,,OVC003,0.00,VWS V14.01,2013-05-04 14:48:00,
2013-05-04 10:49:00,67.4,48.7,30.05,East,82,4.0,4.0,51,0.00,,OVC003,0.00,VWS V14.01,2013-05-04 14:49:00,
2013-05-04 10:50:00,67.4,48.1,30.05,East,94,4.0,4.0,50,0.00,,OVC003,0.00,VWS V14.01,2013-05-04 14:50:00,
2013-05-04 10:51:00,67.4,48.1,30.05,East,95,3.0,3.0,50,0.00,,OVC003,0.00,VWS V14.01,2013-05-04 14:51:00,
2013-05-04 10:52:00,67.5,48.8,30.05,East,94,2.0,2.0,51,0.00,,OVC003,0.00,VWS V14.01,2013-05-04 14:52:00,
2013-05-04 10:53:00,67.5,48.8,30.05,East,95,2.0,2.0,51,0.00,,OVC003,0.00,VWS V14.01,2013-05-04 14:53:00,
2013-05-04 10:54:00,67.6,49.4,30.05,East,95,2.0,2.0,52,0.00,,OVC003,0.00,VWS V14.01,2013-05-04 14:54:00,
2013-05-04 10:55:00,67.6,48.8,30.05,East,95,2.0,2.0,51,0.00,,OVC003,0.00,VWS V14.01,2013-05-04 14:55:00,
2013-05-04 10:56:00,67.7,48.9,30.05,East,95,3.0,3.0,51,0.00,,OVC003,0.00,VWS V14.01,2013-05-04 14:56:00,
2013-05-04 10:57:00,67.9,49.1,30.05,East,95,2.0,2.0,51,0.00,,OVC003,0.00,VWS V14.01,2013-05-04 14:57:00,
2013-05-04 10:58:00,67.9,49.1,30.05,East,95,2.0,2.0,51,0.00,,OVC003,0.00,VWS V14.01,2013-05-04 14:58:00,
2013-05-04 10:59:00,68.0,48.7,30.04,East,94,2.0,2.0,50,0.00,,OVC003,0.00,VWS V14.01,2013-05-04 14:59:00,
2013-05-04 11:00:00,68.0,49.2,30.04,East,95,2.0,2.0,51,0.00,,OVC003,0.00,VWS V14.01,2013-05-04 15:00:00,
2013-05-04 11:01:00,68.1,48.8,30.04,SSW,202,3.0,3.0,50,0.00,,OVC003,0.00,VWS V14.01,2013-05-04 15:01:00,
2013-05-04 11:02:00,68.1,48.8,30.04,SSW,202,4.0,4.0,50,0.00,,OVC003,0.00,VWS V14.01,2013-05-04 15:02:00,
2013-05-04 11:03:00,68.1,48.2,30.04,SSW,209,5.0,5.0,49,0.00,,OVC003,0.00,VWS V14.01,2013-05-04 15:03:00,
2013-05-04 11:04:00,68.2,48.9,30.04,SSW,209,2.0,3.0,50,0.00,,OVC003,0.00,VWS V14.01,2013-05-04 15:04:00,
2013-05-04 11:05:00,68.1,48.2,30.04,SSW,209,2.0,3.0,49,0.00,,OVC003,0.00,VWS V14.01,2013-05-04 15:05:00,
2013-05-04 11:06:00,68.1,48.8,30.04,SSW,209,3.0,3.0,50,0.00,,OVC003,0.00,VWS V14.01,2013-05-04 15:06:00,
2013-05-04 11:07:00,68.2,48.9,30.04,SSW,209,3.0,3.0,50,0.00,,OVC003,0.00,VWS V14.01,2013-05-04 15:07:00,
2013-05-04 11:08:00,68.2,48.9,30.04,SE,141,3.0,3.0,50,0.00,,OVC003,0.00,VWS V14.01,2013-05-04 15:08:00,
2013-05-04 11:09:00,68.2,48.3,30.04,SE,141,4.0,4.0,49,0.00,,OVC003,0.00,VWS V14.01,2013-05-04 15:09:00,
2013-05-04 11:10:00,68.2,48.3,30.04,SE,141,2.0,3.0,49,0.00,,OVC003,0.00,VWS V14.01,2013-05-04 15:10:00,
2013-05-04 11:11:00,68.2,48.3,30.04,SE,141,2.0,2.0,49,0.00,,OVC003,0.00,VWS V14.01,2013-05-04 15:11:00,
2013-05-04 11:12:00,68.2,48.3,30.04,SE,141,2.0,2.0,49,0.00,,OVC003,0.00,VWS V14.01,2013-05-04 15:12:00,
2013-05-04 11:13:00,68.2,48.9,30.04,SE,142,2.0,2.0,50,0.00,,OVC003,0.00,VWS V14.01,2013-05-04 15:13:00,
2013-05-04 11:14:00,68.2,48.9,30.04,SE,142,4.0,4.0,50,0.00,,OVC003,0.00,VWS V14.01,2013-05-04 15:14:00,
2013-05-04 11:15:00,68.3,48.4,30.04,SE,144,3.0,3.0,49,0.00,,OVC003,0.00,VWS V14.01,2013-05-04 15:15:00,
2013-05-04 11:16:00,68.4,48.5,30.04,SE,132,3.0,3.0,49,0.00,,OVC003,0.00,VWS V14.01,2013-05-04 15:16:00,
2013-05-04 11:17:00,68.4,48.5,30.04,SE,145,3.0,3.0,49,0.00,,OVC003,0.00,VWS V14.01,2013-05-04 15:17:00,
2013-05-04 11:18:00,68.5,48.1,30.04,SE,145,2.0,2.0,48,0.00,,OVC003,0.00,VWS V14.01,2013-05-04 15:18:00,
2013-05-04 11:19:00,68.5,48.6,30.04,SE,145,3.0,3.0,49,0.00,,OVC003,0.00,VWS V14.01,2013-05-04 15:19:00,
2013-05-04 11:20:00,68.6,48.2,30.04,SE,145,3.0,3.0,48,0.00,,OVC003,0.00,VWS V14.01,2013-05-04 15:20:00,
2013-05-04 11:21:00,68.6,48.2,30.04,South,191,3.0,4.0,48,0.00,,OVC003,0.00,VWS V14.01,2013-05-04 15:21:00,
2013-05-04 11:22:00,68.6,48.2,30.04,South,191,2.0,4.0,48,0.00,,OVC003,0.00,VWS V14.01,2013-05-04 15:22:00,
2013-05-04 11:23:00,68.7,48.2,30.04,South,191,2.0,4.0,48,0.00,,OVC003,0.00,VWS V14.01,2013-05-04 15:23:00,
2013-05-04 11:24:00,68.7,48.8,30.04,South,191,3.0,4.0,49,0.00,,OVC003,0.00,VWS V14.01,2013-05-04 15:24:00,
2013-05-04 11:25:00,68.7,47.7,30.04,ESE,116,2.0,4.0,47,0.00,,OVC003,0.00,VWS V14.01,2013-05-04 15:25:00,
2013-05-04 11:26:00,68.7,47.7,30.04,ESE,116,2.0,2.0,47,0.00,,OVC003,0.00,VWS V14.01,2013-05-04 15:26:00,
2013-05-04 11:27:00,68.8,48.3,30.04,ESE,116,3.0,3.0,48,0.00,,OVC003,0.00,VWS V14.01,2013-05-04 15:27:00,
2013-05-04 11:28:00,68.8,47.8,30.04,ESE,112,3.0,4.0,47,0.00,,OVC003,0.00,VWS V14.01,2013-05-04 15:28:00,
2013-05-04 11:29:00,68.8,47.2,30.04,ESE,112,2.0,4.0,46,0.00,,OVC003,0.00,VWS V14.01,2013-05-04 15:29:00,
2013-05-04 11:30:00,68.8,47.2,30.04,ESE,112,2.0,4.0,46,0.00,,OVC003,0.00,VWS V14.01,2013-05-04 15:30:00,
2013-05-04 11:31:00,68.9,47.3,30.04,ESE,113,2.0,2.0,46,0.00,,OVC003,0.00,VWS V14.01,2013-05-04 15:31:00,
2013-05-04 11:32:00,68.9,47.9,30.04,ESE,113,2.0,2.0,47,0.00,,OVC003,0.00,VWS V14.01,2013-05-04 15:32:00,
2013-05-04 11:33:00,69.0,48.0,30.04,ESE,113,2.0,2.0,47,0.00,,OVC003,0.00,VWS V14.01,2013-05-04 15:33:00,
2013-05-04 11:34:00,69.0,48.0,30.04,ESE,113,3.0,3.0,47,0.00,,OVC003,0.00,VWS V14.01,2013-05-04 15:34:00,
2013-05-04 11:35:00,69.1,48.6,30.04,ESE,113,3.0,3.0,48,0.00,,OVC003,0.00,VWS V14.01,2013-05-04 15:35:00,
2013-05-04 11:36:00,69.1,48.0,30.04,ESE,113,2.0,2.0,47,0.00,,OVC003,0.00,VWS V14.01,2013-05-04 15:36:00,
2013-05-04 11:37:00,69.1,48.0,30.04,ESE,113,3.0,3.0,47,0.00,,OVC003,0.00,VWS V14.01,2013-05-04 15:37:00,
2013-05-04 11:38:00,69.2,48.7,30.04,ESE,113,4.0,4.0,48,0.00,,OVC003,0.00,VWS V14.01,2013-05-04 15:38:00,
2013-05-04 11:39:00,69.2,48.1,30.04,ESE,113,2.0,2.0,47,0.00,,OVC003,0.00,VWS V14.01,2013-05-04 15:39:00,
2013-05-04 11:40:00,69.2,48.1,30.04,ESE,113,2.0,2.0,47,0.00,,OVC003,0.00,VWS V14.01,2013-05-04 15:40:00,
2013-05-04 11:41:00,69.3,48.2,30.04,ESE,110,2.0,4.0,47,0.00,,OVC003,0.00,VWS V14.01,2013-05-04 15:41:00,
2013-05-04 11:42:00,69.3,48.2,30.04,ESE,110,2.0,4.0,47,0.00,,OVC003,0.00,VWS V14.01,2013-05-04 15:42:00,
2013-05-04 11:43:00,69.3,48.2,30.04,ESE,110,2.0,4.0,47,0.00,,OVC003,0.00,VWS V14.01,2013-05-04 15:43:00,
2013-05-04 11:44:00,69.4,48.3,30.04,ESE,110,3.0,4.0,47,0.00,,OVC003,0.00,VWS V14.01,2013-05-04 15:44:00,
2013-05-04 11:45:00,69.4,48.3,30.04,ESE,110,5.0,5.0,47,0.00,,OVC003,0.00,VWS V14.01,2013-05-04 15:45:00,
2013-05-04 11:47:00,69.5,48.4,30.04,ESE,114,2.0,4.0,47,0.00,,OVC003,0.00,VWS V14.01,2013-05-04 15:47:00,
2013-05-04 11:50:00,69.6,48.5,30.04,ESE,113,3.0,4.0,47,0.00,,OVC003,0.00,VWS V14.01,2013-05-04 15:50:00,
2013-05-04 11:51:00,69.6,48.5,30.04,ESE,114,2.0,2.0,47,0.00,,OVC003,0.00,VWS V14.01,2013-05-04 15:51:00,
2013-05-04 11:52:00,69.7,48.6,30.04,ESE,123,3.0,3.0,47,0.00,,OVC003,0.00,VWS V14.01,2013-05-04 15:52:00,
2013-05-04 11:53:00,69.7,49.2,30.04,ESE,123,3.0,3.0,48,0.00,,OVC003,0.00,VWS V14.01,2013-05-04 15:53:00,
2013-05-04 11:54:00,69.8,48.7,30.04,SSE,166,4.0,4.0,47,0.00,,OVC003,0.00,VWS V14.01,2013-05-04 15:54:00,
2013-05-04 11:55:00,69.5,48.4,30.04,ESE,110,4.0,4.0,47,0.00,,OVC003,0.00,VWS V14.01,2013-05-04 15:55:00,
2013-05-04 11:56:00,69.9,48.8,30.04,SSE,166,2.0,2.0,47,0.00,,OVC003,0.00,VWS V14.01,2013-05-04 15:56:00,
2013-05-04 11:57:00,69.9,48.8,30.04,SSE,166,4.0,4.0,47,0.00,,OVC003,0.00,VWS V14.01,2013-05-04 15:57:00,
2013-05-04 11:58:00,70.0,48.3,30.04,SSE,166,3.0,3.0,46,0.00,,OVC003,0.00,VWS V14.01,2013-05-04 15:58:00,
2013-05-04 11:59:00,70.0,48.3,30.04,SSE,166,2.0,2.0,46,0.00,,OVC003,0.00,VWS V14.01,2013-05-04 15:59:00,
2013-05-04 12:00:00,70.0,48.3,30.04,SSE,166,2.0,2.0,46,0.00,,OVC003,0.00,VWS V14.01,2013-05-04 16:00:00,
2013-05-04 12:02:00,70.2,49.0,30.04,SSE,166,3.0,3.0,47,0.00,,OVC003,0.00,VWS V14.01,2013-05-04 16:02:00,
2013-05-04 12:03:00,70.3,49.1,30.04,NNE,24,4.0,4.0,47,0.00,,OVC003,0.00,VWS V14.01,2013-05-04 16:03:00,
2013-05-04 12:04:00,70.3,48.6,30.04,East,99,4.0,4.0,46,0.00,,OVC003,0.00,VWS V14.01,2013-05-04 16:04:00,
2013-05-04 12:05:00,70.3,48.6,30.04,SE,132,4.0,4.0,46,0.00,,OVC003,0.00,VWS V14.01,2013-05-04 16:05:00,
2013-05-04 12:06:00,70.3,48.0,30.04,SE,125,3.0,3.0,45,0.00,,OVC003,0.00,VWS V14.01,2013-05-04 16:06:00,
2013-05-04 12:07:00,70.3,48.0,30.04,SE,125,2.0,3.0,45,0.00,,OVC003,0.00,VWS V14.01,2013-05-04 16:07:00,
2013-05-04 12:08:00,70.3,48.0,30.04,SE,125,2.0,3.0,45,0.00,,OVC003,0.00,VWS V14.01,2013-05-04 16:08:00,
2013-05-04 12:10:00,70.3,48.0,30.04,East,86,4.0,4.0,45,0.00,,OVC003,0.00,VWS V14.01,2013-05-04 16:10:00,
2013-05-04 12:11:00,70.1,49.0,30.04,SSE,166,2.0,2.0,47,0.00,,OVC003,0.00,VWS V14.01,2013-05-04 16:11:00,
2013-05-04 12:13:00,70.3,48.0,30.04,ESE,114,3.0,3.0,45,0.00,,OVC003,0.00,VWS V14.01,2013-05-04 16:13:00,
2013-05-04 12:15:00,70.3,48.0,30.04,ESE,105,4.0,4.0,45,0.00,,OVC003,0.00,VWS V14.01,2013-05-04 16:15:00,
2013-05-04 12:16:00,70.3,48.0,30.04,ESE,105,4.0,4.0,45,0.00,,OVC003,0.00,VWS V14.01,2013-05-04 16:16:00,
2013-05-04 12:17:00,70.3,48.0,30.04,ESE,107,3.0,3.0,45,0.00,,OVC003,0.00,VWS V14.01,2013-05-04 16:17:00,
2013-05-04 12:18:00,70.3,48.0,30.04,ESE,106,2.0,2.0,45,0.00,,OVC003,0.00,VWS V14.01,2013-05-04 16:18:00,
2013-05-04 12:19:00,70.3,48.0,30.04,SE,125,3.0,3.0,45,0.00,,OVC003,0.00,VWS V14.01,2013-05-04 16:19:00,
2013-05-04 12:20:00,70.3,48.0,30.04,ESE,107,2.0,3.0,45,0.00,,OVC003,0.00,VWS V14.01,2013-05-04 16:20:00,
2013-05-04 12:21:00,70.3,48.6,30.04,ESE,106,3.0,3.0,46,0.00,,OVC003,0.00,VWS V14.01,2013-05-04 16:21:00,
2013-05-04 12:22:00,70.4,48.7,30.04,South,189,4.0,4.0,46,0.00,,OVC003,0.00,VWS V14.01,2013-05-04 16:22:00,
2013-05-04 12:23:00,70.4,48.1,30.04,South,189,2.0,3.0,45,0.00,,OVC003,0.00,VWS V14.01,2013-05-04 16:23:00,
2013-05-04 12:24:00,70.3,48.0,30.04,ESE,109,3.0,3.0,45,0.00,,OVC003,0.00,VWS V14.01,2013-05-04 16:24:00,
2013-05-04 12:25:00,70.5,47.6,30.04,South,189,2.0,3.0,44,0.00,,OVC003,0.00,VWS V14.01,2013-05-04 16:25:00,
2013-05-04 12:26:00,70.6,48.2,30.04,SE,124,2.0,3.0,45,0.00,,OVC003,0.00,VWS V14.01,2013-05-04 16:26:00,
2013-05-04 12:27:00,70.7,47.7,30.04,SE,124,3.0,3.0,44,0.00,,OVC003,0.00,VWS V14.01,2013-05-04 16:27:00,
2013-05-04 12:28:00,70.7,47.7,30.04,SSW,198,7.0,7.0,44,0.00,,OVC003,0.00,VWS V14.01,2013-05-04 16:28:00,
2013-05-04 12:29:00,70.8,47.8,30.04,SSW,198,2.0,5.0,44,0.00,,OVC003,0.00,VWS V14.01,2013-05-04 16:29:00,
2013-05-04 12:30:00,70.8,47.8,30.04,SSW,198,3.0,5.0,44,0.00,,OVC003,0.00,VWS V14.01,2013-05-04 16:30:00,
2013-05-04 12:31:00,70.9,47.9,30.04,ESE,112,4.0,4.0,44,0.00,,OVC003,0.00,VWS V14.01,2013-05-04 16:31:00,
2013-05-04 12:32:00,70.9,47.9,30.04,ESE,107,5.0,5.0,44,0.00,,OVC003,0.00,VWS V14.01,2013-05-04 16:32:00,
2013-05-04 12:33:00,70.9,47.9,30.04,ESE,109,3.0,4.0,44,0.00,,OVC003,0.00,VWS V14.01,2013-05-04 16:33:00,
2013-05-04 12:34:00,70.5,48.2,30.04,South,189,4.0,4.0,45,0.00,,OVC003,0.00,VWS V14.01,2013-05-04 16:34:00,
2013-05-04 12:35:00,70.9,47.9,30.04,South,176,6.0,6.0,44,0.00,,OVC003,0.00,VWS V14.01,2013-05-04 16:35:00,
2013-05-04 12:36:00,70.8,47.8,30.04,South,184,2.0,4.0,44,0.00,,OVC003,0.00,VWS V14.01,2013-05-04 16:36:00,
2013-05-04 12:37:00,70.8,47.8,30.04,South,185,2.0,4.0,44,0.00,,OVC003,0.00,VWS V14.01,2013-05-04 16:37:00,
2013-05-04 12:38:00,70.8,48.4,30.04,South,185,2.0,4.0,45,0.00,,OVC003,0.00,VWS V14.01,2013-05-04 16:38:00,
2013-05-04 12:39:00,70.8,48.4,30.04,WSW,237,3.0,4.0,45,0.00,,OVC003,0.00,VWS V14.01,2013-05-04 16:39:00,
2013-05-04 12:40:00,70.8,48.4,30.04,WSW,237,3.0,4.0,45,0.00,,OVC003,0.00,VWS V14.01,2013-05-04 16:40:00,
2013-05-04 12:41:00,70.9,48.5,30.04,ESE,117,2.0,3.0,45,0.00,,OVC003,0.00,VWS V14.01,2013-05-04 16:41:00,
2013-05-04 12:42:00,70.9,48.5,30.04,ENE,69,4.0,4.0,45,0.00,,OVC003,0.00,VWS V14.01,2013-05-04 16:42:00,
2013-05-04 12:43:00,70.9,47.9,30.04,ESE,105,3.0,4.0,44,0.00,,OVC003,0.00,VWS V14.01,2013-05-04 16:43:00,
2013-05-04 12:44:00,70.9,48.5,30.04,SE,139,4.0,4.0,45,0.00,,OVC003,0.00,VWS V14.01,2013-05-04 16:44:00,
2013-05-04 12:45:00,70.9,48.5,30.04,SE,139,3.0,4.0,45,0.00,,OVC003,0.00,VWS V14.01,2013-05-04 16:45:00,
2013-05-04 12:46:00,70.8,48.4,30.04,SE,139,2.0,2.0,45,0.00,,OVC003,0.00,VWS V14.01,2013-05-04 16:46:00,
2013-05-04 12:47:00,70.9,48.5,30.04,SE,139,3.0,3.0,45,0.00,,OVC003,0.00,VWS V14.01,2013-05-04 16:47:00,
2013-05-04 12:48:00,70.9,49.1,30.04,SE,139,4.0,4.0,46,0.00,,OVC003,0.00,VWS V14.01,2013-05-04 16:48:00,
2013-05-04 12:49:00,71.0,48.6,30.04,SE,135,3.0,3.0,45,0.00,,OVC003,0.00,VWS V14.01,2013-05-04 16:49:00,
2013-05-04 12:50:00,71.1,48.7,30.04,SE,141,4.0,4.0,45,0.00,,OVC003,0.00,VWS V14.01,2013-05-04 16:50:00,
2013-05-04 12:51:00,71.3,48.9,30.04,SE,140,2.0,3.0,45,0.00,,OVC003,0.00,VWS V14.01,2013-05-04 16:51:00,
2013-05-04 12:52:00,71.3,48.9,30.04,ESE,114,3.0,4.0,45,0.00,,OVC003,0.00,VWS V14.01,2013-05-04 16:52:00,
2013-05-04 12:53:00,71.3,48.3,30.04,ESE,114,3.0,4.0,44,0.00,,OVC003,0.00,VWS V14.01,2013-05-04 16:53:00,
2013-05-04 12:54:00,71.3,48.9,30.04,ESE,117,2.0,4.0,45,0.00,,OVC003,0.00,VWS V14.01,2013-05-04 16:54:00,
2013-05-04 12:55:00,71.3,48.3,30.04,ESE,118,2.0,4.0,44,0.00,,OVC003,0.00,VWS V14.01,2013-05-04 16:55:00,
2013-05-04 12:56:00,71.4,49.0,30.04,ESE,118,3.0,3.0,45,0.00,,OVC003,0.00,VWS V14.01,2013-05-04 16:56:00,
2013-05-04 12:57:00,71.4,49.6,30.04,NE,34,4.0,4.0,46,0.00,,OVC003,0.00,VWS V14.01,2013-05-04 16:57:00,
2013-05-04 12:58:00,71.5,49.7,30.04,East,97,4.0,4.0,46,0.00,,OVC003,0.00,VWS V14.01,2013-05-04 16:58:00,
2013-05-04 12:59:00,71.6,49.2,30.04,East,86,4.0,4.0,45,0.00,,OVC003,0.00,VWS V14.01,2013-05-04 16:59:00,
2013-05-04 13:00:00,71.6,49.2,30.04,East,86,3.0,3.0,45,0.00,,OVC003,0.00,VWS V14.01,2013-05-04 17:00:00,
2013-05-04 13:01:00,71.7,48.7,30.04,ESE,104,6.0,6.0,44,0.00,,OVC003,0.00,VWS V14.01,2013-05-04 17:01:00,
2013-05-04 13:02:00,71.7,48.7,30.04,ESE,103,2.0,4.0,44,0.00,,OVC003,0.00,VWS V14.01,2013-05-04 17:02:00,
2013-05-04 13:03:00,71.7,48.7,30.04,ESE,104,4.0,4.0,44,0.00,,OVC003,0.00,VWS V14.01,2013-05-04 17:03:00,
2013-05-04 13:04:00,71.8,48.7,30.04,SE,133,3.0,4.0,44,0.00,,OVC003,0.00,VWS V14.01,2013-05-04 17:04:00,
2013-05-04 13:05:00,71.8,48.7,30.04,SE,133,4.0,4.0,44,0.00,,OVC003,0.00,VWS V14.01,2013-05-04 17:05:00,
2013-05-04 13:06:00,71.9,48.8,30.04,SE,133,3.0,3.0,44,0.00,,OVC003,0.00,VWS V14.01,2013-05-04 17:06:00,
2013-05-04 13:07:00,71.9,49.4,30.04,SSE,149,4.0,4.0,45,0.00,,OVC003,0.00,VWS V14.01,2013-05-04 17:07:00,
2013-05-04 13:08:00,71.9,49.4,30.04,NNW,347,2.0,3.0,45,0.00,,OVC003,0.00,VWS V14.01,2013-05-04 17:08:00,
2013-05-04 13:09:00,72.0,49.5,30.04,ESE,116,4.0,4.0,45,0.00,,OVC003,0.00,VWS V14.01,2013-05-04 17:09:00,
2013-05-04 13:10:00,72.0,49.5,30.04,ESE,117,3.0,3.0,45,0.00,,OVC003,0.00,VWS V14.01,2013-05-04 17:10:00,
2013-05-04 13:11:00,72.2,49.7,30.04,NNE,22,5.0,5.0,45,0.00,,OVC003,0.00,VWS V14.01,2013-05-04 17:11:00,
2013-05-04 13:12:00,72.2,49.7,30.04,NE,44,3.0,3.0,45,0.00,,OVC003,0.00,VWS V14.01,2013-05-04 17:12:00,
2013-05-04 13:13:00,72.2,49.7,30.04,ENE,64,5.0,5.0,45,0.00,,OVC003,0.00,VWS V14.01,2013-05-04 17:13:00,
2013-05-04 13:14:00,72.2,49.7,30.03,NE,45,3.0,4.0,45,0.00,,OVC003,0.00,VWS V14.01,2013-05-04 17:14:00,
2013-05-04 13:15:00,72.2,49.7,30.03,NE,45,3.0,4.0,45,0.00,,OVC003,0.00,VWS V14.01,2013-05-04 17:15:00,
2013-05-04 13:16:00,72.2,49.1,30.03,ENE,66,3.0,3.0,44,0.00,,OVC003,0.00,VWS V14.01,2013-05-04 17:16:00,
2013-05-04 13:17:00,72.2,49.1,30.03,SE,145,2.0,4.0,44,0.00,,OVC003,0.00,VWS V14.01,2013-05-04 17:17:00,
2013-05-04 13:18:00,72.2,49.1,30.03,ESE,112,3.0,5.0,44,0.00,,OVC003,0.00,VWS V14.01,2013-05-04 17:18:00,
2013-05-04 13:19:00,72.1,49.0,30.03,ESE,112,2.0,5.0,44,0.00,,OVC003,0.00,VWS V14.01,2013-05-04 17:19:00,
2013-05-04 13:20:00,72.1,49.0,30.03,ESE,103,4.0,5.0,44,0.00,,OVC003,0.00,VWS V14.01,2013-05-04 17:20:00,
2013-05-04 13:21:00,72.2,49.1,30.03,North,8,4.0,4.0,44,0.00,,OVC003,0.00,VWS V14.01,2013-05-04 17:21:00,
2013-05-04 13:22:00,72.2,48.5,30.03,NE,41,2.0,3.0,43,0.00,,OVC003,0.00,VWS V14.01,2013-05-04 17:22:00,
2013-05-04 13:23:00,72.1,47.8,30.03,NE,41,2.0,3.0,42,0.00,,OVC003,0.00,VWS V14.01,2013-05-04 17:23:00,
2013-05-04 13:24:00,72.2,48.5,30.03,ESE,121,5.0,5.0,43,0.00,,OVC003,0.00,VWS V14.01,2013-05-04 17:24:00,
2013-05-04 13:25:00,72.1,48.4,30.03,ESE,123,5.0,5.0,43,0.00,,OVC003,0.00,VWS V14.01,2013-05-04 17:25:00,
2013-05-04 13:26:00,72.1,48.4,30.03,ESE,120,2.0,4.0,43,0.00,,OVC003,0.00,VWS V14.01,2013-05-04 17:26:00,
2013-05-04 13:27:00,72.1,49.0,30.03,NE,47,4.0,4.0,44,0.00,,OVC003,0.00,VWS V14.01,2013-05-04 17:27:00,
2013-05-04 13:28:00,72.0,48.9,30.03,NNE,13,4.0,4.0,44,0.00,,OVC003,0.00,VWS V14.01,2013-05-04 17:28:00,
2013-05-04 13:29:00,71.9,47.6,30.03,NNE,13,2.0,4.0,42,0.00,,OVC003,0.00,VWS V14.01,2013-05-04 17:29:00,
2013-05-04 13:30:00,71.9,48.2,30.03,NNE,13,3.0,4.0,43,0.00,,OVC003,0.00,VWS V14.01,2013-05-04 17:30:00,
2013-05-04 13:31:00,71.9,47.6,30.03,ENE,68,2.0,3.0,42,0.00,,OVC003,0.00,VWS V14.01,2013-05-04 17:31:00,
2013-05-04 13:32:00,71.9,48.2,30.03,ENE,68,3.0,3.0,43,0.00,,OVC003,0.00,VWS V14.01,2013-05-04 17:32:00,
2013-05-04 13:33:00,71.9,48.2,30.03,WNW,294,5.0,5.0,43,0.00,,OVC003,0.00,VWS V14.01,2013-05-04 17:33:00,
2013-05-04 13:34:00,71.9,48.8,30.03,North,349,2.0,4.0,44,0.00,,OVC003,0.00,VWS V14.01,2013-05-04 17:34:00,
2013-05-04 13:35:00,71.9,48.8,30.03,North,349,2.0,4.0,44,0.00,,OVC003,0.00,VWS V14.01,2013-05-04 17:35:00,
2013-05-04 13:36:00,72.2,49.7,30.03,ESE,114,7.0,7.0,45,0.00,,OVC003,0.00,VWS V14.01,2013-05-04 17:36:00,
2013-05-04 13:37:00,72.3,49.2,30.03,SE,141,3.0,6.0,44,0.00,,OVC003,0.00,VWS V14.01,2013-05-04 17:37:00,
2013-05-04 13:38:00,72.3,48.6,30.03,ESE,116,4.0,6.0,43,0.00,,OVC003,0.00,VWS V14.01,2013-05-04 17:38:00,
2013-05-04 13:39:00,72.4,48.7,30.03,SE,129,2.0,6.0,43,0.00,,OVC003,0.00,VWS V14.01,2013-05-04 17:39:00,
2013-05-04 13:40:00,72.4,48.7,30.03,SE,129,2.0,6.0,43,0.00,,OVC003,0.00,VWS V14.01,2013-05-04 17:40:00,
2013-05-04 13:41:00,72.5,48.8,30.03,ESE,114,2.0,4.0,43,0.00,,OVC003,0.00,VWS V14.01,2013-05-04 17:41:00,
2013-05-04 13:42:00,72.6,49.5,30.03,ESE,114,3.0,4.0,44,0.00,,OVC003,0.00,VWS V14.01,2013-05-04 17:42:00,
2013-05-04 13:43:00,72.7,49.5,30.03,NNW,334,12.0,12.0,44,0.00,,OVC003,0.00,VWS V14.01,2013-05-04 17:43:00,
2013-05-04 13:44:00,72.7,47.7,30.02,ESE,103,5.0,10.0,41,0.00,,OVC003,0.00,VWS V14.01,2013-05-04 17:44:00,
2013-05-04 13:45:00,72.7,47.7,30.02,SE,135,8.0,10.0,41,0.00,,OVC003,0.00,VWS V14.01,2013-05-04 17:45:00,
2013-05-04 13:46:00,72.8,47.1,30.02,SE,124,7.0,7.0,40,0.00,,OVC003,0.00,VWS V14.01,2013-05-04 17:46:00,
2013-05-04 13:47:00,72.7,47.0,30.02,ESE,120,7.0,10.0,40,0.00,,OVC003,0.00,VWS V14.01,2013-05-04 17:47:00,
2013-05-04 13:48:00,72.6,47.6,30.02,SE,133,7.0,10.0,41,0.00,,OVC003,0.00,VWS V14.01,2013-05-04 17:48:00,
2013-05-04 13:49:00,72.6,46.9,30.02,SE,124,4.0,10.0,40,0.00,,OVC003,0.00,VWS V14.01,2013-05-04 17:49:00,
2013-05-04 13:50:00,72.6,46.9,30.02,ESE,122,4.0,10.0,40,0.00,,OVC003,0.00,VWS V14.01,2013-05-04 17:50:00,
2013-05-04 13:51:00,72.4,46.7,30.02,ENE,73,5.0,6.0,40,0.00,,OVC003,0.00,VWS V14.01,2013-05-04 17:51:00,
2013-05-04 13:52:00,72.4,46.7,30.02,ESE,110,5.0,6.0,40,0.00,,OVC003,0.00,VWS V14.01,2013-05-04 17:52:00,
2013-05-04 13:53:00,72.3,46.7,30.02,ENE,61,3.0,6.0,40,0.00,,OVC003,0.00,VWS V14.01,2013-05-04 17:53:00,
2013-05-04 13:54:00,72.4,47.4,30.02,SSE,156,3.0,6.0,41,0.00,,OVC003,0.00,VWS V14.01,2013-05-04 17:54:00,
2013-05-04 13:55:00,72.4,47.4,30.02,SSE,156,3.0,6.0,41,0.00,,OVC003,0.00,VWS V14.01,2013-05-04 17:55:00,
2013-05-04 13:56:00,72.4,46.1,30.02,ESE,116,5.0,6.0,39,0.00,,OVC003,0.00,VWS V14.01,2013-05-04 17:56:00,
2013-05-04 13:57:00,72.4,46.1,30.02,ESE,115,5.0,6.0,39,0.00,,OVC003,0.00,VWS V14.01,2013-05-04 17:57:00,
2013-05-04 13:58:00,72.4,46.1,30.02,ESE,116,4.0,7.0,39,0.00,,OVC003,0.00,VWS V14.01,2013-05-04 17:58:00,
2013-05-04 13:59:00,72.4,46.1,30.02,NE,55,2.0,7.0,39,0.00,,OVC003,0.00,VWS V14.01,2013-05-04 17:59:00,
2013-05-04 14:00:00,72.4,46.1,30.02,NE,55,2.0,7.0,39,0.00,,OVC003,0.00,VWS V14.01,2013-05-04 18:00:00,
2013-05-04 14:01:00,72.4,46.7,30.02,East,89,2.0,2.0,40,0.00,,OVC003,0.00,VWS V14.01,2013-05-04 18:01:00,
2013-05-04 14:02:00,72.5,47.5,30.02,ENE,64,6.0,6.0,41,0.00,,OVC003,0.00,VWS V14.01,2013-05-04 18:02:00,
2013-05-04 14:03:00,72.6,46.9,30.02,SE,141,6.0,6.0,40,0.00,,OVC003,0.00,VWS V14.01,2013-05-04 18:03:00,
2013-05-04 14:04:00,72.7,46.3,30.02,SE,143,3.0,6.0,39,0.00,,OVC003,0.00,VWS V14.01,2013-05-04 18:04:00,
2013-05-04 14:05:00,72.7,46.3,30.02,SE,143,2.0,6.0,39,0.00,,OVC003,0.00,VWS V14.01,2013-05-04 18:05:00,
2013-05-04 14:06:00,72.8,47.1,30.02,ESE,114,4.0,4.0,40,0.00,,OVC003,0.00,VWS V14.01,2013-05-04 18:06:00,
2013-05-04 14:07:00,72.8,46.4,30.02,ESE,114,2.0,4.0,39,0.00,,OVC003,0.00,VWS V14.01,2013-05-04 18:07:00,
2013-05-04 14:08:00,72.9,46.5,30.02,South,186,5.0,5.0,39,0.00,,OVC003,0.00,VWS V14.01,2013-05-04 18:08:00,
2013-05-04 14:09:00,73.0,45.9,30.02,SSE,163,4.0,5.0,38,0.00,,OVC003,0.00,VWS V14.01,2013-05-04 18:09:00,
2013-05-04 14:10:00,73.0,45.9,30.02,SE,144,5.0,5.0,38,0.00,,OVC003,0.00,VWS V14.01,2013-05-04 18:10:00,
2013-05-04 14:11:00,73.1,46.0,30.02,ESE,115,4.0,4.0,38,0.00,,OVC003,0.00,VWS V14.01,2013-05-04 18:11:00,
2013-05-04 14:12:00,73.2,45.4,30.02,SSW,192,6.0,6.0,37,0.00,,OVC003,0.00,VWS V14.01,2013-05-04 18:12:00,
2013-05-04 14:13:00,73.3,44.8,30.02,East,80,3.0,5.0,36,0.00,,OVC003,0.00,VWS V14.01,2013-05-04 18:13:00,
2013-05-04 14:14:00,73.3,44.0,30.02,East,84,3.0,5.0,35,0.00,,OVC003,0.00,VWS V14.01,2013-05-04 18:14:00,
2013-05-04 14:15:00,73.3,44.0,30.02,East,83,2.0,5.0,35,0.00,,OVC003,0.00,VWS V14.01,2013-05-04 18:15:00,
2013-05-04 14:16:00,73.5,44.9,30.02,SSE,155,4.0,4.0,36,0.00,,OVC003,0.00,VWS V14.01,2013-05-04 18:16:00,
2013-05-04 14:17:00,73.5,44.9,30.02,SSE,147,4.0,4.0,36,0.00,,OVC003,0.00,VWS V14.01,2013-05-04 18:17:00,
2013-05-04 14:18:00,73.7,45.1,30.02,ENE,57,9.0,9.0,36,0.00,,OVC003,0.00,VWS V14.01,2013-05-04 18:18:00,
2013-05-04 14:19:00,73.7,44.4,30.02,SE,141,6.0,7.0,35,0.00,,OVC003,0.00,VWS V14.01,2013-05-04 18:19:00,
2013-05-04 14:20:00,73.7,44.4,30.02,South,178,6.0,7.0,35,0.00,,OVC003,0.00,VWS V14.01,2013-05-04 18:20:00,
2013-05-04 14:24:00,73.4,44.1,30.02,SE,146,5.0,7.0,35,0.00,,OVC003,0.00,VWS V14.01,2013-05-04 18:24:00,
2013-05-04 14:25:00,73.4,44.1,30.02,SE,146,3.0,7.0,35,0.00,,OVC003,0.00,VWS V14.01,2013-05-04 18:25:00,
2013-05-04 14:26:00,73.4,44.8,30.02,SSE,156,2.0,3.0,36,0.00,,OVC003,0.00,VWS V14.01,2013-05-04 18:26:00,
2013-05-04 14:27:00,73.4,45.6,30.02,ESE,105,4.0,4.0,37,0.00,,OVC003,0.00,VWS V14.01,2013-05-04 18:27:00,
2013-05-04 14:28:00,73.4,45.6,30.02,North,2,5.0,5.0,37,0.00,,OVC003,0.00,VWS V14.01,2013-05-04 18:28:00,
2013-05-04 14:29:00,73.3,44.0,30.02,East,98,6.0,7.0,35,0.00,,OVC003,0.00,VWS V14.01,2013-05-04 18:29:00,
2013-05-04 14:30:00,73.3,44.0,30.02,SE,126,7.0,7.0,35,0.00,,OVC003,0.00,VWS V14.01,2013-05-04 18:30:00,
2013-05-04 14:31:00,73.7,43.6,30.02,SE,135,5.0,7.0,34,0.00,,OVC003,0.00,VWS V14.01,2013-05-04 18:31:00,
2013-05-04 14:33:00,73.1,43.8,30.02,SSE,168,3.0,5.0,35,0.00,,OVC003,0.00,VWS V14.01,2013-05-04 18:33:00,
2013-05-04 14:34:00,73.1,44.6,30.02,North,354,4.0,5.0,36,0.00,,OVC003,0.00,VWS V14.01,2013-05-04 18:34:00,
2013-05-04 14:35:00,73.2,44.7,30.02,East,95,4.0,5.0,36,0.00,,OVC003,0.00,VWS V14.01,2013-05-04 18:35:00,
2013-05-04 14:36:00,73.2,43.9,30.02,SE,126,4.0,6.0,35,0.00,,OVC003,0.00,VWS V14.01,2013-05-04 18:36:00,
2013-05-04 14:37:00,73.2,43.9,30.02,SE,126,2.0,6.0,35,0.00,,OVC003,0.00,VWS V14.01,2013-05-04 18:37:00,
2013-05-04 14:38:00,73.2,44.7,30.02,SE,126,2.0,6.0,36,0.00,,OVC003,0.00,VWS V14.01,2013-05-04 18:38:00,
2013-05-04 14:39:00,73.3,45.5,30.02,SE,126,2.0,6.0,37,0.00,,OVC003,0.00,VWS V14.01,2013-05-04 18:39:00,
2013-05-04 14:40:00,73.4,45.6,30.02,NNE,33,7.0,7.0,37,0.00,,OVC003,0.00,VWS V14.01,2013-05-04 18:40:00,
2013-05-04 14:41:00,73.2,43.2,30.02,ENE,68,3.0,5.0,34,0.00,,OVC003,0.00,VWS V14.01,2013-05-04 18:41:00,
2013-05-04 14:42:00,73.5,44.2,30.02,East,101,3.0,5.0,35,0.00,,OVC003,0.00,VWS V14.01,2013-05-04 18:42:00,
2013-05-04 14:43:00,73.6,44.3,30.02,NNE,28,3.0,5.0,35,0.00,,OVC003,0.00,VWS V14.01,2013-05-04 18:43:00,
2013-05-04 14:44:00,73.6,44.3,30.01,South,169,3.0,5.0,35,0.00,,OVC003,0.00,VWS V14.01,2013-05-04 18:44:00,
2013-05-04 14:45:00,73.7,44.4,30.01,SE,126,6.0,6.0,35,0.00,,OVC003,0.00,VWS V14.01,2013-05-04 18:45:00,
2013-05-04 14:46:00,73.7,43.6,30.01,SE,129,2.0,5.0,34,0.00,,OVC003,0.00,VWS V14.01,2013-05-04 18:46:00,
2013-05-04 14:47:00,73.7,43.6,30.01,ESE,115,6.0,6.0,34,0.00,,OVC003,0.00,VWS V14.01,2013-05-04 18:47:00,
2013-05-04 14:48:00,73.7,43.6,30.01,ESE,122,4.0,5.0,34,0.00,,OVC003,0.00,VWS V14.01,2013-05-04 18:48:00,
2013-05-04 14:49:00,73.7,44.4,30.01,ESE,122,2.0,5.0,35,0.00,,OVC003,0.00,VWS V14.01,2013-05-04 18:49:00,
2013-05-04 14:50:00,73.7,45.1,30.01,ESE,121,3.0,5.0,36,0.00,,OVC003,0.00,VWS V14.01,2013-05-04 18:50:00,
2013-05-04 14:51:00,73.8,44.5,30.01,ESE,122,3.0,3.0,35,0.00,,OVC003,0.00,VWS V14.01,2013-05-04 18:51:00,
2013-05-04 14:52:00,73.9,44.5,30.01,SE,124,5.0,5.0,35,0.00,,OVC003,0.00,VWS V14.01,2013-05-04 18:52:00,
2013-05-04 14:53:00,74.0,45.4,30.01,East,97,4.0,4.0,36,0.00,,OVC003,0.00,VWS V14.01,2013-05-04 18:53:00,
2013-05-04 14:54:00,74.1,45.5,30.01,ENE,73,3.0,3.0,36,0.00,,OVC003,0.00,VWS V14.01,2013-05-04 18:54:00,
2013-05-04 14:55:00,74.2,44.8,30.01,ENE,73,3.0,3.0,35,0.00,,OVC003,0.00,VWS V14.01,2013-05-04 18:55:00,
2013-05-04 14:56:00,74.2,44.1,30.01,ESE,121,3.0,3.0,34,0.00,,OVC003,0.00,VWS V14.01,2013-05-04 18:56:00,
2013-05-04 14:57:00,74.3,44.1,30.01,SE,137,4.0,4.0,34,0.00,,OVC003,0.00,VWS V14.01,2013-05-04 18:57:00,
2013-05-04 14:58:00,74.2,43.3,30.01,ESE,121,3.0,4.0,33,0.00,,OVC003,0.00,VWS V14.01,2013-05-04 18:58:00,
2013-05-04 14:59:00,74.2,44.1,30.01,ESE,118,7.0,7.0,34,0.00,,OVC003,0.00,VWS V14.01,2013-05-04 18:59:00,
2013-05-04 15:00:00,74.2,43.3,30.01,ESE,120,7.0,7.0,33,0.00,,OVC003,0.00,VWS V14.01,2013-05-04 19:00:00,
2013-05-04 15:01:00,74.1,43.2,30.01,ENE,76,5.0,5.0,33,0.00,,OVC003,0.00,VWS V14.01,2013-05-04 19:01:00,
2013-05-04 15:02:00,74.1,43.2,30.01,NE,39,4.0,5.0,33,0.00,,OVC003,0.00,VWS V14.01,2013-05-04 19:02:00,
2013-05-04 15:03:00,74.0,43.1,30.01,ESE,116,4.0,5.0,33,0.00,,OVC003,0.00,VWS V14.01,2013-05-04 19:03:00,
2013-05-04 15:04:00,74.1,44.0,30.01,North,349,3.0,5.0,34,0.00,,OVC003,0.00,VWS V14.01,2013-05-04 19:04:00,
2013-05-04 15:05:00,74.1,43.2,30.01,SE,145,4.0,5.0,33,0.00,,OVC003,0.00,VWS V14.01,2013-05-04 19:05:00,
2013-05-04 15:06:00,74.1,42.4,30.01,ESE,119,6.0,6.0,32,0.00,,OVC003,0.00,VWS V14.01,2013-05-04 19:06:00,
2013-05-04 15:07:00,74.0,42.3,30.01,ESE,118,3.0,9.0,32,0.00,,OVC003,0.00,VWS V14.01,2013-05-04 19:07:00,
2013-05-04 15:08:00,74.0,42.3,30.01,SE,140,5.0,9.0,32,0.00,,OVC003,0.00,VWS V14.01,2013-05-04 19:08:00,
2013-05-04 15:09:00,74.0,42.3,30.01,ESE,109,4.0,9.0,32,0.00,,OVC003,0.00,VWS V14.01,2013-05-04 19:09:00,
2013-05-04 15:10:00,74.0,42.3,30.01,ESE,113,5.0,9.0,32,0.00,,OVC003,0.00,VWS V14.01,2013-05-04 19:10:00,
2013-05-04 15:11:00,74.0,42.3,30.01,SSE,149,5.0,5.0,32,0.00,,OVC003,0.00,VWS V14.01,2013-05-04 19:11:00,
2013-05-04 15:12:00,74.0,42.3,30.01,ESE,119,4.0,5.0,32,0.00,,OVC003,0.00,VWS V14.01,2013-05-04 19:12:00,
2013-05-04 15:13:00,74.0,42.3,30.01,East,94,4.0,5.0,32,0.00,,OVC003,0.00,VWS V14.01,2013-05-04 19:13:00,
2013-05-04 15:14:00,74.0,42.3,30.01,East,94,2.0,5.0,32,0.00,,OVC003,0.00,VWS V14.01,2013-05-04 19:14:00,
2013-05-04 15:15:00,74.1,43.2,30.01,East,94,3.0,5.0,33,0.00,,OVC003,0.00,VWS V14.01,2013-05-04 19:15:00,
2013-05-04 15:16:00,74.3,44.9,30.01,SE,130,2.0,4.0,35,0.00,,OVC003,0.00,VWS V14.01,2013-05-04 19:16:00,
2013-05-04 15:17:00,74.4,43.5,30.01,ENE,68,6.0,6.0,33,0.00,,OVC003,0.00,VWS V14.01,2013-05-04 19:17:00,
2013-05-04 15:18:00,74.6,42.8,30.01,ESE,118,2.0,4.0,32,0.00,,OVC003,0.00,VWS V14.01,2013-05-04 19:18:00,
2013-05-04 15:19:00,74.7,42.9,30.01,ESE,102,4.0,4.0,32,0.00,,OVC003,0.00,VWS V14.01,2013-05-04 19:19:00,
2013-05-04 15:20:00,74.8,43.0,30.01,ENE,61,3.0,4.0,32,0.00,,OVC003,0.00,VWS V14.01,2013-05-04 19:20:00,
2013-05-04 15:21:00,75.0,42.3,30.01,East,92,5.0,5.0,31,0.00,,OVC003,0.00,VWS V14.01,2013-05-04 19:21:00,
2013-05-04 15:22:00,74.9,41.4,30.01,ESE,120,3.0,4.0,30,0.00,,OVC003,0.00,VWS V14.01,2013-05-04 19:22:00,
2013-05-04 15:23:00,74.9,41.4,30.01,ENE,77,5.0,6.0,30,0.00,,OVC003,0.00,VWS V14.01,2013-05-04 19:23:00,
2013-05-04 15:24:00,74.8,42.2,30.01,North,350,3.0,7.0,31,0.00,,OVC003,0.00,VWS V14.01,2013-05-04 19:24:00,
2013-05-04 15:25:00,74.8,42.2,30.01,North,350,3.0,7.0,31,0.00,,OVC003,0.00,VWS V14.01,2013-05-04 19:25:00,
2013-05-04 15:27:00,74.7,41.2,30.01,NNW,330,2.0,6.0,30,0.00,,OVC003,0.00,VWS V14.01,2013-05-04 19:27:00,
2013-05-04 15:28:00,74.8,41.3,30.01,NE,51,4.0,6.0,30,0.00,,OVC003,0.00,VWS V14.01,2013-05-04 19:28:00,
2013-05-04 15:29:00,74.7,41.2,30.00,ESE,107,5.0,6.0,30,0.00,,OVC003,0.00,VWS V14.01,2013-05-04 19:29:00,
2013-05-04 15:30:00,74.7,41.2,30.00,ESE,107,4.0,6.0,30,0.00,,OVC003,0.00,VWS V14.01,2013-05-04 19:30:00,
2013-05-04 15:31:00,74.6,41.2,30.00,ESE,112,4.0,4.0,30,0.00,,OVC003,0.00,VWS V14.01,2013-05-04 19:31:00,
2013-05-04 15:32:00,74.4,40.1,30.00,NE,55,4.0,5.0,29,0.00,,OVC003,0.00,VWS V14.01,2013-05-04 19:32:00,
2013-05-04 15:33:00,74.4,41.8,30.00,SSE,150,4.0,5.0,31,0.00,,OVC003,0.00,VWS V14.01,2013-05-04 19:33:00,
2013-05-04 15:35:00,74.5,41.1,30.00,South,174,3.0,5.0,30,0.00,,OVC003,0.00,VWS V14.01,2013-05-04 19:35:00,
2013-05-04 15:36:00,74.8,42.2,30.01,NNE,14,3.0,6.0,31,0.00,,OVC003,0.00,VWS V14.01,2013-05-04 19:36:00,
2013-05-04 15:37:00,74.8,40.5,30.00,South,174,4.0,4.0,29,0.00,,OVC003,0.00,VWS V14.01,2013-05-04 19:37:00,
2013-05-04 15:38:00,74.9,41.4,30.00,ESE,122,3.0,3.0,30,0.00,,OVC003,0.00,VWS V14.01,2013-05-04 19:38:00,
2013-05-04 15:39:00,75.0,41.5,30.00,SSE,148,3.0,5.0,30,0.00,,OVC003,0.00,VWS V14.01,2013-05-04 19:39:00,
2013-05-04 15:40:00,75.1,40.7,30.00,NNW,343,4.0,5.0,29,0.00,,OVC003,0.00,VWS V14.01,2013-05-04 19:40:00,
2013-05-04 15:41:00,75.2,41.7,30.00,ESE,107,5.0,5.0,30,0.00,,OVC003,0.00,VWS V14.01,2013-05-04 19:41:00,
2013-05-04 15:42:00,75.3,42.6,30.00,NE,52,4.0,4.0,31,0.00,,OVC003,0.00,VWS V14.01,2013-05-04 19:42:00,
2013-05-04 15:44:00,74.5,41.9,30.00,South,174,2.0,5.0,31,0.00,,OVC003,0.00,VWS V14.01,2013-05-04 19:44:00,
2013-05-04 15:45:00,75.4,43.5,29.99,NE,52,4.0,4.0,32,0.00,,OVC003,0.00,VWS V14.01,2013-05-04 19:45:00,
2013-05-04 15:46:00,75.5,41.0,29.99,ESE,111,3.0,3.0,29,0.00,,OVC003,0.00,VWS V14.01,2013-05-04 19:46:00,
2013-05-04 15:49:00,75.2,39.9,29.99,ESE,113,7.0,7.0,28,0.00,,OVC003,0.00,VWS V14.01,2013-05-04 19:49:00,
2013-05-04 15:50:00,75.1,39.8,29.99,ESE,105,2.0,6.0,28,0.00,,OVC003,0.00,VWS V14.01,2013-05-04 19:50:00,
2013-05-04 15:51:00,75.0,40.6,29.99,ESE,103,2.0,2.0,29,0.00,,OVC003,0.00,VWS V14.01,2013-05-04 19:51:00,
2013-05-04 15:53:00,75.3,41.8,30.00,NE,52,2.0,3.0,30,0.00,,OVC003,0.00,VWS V14.01,2013-05-04 19:53:00,
2013-05-04 15:54:00,74.9,39.6,29.99,North,358,2.0,3.0,28,0.00,,OVC003,0.00,VWS V14.01,2013-05-04 19:54:00,
2013-05-04 15:55:00,74.9,39.6,29.99,North,358,2.0,3.0,28,0.00,,OVC003,0.00,VWS V14.01,2013-05-04 19:55:00,
2013-05-04 15:57:00,74.8,40.5,29.99,ESE,117,7.0,7.0,29,0.00,,OVC003,0.00,VWS V14.01,2013-05-04 19:57:00,
2013-05-04 15:58:00,75.3,40.9,29.99,ESE,117,5.0,6.0,29,0.00,,OVC003,0.00,VWS V14.01,2013-05-04 19:58:00,
2013-05-04 15:59:00,74.6,37.5,29.99,ESE,116,2.0,5.0,26,0.00,,OVC003,0.00,VWS V14.01,2013-05-04 19:59:00,
2013-05-04 16:00:00,74.5,37.4,29.99,ESE,116,2.0,5.0,26,0.00,,OVC003,0.00,VWS V14.01,2013-05-04 20:00:00,
2013-05-04 16:01:00,74.5,38.4,29.99,North,352,4.0,5.0,27,0.00,,OVC003,0.00,VWS V14.01,2013-05-04 20:01:00,
2013-05-04 16:03:00,74.3,37.2,29.99,NE,43,5.0,5.0,26,0.00,,OVC003,0.00,VWS V14.01,2013-05-04 20:03:00,
2013-05-04 16:04:00,74.3,39.1,29.99,SE,129,5.0,5.0,28,0.00,,OVC003,0.00,VWS V14.01,2013-05-04 20:04:00,
2013-05-04 16:05:00,74.9,39.6,29.99,North,358,2.0,0.0,28,0.00,,OVC003,0.00,VWS V14.01,2013-05-04 20:05:00,
2013-05-04 16:06:00,74.3,38.2,29.99,ESE,111,4.0,5.0,27,0.00,,OVC003,0.00,VWS V14.01,2013-05-04 20:06:00,
2013-05-04 16:07:00,74.3,36.2,29.99,ESE,114,4.0,5.0,25,0.00,,OVC003,0.00,VWS V14.01,2013-05-04 20:07:00,
2013-05-04 16:08:00,74.3,37.2,29.99,SSE,148,2.0,5.0,26,0.00,,OVC003,0.00,VWS V14.01,2013-05-04 20:08:00,
2013-05-04 16:09:00,74.4,38.3,29.99,East,86,4.0,5.0,27,0.00,,OVC003,0.00,VWS V14.01,2013-05-04 20:09:00,
2013-05-04 16:10:00,74.4,38.3,29.99,East,83,2.0,5.0,27,0.00,,OVC003,0.00,VWS V14.01,2013-05-04 20:10:00,
2013-05-04 16:11:00,74.6,38.5,29.99,SSE,157,2.0,2.0,27,0.00,,OVC003,0.00,VWS V14.01,2013-05-04 20:11:00,
2013-05-04 16:12:00,74.4,37.3,29.99,NNE,27,5.0,5.0,26,0.00,,OVC003,0.00,VWS V14.01,2013-05-04 20:12:00,
2013-05-04 16:13:00,74.8,37.7,29.99,SSW,192,2.0,4.0,26,0.00,,OVC003,0.00,VWS V14.01,2013-05-04 20:13:00,
2013-05-04 16:14:00,74.9,37.7,29.99,SSW,192,2.0,4.0,26,0.00,,OVC003,0.00,VWS V14.01,2013-05-04 20:14:00,
2013-05-04 16:15:00,74.9,38.7,29.99,South,185,4.0,4.0,27,0.00,,OVC003,0.00,VWS V14.01,2013-05-04 20:15:00,
2013-05-04 16:16:00,75.1,37.9,29.99,SSE,157,4.0,4.0,26,0.00,,OVC003,0.00,VWS V14.01,2013-05-04 20:16:00,
2013-05-04 16:17:00,75.1,39.8,29.99,ENE,74,4.0,4.0,28,0.00,,OVC003,0.00,VWS V14.01,2013-05-04 20:17:00,
2013-05-04 16:18:00,75.1,38.9,29.99,South,187,5.0,5.0,27,0.00,,OVC003,0.00,VWS V14.01,2013-05-04 20:18:00,
2013-05-04 16:19:00,75.1,37.9,29.99,ESE,122,3.0,4.0,26,0.00,,OVC003,0.00,VWS V14.01,2013-05-04 20:19:00,
2013-05-04 16:20:00,75.1,37.9,29.99,ESE,121,3.0,4.0,26,0.00,,OVC003,0.00,VWS V14.01,2013-05-04 20:20:00,
2013-05-04 16:21:00,75.1,37.9,29.99,ESE,113,3.0,3.0,26,0.00,,OVC003,0.00,VWS V14.01,2013-05-04 20:21:00,
2013-05-04 16:22:00,75.1,37.9,29.99,ESE,113,3.0,3.0,26,0.00,,OVC003,0.00,VWS V14.01,2013-05-04 20:22:00,
2013-05-04 16:23:00,75.1,38.9,29.99,ESE,103,4.0,4.0,27,0.00,,OVC003,0.00,VWS V14.01,2013-05-04 20:23:00,
2013-05-04 16:24:00,75.1,38.9,29.99,East,81,3.0,3.0,27,0.00,,OVC003,0.00,VWS V14.01,2013-05-04 20:24:00,
2013-05-04 16:25:00,75.0,37.8,29.99,SE,130,7.0,7.0,26,0.00,,OVC003,0.00,VWS V14.01,2013-05-04 20:25:00,
2013-05-04 16:26:00,75.0,38.8,29.99,ESE,111,4.0,5.0,27,0.00,,OVC003,0.00,VWS V14.01,2013-05-04 20:26:00,
2013-05-04 16:27:00,74.9,37.7,29.99,ESE,118,4.0,5.0,26,0.00,,OVC003,0.00,VWS V14.01,2013-05-04 20:27:00,
2013-05-04 16:29:00,74.9,38.7,29.99,ESE,119,4.0,5.0,27,0.00,,OVC003,0.00,VWS V14.01,2013-05-04 20:29:00,
2013-05-04 16:30:00,74.9,38.7,29.99,ESE,119,5.0,5.0,27,0.00,,OVC003,0.00,VWS V14.01,2013-05-04 20:30:00,
2013-05-04 16:33:00,75.1,39.8,29.99,ESE,118,2.0,3.0,28,0.00,,OVC003,0.00,VWS V14.01,2013-05-04 20:33:00,
2013-05-04 16:34:00,75.1,39.8,29.99,ESE,116,5.0,5.0,28,0.00,,OVC003,0.00,VWS V14.01,2013-05-04 20:34:00,
2013-05-04 16:35:00,75.0,37.8,29.99,ESE,110,2.0,5.0,26,0.00,,OVC003,0.00,VWS V14.01,2013-05-04 20:35:00,
2013-05-04 16:36:00,75.1,37.9,29.99,ESE,116,6.0,6.0,26,0.00,,OVC003,0.00,VWS V14.01,2013-05-04 20:36:00,
2013-05-04 16:37:00,75.0,37.8,29.99,ESE,118,4.0,5.0,26,0.00,,OVC003,0.00,VWS V14.01,2013-05-04 20:37:00,
2013-05-04 16:39:00,74.8,38.6,29.99,ESE,116,4.0,5.0,27,0.00,,OVC003,0.00,VWS V14.01,2013-05-04 20:39:00,
2013-05-04 16:40:00,74.8,38.6,29.99,ESE,112,6.0,6.0,27,0.00,,OVC003,0.00,VWS V14.01,2013-05-04 20:40:00,
2013-05-04 16:41:00,74.9,38.7,29.99,ESE,118,2.0,3.0,27,0.00,,OVC003,0.00,VWS V14.01,2013-05-04 20:41:00,
2013-05-04 16:42:00,74.7,38.5,29.99,SE,139,9.0,9.0,27,0.00,,OVC003,0.00,VWS V14.01,2013-05-04 20:42:00,
2013-05-04 16:43:00,74.7,38.5,29.99,SE,125,5.0,7.0,27,0.00,,OVC003,0.00,VWS V14.01,2013-05-04 20:43:00,
2013-05-04 16:44:00,74.7,38.5,29.98,SE,132,2.0,7.0,27,0.00,,OVC003,0.00,VWS V14.01,2013-05-04 20:44:00,
2013-05-04 16:45:00,74.7,38.5,29.98,SE,132,3.0,7.0,27,0.00,,OVC003,0.00,VWS V14.01,2013-05-04 20:45:00,
2013-05-04 16:46:00,74.9,39.6,29.98,SE,126,2.0,3.0,28,0.00,,OVC003,0.00,VWS V14.01,2013-05-04 20:46:00,
2013-05-04 16:47:00,74.9,38.7,29.98,SSE,148,4.0,4.0,27,0.00,,OVC003,0.00,VWS V14.01,2013-05-04 20:47:00,
2013-05-04 16:48:00,74.9,37.7,29.99,ESE,118,5.0,5.0,26,0.00,,OVC003,0.00,VWS V14.01,2013-05-04 20:48:00,
2013-05-04 16:49:00,75.0,37.8,29.98,SE,139,4.0,4.0,26,0.00,,OVC003,0.00,VWS V14.01,2013-05-04 20:49:00,
2013-05-04 16:50:00,75.0,37.8,29.98,SE,139,4.0,4.0,26,0.00,,OVC003,0.00,VWS V14.01,2013-05-04 20:50:00,
2013-05-04 16:52:00,75.0,37.8,29.98,East,85,3.0,4.0,26,0.00,,OVC003,0.00,VWS V14.01,2013-05-04 20:52:00,
2013-05-04 16:53:00,75.0,37.8,29.98,ESE,109,3.0,4.0,26,0.00,,OVC003,0.00,VWS V14.01,2013-05-04 20:53:00,
2013-05-04 16:54:00,75.0,37.8,29.98,ESE,109,2.0,4.0,26,0.00,,OVC003,0.00,VWS V14.01,2013-05-04 20:54:00,
2013-05-04 16:55:00,74.7,40.4,29.98,SE,132,3.0,3.0,29,0.00,,OVC003,0.00,VWS V14.01,2013-05-04 20:55:00,
2013-05-04 16:56:00,75.0,38.8,29.98,ESE,109,3.0,3.0,27,0.00,,OVC003,0.00,VWS V14.01,2013-05-04 20:56:00,
2013-05-04 16:58:00,75.1,38.9,29.98,ESE,109,2.0,2.0,27,0.00,,OVC003,0.00,VWS V14.01,2013-05-04 20:58:00,
2013-05-04 16:59:00,75.2,39.0,29.99,ESE,109,3.0,3.0,27,0.00,,OVC003,0.00,VWS V14.01,2013-05-04 20:59:00,
2013-05-04 17:00:00,75.2,39.9,29.99,ESE,109,2.0,2.0,28,0.00,,OVC003,0.00,VWS V14.01,2013-05-04 21:00:00,
2013-05-04 17:01:00,75.0,37.8,29.98,ESE,109,5.0,5.0,26,0.00,,OVC003,0.00,VWS V14.01,2013-05-04 21:01:00,
2013-05-04 17:02:00,75.6,38.3,29.99,ESE,114,4.0,5.0,26,0.00,,OVC003,0.00,VWS V14.01,2013-05-04 21:02:00,
2013-05-04 17:03:00,75.5,38.2,29.99,NNE,20,8.0,8.0,26,0.00,,OVC003,0.00,VWS V14.01,2013-05-04 21:03:00,
2013-05-04 17:04:00,75.5,38.2,29.99,ESE,105,5.0,7.0,26,0.00,,OVC003,0.00,VWS V14.01,2013-05-04 21:04:00,
2013-05-04 17:05:00,75.4,38.2,29.99,ESE,117,5.0,7.0,26,0.00,,OVC003,0.00,VWS V14.01,2013-05-04 21:05:00,
2013-05-04 17:06:00,75.2,38.0,29.99,NNE,17,4.0,4.0,26,0.00,,OVC003,0.00,VWS V14.01,2013-05-04 21:06:00,
2013-05-04 17:07:00,75.0,39.7,29.98,ESE,109,2.0,2.0,28,0.00,,OVC003,0.00,VWS V14.01,2013-05-04 21:07:00,
2013-05-04 17:08:00,75.0,37.8,29.99,ESE,102,4.0,7.0,26,0.00,,OVC003,0.00,VWS V14.01,2013-05-04 21:08:00,
2013-05-04 17:10:00,74.9,38.7,29.99,ESE,121,4.0,7.0,27,0.00,,OVC003,0.00,VWS V14.01,2013-05-04 21:10:00,
2013-05-04 17:12:00,74.7,37.6,29.99,ESE,110,3.0,6.0,26,0.00,,OVC003,0.00,VWS V14.01,2013-05-04 21:12:00,
2013-05-04 17:13:00,74.7,37.6,29.99,North,0,4.0,6.0,26,0.00,,OVC003,0.00,VWS V14.01,2013-05-04 21:13:00,
2013-05-04 17:14:00,74.8,38.6,29.98,East,87,2.0,6.0,27,0.00,,OVC003,0.00,VWS V14.01,2013-05-04 21:14:00,
2013-05-04 17:15:00,74.8,38.6,29.98,South,172,4.0,6.0,27,0.00,,OVC003,0.00,VWS V14.01,2013-05-04 21:15:00,
2013-05-04 17:17:00,75.1,36.9,29.99,ESE,118,5.0,7.0,25,0.00,,OVC003,0.00,VWS V14.01,2013-05-04 21:17:00,
2013-05-04 17:19:00,75.0,37.8,29.98,SSE,149,5.0,5.0,26,0.00,,OVC003,0.00,VWS V14.01,2013-05-04 21:19:00,
2013-05-04 17:20:00,75.0,37.8,29.98,SSE,149,2.0,5.0,26,0.00,,OVC003,0.00,VWS V14.01,2013-05-04 21:20:00,
2013-05-04 17:21:00,75.0,37.8,29.98,SE,124,4.0,6.0,26,0.00,,OVC003,0.00,VWS V14.01,2013-05-04 21:21:00,
2013-05-04 17:22:00,74.9,37.7,29.98,SE,126,5.0,6.0,26,0.00,,OVC003,0.00,VWS V14.01,2013-05-04 21:22:00,
2013-05-04 17:23:00,74.9,37.7,29.98,ESE,114,7.0,7.0,26,0.00,,OVC003,0.00,VWS V14.01,2013-05-04 21:23:00,
2013-05-04 17:24:00,74.8,36.7,29.98,ESE,107,4.0,6.0,25,0.00,,OVC003,0.00,VWS V14.01,2013-05-04 21:24:00,
2013-05-04 17:25:00,74.8,37.7,29.98,South,172,2.0,2.0,26,0.00,,OVC003,0.00,VWS V14.01,2013-05-04 21:25:00,
2013-05-04 17:26:00,74.6,37.5,29.98,ESE,122,7.0,7.0,26,0.00,,OVC003,0.00,VWS V14.01,2013-05-04 21:26:00,
2013-05-04 17:27:00,74.5,37.4,29.98,East,87,4.0,5.0,26,0.00,,OVC003,0.00,VWS V14.01,2013-05-04 21:27:00,
2013-05-04 17:28:00,74.4,37.3,29.98,SE,132,7.0,7.0,26,0.00,,OVC003,0.00,VWS V14.01,2013-05-04 21:28:00,
2013-05-04 17:29:00,74.4,37.3,29.98,SE,132,7.0,7.0,26,0.00,,OVC003,0.00,VWS V14.01,2013-05-04 21:29:00,
2013-05-04 17:30:00,74.4,37.3,29.98,SE,130,2.0,5.0,26,0.00,,OVC003,0.00,VWS V14.01,2013-05-04 21:30:00,
2013-05-04 17:31:00,74.5,38.4,29.98,SE,130,2.0,2.0,27,0.00,,OVC003,0.00,VWS V14.01,2013-05-04 21:31:00,
2013-05-04 17:32:00,74.6,38.5,29.98,SE,133,4.0,4.0,27,0.00,,OVC003,0.00,VWS V14.01,2013-05-04 21:32:00,
2013-05-04 17:34:00,74.7,38.5,29.98,SE,138,2.0,3.0,27,0.00,,OVC003,0.00,VWS V14.01,2013-05-04 21:34:00,
2013-05-04 17:35:00,74.7,38.5,29.98,SE,138,2.0,3.0,27,0.00,,OVC003,0.00,VWS V14.01,2013-05-04 21:35:00,
2013-05-04 17:36:00,74.8,38.6,29.98,ENE,77,3.0,3.0,27,0.00,,OVC003,0.00,VWS V14.01,2013-05-04 21:36:00,
2013-05-04 17:37:00,74.9,38.7,29.98,SE,132,3.0,5.0,27,0.00,,OVC003,0.00,VWS V14.01,2013-05-04 21:37:00,
2013-05-04 17:38:00,74.9,37.7,29.98,SE,132,2.0,5.0,26,0.00,,OVC003,0.00,VWS V14.01,2013-05-04 21:38:00,
2013-05-04 17:39:00,74.9,38.7,29.98,NNE,16,4.0,5.0,27,0.00,,OVC003,0.00,VWS V14.01,2013-05-04 21:39:00,
2013-05-04 17:40:00,74.9,38.7,29.98,NNE,21,4.0,5.0,27,0.00,,OVC003,0.00,VWS V14.01,2013-05-04 21:40:00,
2013-05-04 17:41:00,74.9,37.7,29.98,SE,144,4.0,4.0,26,0.00,,OVC003,0.00,VWS V14.01,2013-05-04 21:41:00,
2013-05-04 17:42:00,74.9,38.7,29.98,SE,130,3.0,3.0,27,0.00,,OVC003,0.00,VWS V14.01,2013-05-04 21:42:00,
2013-05-04 17:43:00,74.7,37.6,29.98,SE,137,2.0,3.0,26,0.00,,OVC003,0.00,VWS V14.01,2013-05-04 21:43:00,
2013-05-04 17:44:00,74.9,38.7,29.98,ESE,119,7.0,7.0,27,0.00,,OVC003,0.00,VWS V14.01,2013-05-04 21:44:00,
2013-05-04 17:45:00,74.8,38.6,29.98,ESE,106,3.0,5.0,27,0.00,,OVC003,0.00,VWS V14.01,2013-05-04 21:45:00,
2013-05-04 17:46:00,74.6,37.5,29.98,SE,131,6.0,6.0,26,0.00,,OVC003,0.00,VWS V14.01,2013-05-04 21:46:00,
2013-05-04 17:47:00,74.5,37.4,29.98,SE,132,2.0,4.0,26,0.00,,OVC003,0.00,VWS V14.01,2013-05-04 21:47:00,
2013-05-04 17:48:00,74.5,38.4,29.98,SE,132,3.0,4.0,27,0.00,,OVC003,0.00,VWS V14.01,2013-05-04 21:48:00,
2013-05-04 17:49:00,74.4,37.3,29.98,East,94,3.0,4.0,26,0.00,,OVC003,0.00,VWS V14.01,2013-05-04 21:49:00,
2013-05-04 17:50:00,74.4,37.3,29.98,East,94,2.0,4.0,26,0.00,,OVC003,0.00,VWS V14.01,2013-05-04 21:50:00,
2013-05-04 17:51:00,74.4,38.3,29.98,ESE,112,2.0,2.0,27,0.00,,OVC003,0.00,VWS V14.01,2013-05-04 21:51:00,
2013-05-04 17:52:00,74.4,38.3,29.98,ESE,120,2.0,3.0,27,0.00,,OVC003,0.00,VWS V14.01,2013-05-04 21:52:00,
2013-05-04 17:53:00,74.4,37.3,29.98,ESE,113,5.0,5.0,26,0.00,,OVC003,0.00,VWS V14.01,2013-05-04 21:53:00,
2013-05-04 17:54:00,74.4,38.3,29.98,ESE,114,3.0,3.0,27,0.00,,OVC003,0.00,VWS V14.01,2013-05-04 21:54:00,
2013-05-04 17:55:00,74.4,38.3,29.98,ESE,114,2.0,3.0,27,0.00,,OVC003,0.00,VWS V14.01,2013-05-04 21:55:00,
2013-05-04 17:56:00,74.4,37.3,29.98,ESE,121,3.0,3.0,26,0.00,,OVC003,0.00,VWS V14.01,2013-05-04 21:56:00,
2013-05-04 17:57:00,74.4,37.3,29.98,ESE,110,4.0,4.0,26,0.00,,OVC003,0.00,VWS V14.01,2013-05-04 21:57:00,
2013-05-04 17:58:00,74.4,37.3,29.98,West,281,4.0,4.0,26,0.00,,OVC003,0.00,VWS V14.01,2013-05-04 21:58:00,
2013-05-04 17:59:00,74.4,38.3,29.98,WNW,282,2.0,3.0,27,0.00,,OVC003,0.00,VWS V14.01,2013-05-04 21:59:00,
2013-05-04 18:00:00,74.4,38.3,29.98,WNW,282,3.0,3.0,27,0.00,,OVC003,0.00,VWS V14.01,2013-05-04 22:00:00,
2013-05-04 18:01:00,74.4,36.3,29.98,SE,144,2.0,3.0,25,0.00,,OVC003,0.00,VWS V14.01,2013-05-04 22:01:00,
2013-05-04 18:02:00,74.4,36.3,29.98,SE,144,4.0,4.0,25,0.00,,OVC003,0.00,VWS V14.01,2013-05-04 22:02:00,
2013-05-04 18:03:00,74.4,38.3,29.98,SE,125,5.0,5.0,27,0.00,,OVC003,0.00,VWS V14.01,2013-05-04 22:03:00,
2013-05-04 18:04:00,74.3,36.2,29.98,SSE,149,5.0,5.0,25,0.00,,OVC003,0.00,VWS V14.01,2013-05-04 22:04:00,
2013-05-04 18:05:00,74.4,36.3,29.98,SSE,149,4.0,5.0,25,0.00,,OVC003,0.00,VWS V14.01,2013-05-04 22:05:00,
2013-05-04 18:06:00,74.3,37.2,29.98,SE,126,6.0,6.0,26,0.00,,OVC003,0.00,VWS V14.01,2013-05-04 22:06:00,
2013-05-04 18:07:00,74.2,35.1,29.98,ESE,114,4.0,4.0,24,0.00,,OVC003,0.00,VWS V14.01,2013-05-04 22:07:00,
2013-05-04 18:08:00,74.2,35.1,29.98,SE,128,4.0,4.0,24,0.00,,OVC003,0.00,VWS V14.01,2013-05-04 22:08:00,
2013-05-04 18:09:00,74.1,36.1,29.98,ESE,106,2.0,4.0,25,0.00,,OVC003,0.00,VWS V14.01,2013-05-04 22:09:00,
2013-05-04 18:10:00,74.1,36.1,29.98,ESE,107,3.0,4.0,25,0.00,,OVC003,0.00,VWS V14.01,2013-05-04 22:10:00,
2013-05-04 18:11:00,74.0,36.0,29.98,ESE,107,3.0,3.0,25,0.00,,OVC003,0.00,VWS V14.01,2013-05-04 22:11:00,
2013-05-04 18:12:00,74.0,36.0,29.98,SE,132,4.0,5.0,25,0.00,,OVC003,0.00,VWS V14.01,2013-05-04 22:12:00,
2013-05-04 18:13:00,74.0,36.0,29.98,SE,137,3.0,5.0,25,0.00,,OVC003,0.00,VWS V14.01,2013-05-04 22:13:00,
2013-05-04 18:14:00,73.9,35.9,29.98,SE,136,2.0,5.0,25,0.00,,OVC003,0.00,VWS V14.01,2013-05-04 22:14:00,
2013-05-04 18:15:00,74.0,36.0,29.98,SE,136,5.0,5.0,25,0.00,,OVC003,0.00,VWS V14.01,2013-05-04 22:15:00,
2013-05-04 18:16:00,73.9,36.9,29.98,SE,136,2.0,3.0,26,0.00,,OVC003,0.00,VWS V14.01,2013-05-04 22:16:00,
2013-05-04 18:17:00,73.9,35.9,29.98,SE,137,4.0,4.0,25,0.00,,OVC003,0.00,VWS V14.01,2013-05-04 22:17:00,
2013-05-04 18:18:00,73.9,35.9,29.98,ESE,112,2.0,3.0,25,0.00,,OVC003,0.00,VWS V14.01,2013-05-04 22:18:00,
2013-05-04 18:19:00,73.9,35.9,29.98,ESE,123,3.0,3.0,25,0.00,,OVC003,0.00,VWS V14.01,2013-05-04 22:19:00,
2013-05-04 18:20:00,73.9,35.9,29.98,ESE,122,2.0,3.0,25,0.00,,OVC003,0.00,VWS V14.01,2013-05-04 22:20:00,
2013-05-04 18:21:00,73.8,36.8,29.98,ESE,122,2.0,2.0,26,0.00,,OVC003,0.00,VWS V14.01,2013-05-04 22:21:00,
2013-05-04 18:22:00,73.8,36.8,29.98,SSE,151,3.0,3.0,26,0.00,,OVC003,0.00,VWS V14.01,2013-05-04 22:22:00,
2013-05-04 18:23:00,73.8,37.8,29.98,SSE,151,2.0,3.0,27,0.00,,OVC003,0.00,VWS V14.01,2013-05-04 22:23:00,
2013-05-04 18:25:00,73.8,37.8,29.98,ESE,113,5.0,5.0,27,0.00,,OVC003,0.00,VWS V14.01,2013-05-04 22:25:00,
2013-05-04 18:27:00,73.7,35.7,29.98,SE,133,6.0,6.0,25,0.00,,OVC003,0.00,VWS V14.01,2013-05-04 22:27:00,
2013-05-04 18:28:00,73.6,35.6,29.98,SE,126,5.0,5.0,25,0.00,,OVC003,0.00,VWS V14.01,2013-05-04 22:28:00,
2013-05-04 18:29:00,73.6,35.6,29.98,ESE,123,2.0,4.0,25,0.00,,OVC003,0.00,VWS V14.01,2013-05-04 22:29:00,
2013-05-04 18:30:00,73.5,36.5,29.98,ESE,123,2.0,4.0,26,0.00,,OVC003,0.00,VWS V14.01,2013-05-04 22:30:00,
2013-05-04 18:31:00,73.5,36.5,29.98,ESE,120,4.0,4.0,26,0.00,,OVC003,0.00,VWS V14.01,2013-05-04 22:31:00,
2013-05-04 18:33:00,73.5,36.5,29.98,ESE,117,4.0,4.0,26,0.00,,OVC003,0.00,VWS V14.01,2013-05-04 22:33:00,
2013-05-04 18:34:00,73.5,36.5,29.98,ESE,111,3.0,3.0,26,0.00,,OVC003,0.00,VWS V14.01,2013-05-04 22:34:00,
2013-05-04 18:35:00,73.8,37.8,29.98,ESE,113,5.0,5.0,27,0.00,,OVC003,0.00,VWS V14.01,2013-05-04 22:35:00,
2013-05-04 18:36:00,73.3,35.4,29.98,SE,126,6.0,6.0,25,0.00,,OVC003,0.00,VWS V14.01,2013-05-04 22:36:00,
2013-05-04 18:37:00,73.3,35.4,29.98,ESE,114,2.0,4.0,25,0.00,,OVC003,0.00,VWS V14.01,2013-05-04 22:37:00,
2013-05-04 18:38:00,73.2,35.3,29.98,ESE,114,2.0,4.0,25,0.00,,OVC003,0.00,VWS V14.01,2013-05-04 22:38:00,
2013-05-04 18:39:00,73.2,36.3,29.98,ESE,115,3.0,4.0,26,0.00,,OVC003,0.00,VWS V14.01,2013-05-04 22:39:00,
2013-05-04 18:40:00,73.1,35.2,29.98,ESE,109,3.0,4.0,25,0.00,,OVC003,0.00,VWS V14.01,2013-05-04 22:40:00,
2013-05-04 18:41:00,73.1,35.2,29.98,ESE,107,5.0,5.0,25,0.00,,OVC003,0.00,VWS V14.01,2013-05-04 22:41:00,
2013-05-04 18:42:00,73.0,35.1,29.98,ESE,108,3.0,3.0,25,0.00,,OVC003,0.00,VWS V14.01,2013-05-04 22:42:00,
2013-05-04 18:43:00,73.0,35.1,29.98,ESE,107,2.0,3.0,25,0.00,,OVC003,0.00,VWS V14.01,2013-05-04 22:43:00,
2013-05-04 18:44:00,73.0,36.1,29.98,ESE,107,2.0,3.0,26,0.00,,OVC003,0.00,VWS V14.01,2013-05-04 22:44:00,
2013-05-04 18:45:00,72.9,36.0,29.98,ESE,108,2.0,3.0,26,0.00,,OVC003,0.00,VWS V14.01,2013-05-04 22:45:00,
2013-05-04 18:46:00,72.9,36.0,29.98,SE,125,8.0,8.0,26,0.00,,OVC003,0.00,VWS V14.01,2013-05-04 22:46:00,
2013-05-04 18:47:00,72.9,35.0,29.98,SE,128,2.0,6.0,25,0.00,,OVC003,0.00,VWS V14.01,2013-05-04 22:47:00,
2013-05-04 18:48:00,72.8,35.0,29.98,ESE,121,3.0,6.0,25,0.00,,OVC003,0.00,VWS V14.01,2013-05-04 22:48:00,
2013-05-04 18:49:00,72.8,36.0,29.98,ESE,121,2.0,6.0,26,0.00,,OVC003,0.00,VWS V14.01,2013-05-04 22:49:00,
2013-05-04 18:50:00,72.7,34.9,29.98,ESE,121,2.0,6.0,25,0.00,,OVC003,0.00,VWS V14.01,2013-05-04 22:50:00,
2013-05-04 18:51:00,72.7,35.9,29.98,ESE,121,2.0,2.0,26,0.00,,OVC003,0.00,VWS V14.01,2013-05-04 22:51:00,
2013-05-04 18:52:00,72.7,35.9,29.98,ESE,121,2.0,2.0,26,0.00,,OVC003,0.00,VWS V14.01,2013-05-04 22:52:00,
2013-05-04 18:53:00,72.7,34.9,29.98,ESE,121,3.0,3.0,25,0.00,,OVC003,0.00,VWS V14.01,2013-05-04 22:53:00,
2013-05-04 18:54:00,72.6,34.8,29.98,ESE,121,4.0,4.0,25,0.00,,OVC003,0.00,VWS V14.01,2013-05-04 22:54:00,
2013-05-04 18:55:00,72.6,34.8,29.98,ESE,121,2.0,2.0,25,0.00,,OVC003,0.00,VWS V14.01,2013-05-04 22:55:00,
2013-05-04 18:56:00,72.6,34.8,29.98,ESE,121,2.0,0.0,25,0.00,,OVC003,0.00,VWS V14.01,2013-05-04 22:56:00,
2013-05-04 18:57:00,72.6,35.8,29.98,ESE,121,2.0,0.0,26,0.00,,OVC003,0.00,VWS V14.01,2013-05-04 22:57:00,
2013-05-04 18:58:00,72.6,36.7,29.98,ESE,121,2.0,0.0,27,0.00,,OVC003,0.00,VWS V14.01,2013-05-04 22:58:00,
2013-05-04 18:59:00,72.6,35.8,29.98,ESE,121,2.0,0.0,26,0.00,,OVC003,0.00,VWS V14.01,2013-05-04 22:59:00,
2013-05-04 19:00:00,72.5,36.7,29.98,ESE,121,3.0,3.0,27,0.00,,OVC003,0.00,VWS V14.01,2013-05-04 23:00:00,
2013-05-04 19:01:00,72.5,36.7,29.98,ESE,121,2.0,2.0,27,0.00,,OVC003,0.00,VWS V14.01,2013-05-04 23:01:00,
2013-05-04 19:02:00,72.5,35.7,29.98,ESE,121,3.0,3.0,26,0.00,,OVC003,0.00,VWS V14.01,2013-05-04 23:02:00,
2013-05-04 19:03:00,72.5,34.7,29.98,ESE,119,2.0,4.0,25,0.00,,OVC003,0.00,VWS V14.01,2013-05-04 23:03:00,
2013-05-04 19:04:00,72.4,35.6,29.98,ESE,119,3.0,4.0,26,0.00,,OVC003,0.00,VWS V14.01,2013-05-04 23:04:00,
2013-05-04 19:05:00,72.4,35.6,29.98,ESE,118,2.0,4.0,26,0.00,,OVC003,0.00,VWS V14.01,2013-05-04 23:05:00,
2013-05-04 19:06:00,72.3,34.5,29.98,ESE,107,5.0,5.0,25,0.00,,OVC003,0.00,VWS V14.01,2013-05-04 23:06:00,
2013-05-04 19:07:00,72.3,34.5,29.98,ESE,107,3.0,3.0,25,0.00,,OVC003,0.00,VWS V14.01,2013-05-04 23:07:00,
2013-05-04 19:08:00,72.3,35.5,29.98,SE,142,3.0,4.0,26,0.00,,OVC003,0.00,VWS V14.01,2013-05-04 23:08:00,
2013-05-04 19:09:00,72.3,35.5,29.98,SE,142,2.0,4.0,26,0.00,,OVC003,0.00,VWS V14.01,2013-05-04 23:09:00,
2013-05-04 19:10:00,72.3,35.5,29.98,SE,142,4.0,4.0,26,0.00,,OVC003,0.00,VWS V14.01,2013-05-04 23:10:00,
2013-05-04 19:11:00,72.3,35.5,29.98,SE,138,4.0,4.0,26,0.00,,OVC003,0.00,VWS V14.01,2013-05-04 23:11:00,
2013-05-04 19:12:00,72.3,34.5,29.98,NNE,32,2.0,4.0,25,0.00,,OVC003,0.00,VWS V14.01,2013-05-04 23:12:00,
2013-05-04 19:13:00,72.2,35.4,29.98,NNE,32,2.0,4.0,26,0.00,,OVC003,0.00,VWS V14.01,2013-05-04 23:13:00,
2013-05-04 19:14:00,72.2,35.4,29.98,SSE,166,3.0,4.0,26,0.00,,OVC003,0.00,VWS V14.01,2013-05-04 23:14:00,
2013-05-04 19:15:00,72.2,34.5,29.98,SSE,166,3.0,4.0,25,0.00,,OVC003,0.00,VWS V14.01,2013-05-04 23:15:00,
2013-05-04 19:16:00,72.2,35.4,29.98,SSE,166,2.0,2.0,26,0.00,,OVC003,0.00,VWS V14.01,2013-05-04 23:16:00,
2013-05-04 19:17:00,72.2,35.4,29.98,SSE,166,4.0,4.0,26,0.00,,OVC003,0.00,VWS V14.01,2013-05-04 23:17:00,
2013-05-04 19:18:00,72.2,35.4,29.98,SSE,155,3.0,3.0,26,0.00,,OVC003,0.00,VWS V14.01,2013-05-04 23:18:00,
2013-05-04 19:19:00,72.2,35.4,29.98,SSE,155,2.0,2.0,26,0.00,,OVC003,0.00,VWS V14.01,2013-05-04 23:19:00,
2013-05-04 19:20:00,72.2,36.4,29.98,SSE,155,2.0,2.0,27,0.00,,OVC003,0.00,VWS V14.01,2013-05-04 23:20:00,
2013-05-04 19:21:00,72.1,36.3,29.98,SSE,155,2.0,0.0,27,0.00,,OVC003,0.00,VWS V14.01,2013-05-04 23:21:00,
2013-05-04 19:22:00,72.1,37.2,29.98,SSE,155,2.0,0.0,28,0.00,,OVC003,0.00,VWS V14.01,2013-05-04 23:22:00,
2013-05-04 19:23:00,72.1,37.2,29.98,SSE,155,2.0,2.0,28,0.00,,OVC003,0.00,VWS V14.01,2013-05-04 23:23:00,
2013-05-04 19:24:00,72.0,36.2,29.98,SSE,155,3.0,3.0,27,0.00,,OVC003,0.00,VWS V14.01,2013-05-04 23:24:00,
2013-05-04 19:25:00,71.9,35.2,29.98,SSE,155,5.0,5.0,26,0.00,,OVC003,0.00,VWS V14.01,2013-05-04 23:25:00,
2013-05-04 19:26:00,71.9,35.2,29.98,SSE,155,3.0,3.0,26,0.00,,OVC003,0.00,VWS V14.01,2013-05-04 23:26:00,
2013-05-04 19:27:00,71.8,36.0,29.98,SSE,155,2.0,3.0,27,0.00,,OVC003,0.00,VWS V14.01,2013-05-04 23:27:00,
2013-05-04 19:28:00,71.7,36.0,29.98,SSE,155,2.0,3.0,27,0.00,,OVC003,0.00,VWS V14.01,2013-05-04 23:28:00,
2013-05-04 19:29:00,71.7,35.0,29.98,SSE,155,3.0,3.0,26,0.00,,OVC003,0.00,VWS V14.01,2013-05-04 23:29:00,
2013-05-04 19:30:00,71.6,34.9,29.98,SSE,155,3.0,3.0,26,0.00,,OVC003,0.00,VWS V14.01,2013-05-04 23:30:00,
2013-05-04 19:31:00,71.6,34.9,29.98,SSE,155,2.0,2.0,26,0.00,,OVC003,0.00,VWS V14.01,2013-05-04 23:31:00,
2013-05-04 19:32:00,71.6,35.9,29.98,SSE,155,2.0,2.0,27,0.00,,OVC003,0.00,VWS V14.01,2013-05-04 23:32:00,
2013-05-04 19:33:00,71.5,35.8,29.98,SSE,155,2.0,2.0,27,0.00,,OVC003,0.00,VWS V14.01,2013-05-04 23:33:00,
2013-05-04 19:34:00,71.5,35.8,29.98,SSE,155,2.0,2.0,27,0.00,,OVC003,0.00,VWS V14.01,2013-05-04 23:34:00,
2013-05-04 19:35:00,71.5,35.8,29.98,SSE,147,4.0,4.0,27,0.00,,OVC003,0.00,VWS V14.01,2013-05-04 23:35:00,
2013-05-04 19:36:00,71.4,36.6,29.98,SSE,147,2.0,2.0,28,0.00,,OVC003,0.00,VWS V14.01,2013-05-04 23:36:00,
2013-05-04 19:37:00,71.3,35.6,29.98,ESE,118,4.0,4.0,27,0.00,,OVC003,0.00,VWS V14.01,2013-05-04 23:37:00,
2013-05-04 19:38:00,71.3,35.6,29.98,ESE,118,2.0,3.0,27,0.00,,OVC003,0.00,VWS V14.01,2013-05-04 23:38:00,
2013-05-04 19:39:00,71.3,35.6,29.98,ESE,118,2.0,3.0,27,0.00,,OVC003,0.00,VWS V14.01,2013-05-04 23:39:00,
2013-05-04 19:40:00,71.3,35.6,29.98,ESE,118,2.0,3.0,27,0.00,,OVC003,0.00,VWS V14.01,2013-05-04 23:40:00,
2013-05-04 19:42:00,71.2,37.3,29.98,ESE,118,3.0,3.0,29,0.00,,OVC003,0.00,VWS V14.01,2013-05-04 23:42:00,
2013-05-04 19:45:00,71.0,37.2,29.99,ESE,117,4.0,4.0,29,0.00,,OVC003,0.00,VWS V14.01,2013-05-04 23:45:00,
2013-05-04 19:46:00,70.8,36.1,29.99,ESE,117,2.0,2.0,28,0.00,,OVC003,0.00,VWS V14.01,2013-05-04 23:46:00,
2013-05-04 19:48:00,70.7,36.0,29.99,SE,133,2.0,4.0,28,0.00,,OVC003,0.00,VWS V14.01,2013-05-04 23:48:00,
2013-05-04 19:49:00,70.7,36.9,29.99,SE,133,5.0,5.0,29,0.00,,OVC003,0.00,VWS V14.01,2013-05-04 23:49:00,
2013-05-04 19:50:00,71.3,35.6,29.98,ESE,118,2.0,3.0,27,0.00,,OVC003,0.00,VWS V14.01,2013-05-04 23:50:00,
2013-05-04 19:52:00,70.5,36.7,29.99,SE,133,2.0,2.0,29,0.00,,OVC003,0.00,VWS V14.01,2013-05-04 23:52:00,
2013-05-04 19:53:00,70.5,36.7,29.99,SE,133,2.0,2.0,29,0.00,,OVC003,0.00,VWS V14.01,2013-05-04 23:53:00,
2013-05-04 19:55:00,70.4,36.7,29.99,SE,133,2.0,2.0,29,0.00,,OVC003,0.00,VWS V14.01,2013-05-04 23:55:00,
2013-05-04 19:56:00,70.3,36.6,29.99,SE,133,2.0,0.0,29,0.00,,OVC003,0.00,VWS V14.01,2013-05-04 23:56:00,
2013-05-04 19:57:00,70.8,36.1,29.99,SE,133,2.0,4.0,28,0.00,,OVC003,0.00,VWS V14.01,2013-05-04 23:57:00,
2013-05-04 19:58:00,70.2,36.5,29.99,SE,133,2.0,2.0,29,0.00,,OVC003,0.00,VWS V14.01,2013-05-04 23:58:00,
2013-05-04 20:00:00,70.1,36.4,29.99,SE,133,3.0,3.0,29,0.00,,OVC003,0.00,VWS V14.01,2013-05-05 00:00:00,
2013-05-04 20:01:00,70.0,36.3,29.99,SE,133,3.0,3.0,29,0.00,,OVC003,0.00,VWS V14.01,2013-05-05 00:01:00,
2013-05-04 20:04:00,70.4,36.7,29.99,SE,133,2.0,2.0,29,0.00,,OVC003,0.00,VWS V14.01,2013-05-05 00:04:00,
2013-05-04 20:05:00,69.8,36.1,29.99,SE,133,2.0,0.0,29,0.00,,OVC003,0.00,VWS V14.01,2013-05-05 00:05:00,
2013-05-04 20:07:00,69.6,36.0,29.99,SE,133,2.0,2.0,29,0.00,,OVC003,0.00,VWS V14.01,2013-05-05 00:07:00,
2013-05-04 20:09:00,70.1,35.5,29.99,SE,133,2.0,2.0,28,0.00,,OVC003,0.00,VWS V14.01,2013-05-05 00:09:00,
2013-05-04 20:10:00,69.4,36.7,29.99,SE,133,2.0,2.0,30,0.00,,OVC003,0.00,VWS V14.01,2013-05-05 00:10:00,
2013-05-04 20:11:00,69.4,36.7,29.99,SE,133,2.0,0.0,30,0.00,,OVC003,0.00,VWS V14.01,2013-05-05 00:11:00,
2013-05-04 20:14:00,69.8,36.1,29.99,SE,133,2.0,2.0,29,0.00,,OVC003,0.00,VWS V14.01,2013-05-05 00:14:00,
2013-05-04 20:15:00,69.1,38.0,29.99,SE,133,2.0,0.0,32,0.00,,OVC003,0.00,VWS V14.01,2013-05-05 00:15:00,
2013-05-04 20:17:00,68.9,37.8,29.99,SE,133,2.0,2.0,32,0.00,,OVC003,0.00,VWS V14.01,2013-05-05 00:17:00,
2013-05-04 20:19:00,69.5,37.6,29.99,SE,133,2.0,2.0,31,0.00,,OVC003,0.00,VWS V14.01,2013-05-05 00:19:00,
2013-05-04 20:20:00,68.6,37.6,29.99,SE,133,2.0,2.0,32,0.00,,OVC003,0.00,VWS V14.01,2013-05-05 00:20:00,
2013-05-04 20:24:00,69.2,37.3,29.99,SE,133,2.0,0.0,31,0.00,,OVC003,0.00,VWS V14.01,2013-05-05 00:24:00,
2013-05-04 20:25:00,68.1,37.2,29.99,SE,133,2.0,0.0,32,0.00,,OVC003,0.00,VWS V14.01,2013-05-05 00:25:00,
2013-05-04 20:26:00,68.0,37.1,29.99,SE,133,2.0,0.0,32,0.00,,OVC003,0.00,VWS V14.01,2013-05-05 00:26:00,
2013-05-04 20:29:00,67.7,36.8,30.00,SE,133,2.0,0.0,32,0.00,,OVC003,0.00,VWS V14.01,2013-05-05 00:29:00,
2013-05-04 20:30:00,68.6,37.6,29.99,SE,133,2.0,0.0,32,0.00,,OVC003,0.00,VWS V14.01,2013-05-05 00:30:00,
2013-05-04 20:31:00,67.6,37.5,30.00,SE,133,2.0,0.0,33,0.00,,OVC003,0.00,VWS V14.01,2013-05-05 00:31:00,
2013-05-04 20:33:00,67.4,38.1,30.00,SE,133,2.0,0.0,34,0.00,,OVC003,0.00,VWS V14.01,2013-05-05 00:33:00,
2013-05-04 20:34:00,67.3,38.0,30.00,SE,133,2.0,0.0,34,0.00,,OVC003,0.00,VWS V14.01,2013-05-05 00:34:00,
2013-05-04 20:35:00,67.2,37.9,30.00,SE,133,2.0,0.0,34,0.00,,OVC003,0.00,VWS V14.01,2013-05-05 00:35:00,
2013-05-04 20:36:00,67.1,37.8,30.00,SE,133,2.0,0.0,34,0.00,,OVC003,0.00,VWS V14.01,2013-05-05 00:36:00,
2013-05-04 20:37:00,67.9,36.2,29.99,SE,133,2.0,0.0,31,0.00,,OVC003,0.00,VWS V14.01,2013-05-05 00:37:00,
2013-05-04 20:38:00,66.9,37.7,30.00,SE,133,2.0,0.0,34,0.00,,OVC003,0.00,VWS V14.01,2013-05-05 00:38:00,
2013-05-04 20:39:00,66.8,37.6,30.00,SE,133,2.0,0.0,34,0.00,,OVC003,0.00,VWS V14.01,2013-05-05 00:39:00,
2013-05-04 20:40:00,66.8,37.6,30.00,SE,133,2.0,0.0,34,0.00,,OVC003,0.00,VWS V14.01,2013-05-05 00:40:00,
2013-05-04 20:42:00,67.5,37.4,30.00,SE,133,2.0,0.0,33,0.00,,OVC003,0.00,VWS V14.01,2013-05-05 00:42:00,
2013-05-04 20:43:00,66.5,37.3,30.00,SE,133,2.0,0.0,34,0.00,,OVC003,0.00,VWS V14.01,2013-05-05 00:43:00,
2013-05-04 20:45:00,66.3,37.1,30.00,SE,133,2.0,0.0,34,0.00,,OVC003,0.00,VWS V14.01,2013-05-05 00:45:00,
2013-05-04 20:46:00,66.2,37.8,30.00,SE,133,2.0,0.0,35,0.00,,OVC003,0.00,VWS V14.01,2013-05-05 00:46:00,
2013-05-04 20:47:00,66.1,37.7,30.00,SE,133,2.0,0.0,35,0.00,,OVC003,0.00,VWS V14.01,2013-05-05 00:47:00,
2013-05-04 20:49:00,65.9,37.5,30.00,SE,133,2.0,0.0,35,0.00,,OVC003,0.00,VWS V14.01,2013-05-05 00:49:00,
2013-05-04 20:50:00,65.9,37.5,30.00,SE,133,2.0,0.0,35,0.00,,OVC003,0.00,VWS V14.01,2013-05-05 00:50:00,
2013-05-04 20:51:00,66.6,36.6,30.00,SE,133,2.0,0.0,33,0.00,,OVC003,0.00,VWS V14.01,2013-05-05 00:51:00,
2013-05-04 20:53:00,65.6,37.2,30.00,SE,133,2.0,0.0,35,0.00,,OVC003,0.00,VWS V14.01,2013-05-05 00:53:00,
2013-05-04 20:54:00,65.5,37.9,30.00,SE,133,2.0,0.0,36,0.00,,OVC003,0.00,VWS V14.01,2013-05-05 00:54:00,
2013-05-04 20:55:00,65.4,37.8,30.00,SE,133,2.0,0.0,36,0.00,,OVC003,0.00,VWS V14.01,2013-05-05 00:55:00,
2013-05-04 20:56:00,65.3,37.0,30.00,SE,133,2.0,0.0,35,0.00,,OVC003,0.00,VWS V14.01,2013-05-05 00:56:00,
2013-05-04 20:57:00,65.2,37.6,30.00,SE,133,2.0,0.0,36,0.00,,OVC003,0.00,VWS V14.01,2013-05-05 00:57:00,
2013-05-04 20:58:00,66.0,37.6,30.00,SE,133,2.0,0.0,35,0.00,,OVC003,0.00,VWS V14.01,2013-05-05 00:58:00,
2013-05-04 20:59:00,65.0,37.4,30.01,SE,133,2.0,0.0,36,0.00,,OVC003,0.00,VWS V14.01,2013-05-05 00:59:00,
2013-05-04 21:00:00,64.9,37.3,30.01,SE,133,2.0,0.0,36,0.00,,OVC003,0.00,VWS V14.01,2013-05-05 01:00:00,
2013-05-04 21:01:00,64.8,37.9,30.01,SE,133,2.0,0.0,37,0.00,,OVC003,0.00,VWS V14.01,2013-05-05 01:01:00,
2013-05-04 21:02:00,64.7,37.8,30.01,SE,133,2.0,0.0,37,0.00,,OVC003,0.00,VWS V14.01,2013-05-05 01:02:00,
2013-05-04 21:03:00,64.6,37.8,30.01,SE,133,2.0,0.0,37,0.00,,OVC003,0.00,VWS V14.01,2013-05-05 01:03:00,
2013-05-04 21:05:00,65.4,37.8,30.00,SE,133,2.0,0.0,36,0.00,,OVC003,0.00,VWS V14.01,2013-05-05 01:05:00,
2013-05-04 21:06:00,64.4,38.3,30.01,SE,133,2.0,0.0,38,0.00,,OVC003,0.00,VWS V14.01,2013-05-05 01:06:00,
2013-05-04 21:07:00,64.3,38.8,30.01,SE,133,2.0,0.0,39,0.00,,OVC003,0.00,VWS V14.01,2013-05-05 01:07:00,
2013-05-04 21:08:00,64.3,38.8,30.01,SE,133,2.0,0.0,39,0.00,,OVC003,0.00,VWS V14.01,2013-05-05 01:08:00,
2013-05-04 21:09:00,64.2,38.8,30.01,SE,133,2.0,0.0,39,0.00,,OVC003,0.00,VWS V14.01,2013-05-05 01:09:00,
2013-05-04 21:10:00,64.1,38.7,30.01,SE,133,2.0,0.0,39,0.00,,OVC003,0.00,VWS V14.01,2013-05-05 01:10:00,
2013-05-04 21:11:00,64.1,38.7,30.01,SE,133,2.0,0.0,39,0.00,,OVC003,0.00,VWS V14.01,2013-05-05 01:11:00,
2013-05-04 21:12:00,64.0,39.2,30.01,SE,133,2.0,0.0,40,0.00,,OVC003,0.00,VWS V14.01,2013-05-05 01:12:00,
2013-05-04 21:13:00,64.0,39.8,30.01,SE,133,2.0,0.0,41,0.00,,OVC003,0.00,VWS V14.01,2013-05-05 01:13:00,
2013-05-04 21:14:00,64.5,37.7,30.01,SE,133,2.0,0.0,37,0.00,,OVC003,0.00,VWS V14.01,2013-05-05 01:14:00,
2013-05-04 21:15:00,63.8,39.7,30.01,SE,133,2.0,0.0,41,0.00,,OVC003,0.00,VWS V14.01,2013-05-05 01:15:00,
2013-05-04 21:16:00,63.8,39.7,30.01,SE,133,2.0,0.0,41,0.00,,OVC003,0.00,VWS V14.01,2013-05-05 01:16:00,
2013-05-04 21:17:00,63.7,39.6,30.01,SE,133,2.0,0.0,41,0.00,,OVC003,0.00,VWS V14.01,2013-05-05 01:17:00,
2013-05-04 21:18:00,63.6,39.5,30.01,SE,133,2.0,0.0,41,0.00,,OVC003,0.00,VWS V14.01,2013-05-05 01:18:00,
2013-05-04 21:19:00,63.6,39.5,30.01,SE,133,2.0,0.0,41,0.00,,OVC003,0.00,VWS V14.01,2013-05-05 01:19:00,
2013-05-04 21:20:00,63.5,39.4,30.01,SE,133,2.0,0.0,41,0.00,,OVC003,0.00,VWS V14.01,2013-05-05 01:20:00,
2013-05-04 21:21:00,63.4,39.3,30.01,SE,133,2.0,0.0,41,0.00,,OVC003,0.00,VWS V14.01,2013-05-05 01:21:00,
2013-05-04 21:22:00,63.3,39.8,30.01,SE,133,2.0,0.0,42,0.00,,OVC003,0.00,VWS V14.01,2013-05-05 01:22:00,
2013-05-04 21:23:00,63.3,39.8,30.01,SE,133,2.0,0.0,42,0.00,,OVC003,0.00,VWS V14.01,2013-05-05 01:23:00,
2013-05-04 21:24:00,63.3,39.8,30.01,SE,133,2.0,0.0,42,0.00,,OVC003,0.00,VWS V14.01,2013-05-05 01:24:00,
2013-05-04 21:25:00,63.2,39.8,30.01,SE,133,2.0,0.0,42,0.00,,OVC003,0.00,VWS V14.01,2013-05-05 01:25:00,
2013-05-04 21:26:00,63.1,40.3,30.01,SE,133,2.0,0.0,43,0.00,,OVC003,0.00,VWS V14.01,2013-05-05 01:26:00,
2013-05-04 21:27:00,63.1,40.3,30.01,SE,133,2.0,0.0,43,0.00,,OVC003,0.00,VWS V14.01,2013-05-05 01:27:00,
2013-05-04 21:28:00,63.0,40.2,30.01,SE,133,2.0,0.0,43,0.00,,OVC003,0.00,VWS V14.01,2013-05-05 01:28:00,
2013-05-04 21:29:00,62.9,40.1,30.02,SE,133,2.0,0.0,43,0.00,,OVC003,0.00,VWS V14.01,2013-05-05 01:29:00,
2013-05-04 21:30:00,62.9,40.1,30.02,SE,133,2.0,0.0,43,0.00,,OVC003,0.00,VWS V14.01,2013-05-05 01:30:00,
2013-05-04 21:31:00,62.8,40.0,30.02,SE,133,2.0,0.0,43,0.00,,OVC003,0.00,VWS V14.01,2013-05-05 01:31:00,
2013-05-04 21:32:00,62.8,40.0,30.02,SE,133,2.0,0.0,43,0.00,,OVC003,0.00,VWS V14.01,2013-05-05 01:32:00,
2013-05-04 21:33:00,62.7,40.5,30.02,SE,133,2.0,0.0,44,0.00,,OVC003,0.00,VWS V14.01,2013-05-05 01:33:00,
2013-05-04 21:34:00,62.7,40.5,30.02,SE,133,2.0,0.0,44,0.00,,OVC003,0.00,VWS V14.01,2013-05-05 01:34:00,
2013-05-04 21:35:00,62.7,40.5,30.02,SE,133,2.0,0.0,44,0.00,,OVC003,0.00,VWS V14.01,2013-05-05 01:35:00,
2013-05-04 21:36:00,62.6,40.4,30.02,SE,133,2.0,0.0,44,0.00,,OVC003,0.00,VWS V14.01,2013-05-05 01:36:00,
2013-05-04 21:37:00,62.5,40.3,30.02,SE,133,2.0,0.0,44,0.00,,OVC003,0.00,VWS V14.01,2013-05-05 01:37:00,
2013-05-04 21:38:00,62.4,40.8,30.02,SE,133,2.0,2.0,45,0.00,,OVC003,0.00,VWS V14.01,2013-05-05 01:38:00,
2013-05-04 21:39:00,62.4,40.8,30.02,SE,133,2.0,2.0,45,0.00,,OVC003,0.00,VWS V14.01,2013-05-05 01:39:00,
2013-05-04 21:40:00,62.3,40.7,30.02,SE,133,2.0,2.0,45,0.00,,OVC003,0.00,VWS V14.01,2013-05-05 01:40:00,
2013-05-04 21:41:00,62.2,40.6,30.02,SE,133,2.0,0.0,45,0.00,,OVC003,0.00,VWS V14.01,2013-05-05 01:41:00,
2013-05-04 21:42:00,62.2,40.6,30.02,SE,133,2.0,0.0,45,0.00,,OVC003,0.00,VWS V14.01,2013-05-05 01:42:00,
2013-05-04 21:43:00,62.2,40.6,30.02,SE,133,2.0,0.0,45,0.00,,OVC003,0.00,VWS V14.01,2013-05-05 01:43:00,
2013-05-04 21:44:00,62.1,41.1,30.03,SE,133,2.0,0.0,46,0.00,,OVC003,0.00,VWS V14.01,2013-05-05 01:44:00,
2013-05-04 21:45:00,62.1,41.1,30.03,SE,133,2.0,0.0,46,0.00,,OVC003,0.00,VWS V14.01,2013-05-05 01:45:00,
2013-05-04 21:46:00,62.0,41.0,30.03,SE,133,2.0,0.0,46,0.00,,OVC003,0.00,VWS V14.01,2013-05-05 01:46:00,
2013-05-04 21:47:00,62.0,41.0,30.03,SE,133,2.0,0.0,46,0.00,,OVC003,0.00,VWS V14.01,2013-05-05 01:47:00,
2013-05-04 21:48:00,61.9,40.9,30.03,SE,133,2.0,0.0,46,0.00,,OVC003,0.00,VWS V14.01,2013-05-05 01:48:00,
2013-05-04 21:49:00,61.9,40.9,30.03,SE,133,2.0,0.0,46,0.00,,OVC003,0.00,VWS V14.01,2013-05-05 01:49:00,
2013-05-04 21:50:00,61.9,40.9,30.03,SE,133,2.0,0.0,46,0.00,,OVC003,0.00,VWS V14.01,2013-05-05 01:50:00,
2013-05-04 21:51:00,61.8,40.8,30.03,SE,133,2.0,0.0,46,0.00,,OVC003,0.00,VWS V14.01,2013-05-05 01:51:00,
2013-05-04 21:52:00,61.8,40.8,30.03,SE,133,2.0,0.0,46,0.00,,OVC003,0.00,VWS V14.01,2013-05-05 01:52:00,
2013-05-04 21:53:00,61.7,41.3,30.03,SE,133,2.0,0.0,47,0.00,,OVC003,0.00,VWS V14.01,2013-05-05 01:53:00,
2013-05-04 21:54:00,61.7,41.3,30.03,SE,133,2.0,0.0,47,0.00,,OVC003,0.00,VWS V14.01,2013-05-05 01:54:00,
2013-05-04 21:55:00,61.7,41.3,30.03,SE,133,2.0,0.0,47,0.00,,OVC003,0.00,VWS V14.01,2013-05-05 01:55:00,
2013-05-04 21:56:00,61.6,41.2,30.03,SE,133,2.0,0.0,47,0.00,,OVC003,0.00,VWS V14.01,2013-05-05 01:56:00,
2013-05-04 21:57:00,61.6,41.2,30.03,SE,133,2.0,0.0,47,0.00,,OVC003,0.00,VWS V14.01,2013-05-05 01:57:00,
2013-05-04 21:58:00,61.5,41.1,30.03,SE,133,2.0,0.0,47,0.00,,OVC003,0.00,VWS V14.01,2013-05-05 01:58:00,
2013-05-04 21:59:00,61.4,41.0,30.03,SE,133,2.0,0.0,47,0.00,,OVC003,0.00,VWS V14.01,2013-05-05 01:59:00,
2013-05-04 22:00:00,61.4,41.0,30.03,SE,133,2.0,0.0,47,0.00,,OVC003,0.00,VWS V14.01,2013-05-05 02:00:00,
2013-05-04 22:01:00,61.4,41.0,30.03,SE,133,2.0,0.0,47,0.00,,OVC003,0.00,VWS V14.01,2013-05-05 02:01:00,
2013-05-04 22:02:00,61.3,41.5,30.03,SE,133,2.0,0.0,48,0.00,,OVC003,0.00,VWS V14.01,2013-05-05 02:02:00,
2013-05-04 22:03:00,61.3,41.5,30.03,SE,133,2.0,0.0,48,0.00,,OVC003,0.00,VWS V14.01,2013-05-05 02:03:00,
2013-05-04 22:04:00,61.2,41.4,30.03,SE,133,2.0,0.0,48,0.00,,OVC003,0.00,VWS V14.01,2013-05-05 02:04:00,
2013-05-04 22:05:00,61.2,41.4,30.03,SE,133,2.0,0.0,48,0.00,,OVC003,0.00,VWS V14.01,2013-05-05 02:05:00,
2013-05-04 22:06:00,61.2,41.4,30.03,SE,133,2.0,0.0,48,0.00,,OVC003,0.00,VWS V14.01,2013-05-05 02:06:00,
2013-05-04 22:07:00,61.1,41.3,30.03,SE,133,2.0,0.0,48,0.00,,OVC003,0.00,VWS V14.01,2013-05-05 02:07:00,
2013-05-04 22:08:00,61.1,41.3,30.03,SE,133,2.0,2.0,48,0.00,,OVC003,0.00,VWS V14.01,2013-05-05 02:08:00,
2013-05-04 22:09:00,61.0,41.2,30.03,SE,133,2.0,2.0,48,0.00,,OVC003,0.00,VWS V14.01,2013-05-05 02:09:00,
2013-05-04 22:10:00,61.0,41.2,30.03,SE,133,2.0,2.0,48,0.00,,OVC003,0.00,VWS V14.01,2013-05-05 02:10:00,
2013-05-04 22:11:00,60.9,41.1,30.03,SE,133,2.0,0.0,48,0.00,,OVC003,0.00,VWS V14.01,2013-05-05 02:11:00,
2013-05-04 22:12:00,60.9,41.1,30.03,SE,133,2.0,0.0,48,0.00,,OVC003,0.00,VWS V14.01,2013-05-05 02:12:00,
2013-05-04 22:13:00,60.9,41.1,30.03,SE,133,2.0,0.0,48,0.00,,OVC003,0.00,VWS V14.01,2013-05-05 02:13:00,
2013-05-04 22:14:00,60.9,41.6,30.03,SE,133,2.0,0.0,49,0.00,,OVC003,0.00,VWS V14.01,2013-05-05 02:14:00,
2013-05-04 22:15:00,60.9,41.6,30.03,SE,133,2.0,0.0,49,0.00,,OVC003,0.00,VWS V14.01,2013-05-05 02:15:00,
2013-05-04 22:16:00,60.8,41.0,30.03,SE,133,2.0,0.0,48,0.00,,OVC003,0.00,VWS V14.01,2013-05-05 02:16:00,
2013-05-04 22:17:00,60.7,40.9,30.03,SE,133,2.0,0.0,48,0.00,,OVC003,0.00,VWS V14.01,2013-05-05 02:17:00,
2013-05-04 22:18:00,60.7,40.9,30.03,SE,133,2.0,0.0,48,0.00,,OVC003,0.00,VWS V14.01,2013-05-05 02:18:00,
2013-05-04 22:19:00,60.7,40.9,30.03,SE,133,2.0,0.0,48,0.00,,OVC003,0.00,VWS V14.01,2013-05-05 02:19:00,
2013-05-04 22:20:00,60.7,40.9,30.03,SE,133,2.0,0.0,48,0.00,,OVC003,0.00,VWS V14.01,2013-05-05 02:20:00,
2013-05-04 22:21:00,60.6,40.8,30.03,SE,133,2.0,0.0,48,0.00,,OVC003,0.00,VWS V14.01,2013-05-05 02:21:00,
2013-05-04 22:22:00,60.5,40.7,30.03,SE,133,2.0,0.0,48,0.00,,OVC003,0.00,VWS V14.01,2013-05-05 02:22:00,
2013-05-04 22:23:00,60.5,40.2,30.03,SE,133,2.0,0.0,47,0.00,,OVC003,0.00,VWS V14.01,2013-05-05 02:23:00,
2013-05-04 22:24:00,60.5,40.2,30.03,SE,133,2.0,0.0,47,0.00,,OVC003,0.00,VWS V14.01,2013-05-05 02:24:00,
2013-05-04 22:25:00,60.5,40.2,30.03,SE,133,2.0,0.0,47,0.00,,OVC003,0.00,VWS V14.01,2013-05-05 02:25:00,
2013-05-04 22:26:00,60.4,40.1,30.03,SE,133,2.0,0.0,47,0.00,,OVC003,0.00,VWS V14.01,2013-05-05 02:26:00,
2013-05-04 22:27:00,60.3,40.0,30.03,SE,133,2.0,0.0,47,0.00,,OVC003,0.00,VWS V14.01,2013-05-05 02:27:00,
2013-05-04 22:28:00,60.3,40.0,30.03,SE,133,2.0,0.0,47,0.00,,OVC003,0.00,VWS V14.01,2013-05-05 02:28:00,
2013-05-04 22:29:00,60.3,40.0,30.04,SE,133,2.0,0.0,47,0.00,,OVC003,0.00,VWS V14.01,2013-05-05 02:29:00,
2013-05-04 22:30:00,60.3,40.0,30.04,SE,133,2.0,0.0,47,0.00,,OVC003,0.00,VWS V14.01,2013-05-05 02:30:00,
2013-05-04 22:31:00,60.2,39.9,30.04,SE,133,2.0,0.0,47,0.00,,OVC003,0.00,VWS V14.01,2013-05-05 02:31:00,
2013-05-04 22:32:00,60.2,40.5,30.04,SE,133,2.0,0.0,48,0.00,,OVC003,0.00,VWS V14.01,2013-05-05 02:32:00,
2013-05-04 22:33:00,60.1,40.4,30.04,SE,133,2.0,0.0,48,0.00,,OVC003,0.00,VWS V14.01,2013-05-05 02:33:00,
2013-05-04 22:34:00,60.1,39.8,30.04,SE,133,2.0,0.0,47,0.00,,OVC003,0.00,VWS V14.01,2013-05-05 02:34:00,
2013-05-04 22:35:00,60.1,39.8,30.04,SE,133,2.0,0.0,47,0.00,,OVC003,0.00,VWS V14.01,2013-05-05 02:35:00,
2013-05-04 22:36:00,60.0,40.3,30.04,SE,133,2.0,0.0,48,0.00,,OVC003,0.00,VWS V14.01,2013-05-05 02:36:00,
2013-05-04 22:37:00,60.0,40.3,30.04,SE,133,2.0,0.0,48,0.00,,OVC003,0.00,VWS V14.01,2013-05-05 02:37:00,
2013-05-04 22:38:00,59.9,40.2,30.04,SE,133,2.0,0.0,48,0.00,,OVC003,0.00,VWS V14.01,2013-05-05 02:38:00,
2013-05-04 22:39:00,59.9,40.2,30.04,SE,133,2.0,0.0,48,0.00,,OVC003,0.00,VWS V14.01,2013-05-05 02:39:00,
2013-05-04 22:40:00,59.8,40.6,30.04,SE,133,2.0,0.0,49,0.00,,OVC003,0.00,VWS V14.01,2013-05-05 02:40:00,
2013-05-04 22:41:00,59.8,40.6,30.04,SE,133,2.0,0.0,49,0.00,,OVC003,0.00,VWS V14.01,2013-05-05 02:41:00,
2013-05-04 22:43:00,59.7,40.5,30.04,SE,133,2.0,0.0,49,0.00,,OVC003,0.00,VWS V14.01,2013-05-05 02:43:00,
2013-05-04 22:44:00,59.6,40.4,30.04,SE,133,2.0,0.0,49,0.00,,OVC003,0.00,VWS V14.01,2013-05-05 02:44:00,
2013-05-04 22:45:00,59.5,40.3,30.04,SE,133,2.0,0.0,49,0.00,,OVC003,0.00,VWS V14.01,2013-05-05 02:45:00,
2013-05-04 22:46:00,59.5,40.3,30.04,SE,133,2.0,0.0,49,0.00,,OVC003,0.00,VWS V14.01,2013-05-05 02:46:00,
2013-05-04 22:47:00,59.4,40.2,30.04,SE,133,2.0,0.0,49,0.00,,OVC003,0.00,VWS V14.01,2013-05-05 02:47:00,
2013-05-04 22:48:00,59.4,40.2,30.04,SE,133,2.0,0.0,49,0.00,,OVC003,0.00,VWS V14.01,2013-05-05 02:48:00,
2013-05-04 22:49:00,59.3,40.2,30.04,SE,133,2.0,0.0,49,0.00,,OVC003,0.00,VWS V14.01,2013-05-05 02:49:00,
2013-05-04 22:50:00,59.3,40.2,30.04,SE,133,2.0,0.0,49,0.00,,OVC003,0.00,VWS V14.01,2013-05-05 02:50:00,
2013-05-04 22:51:00,59.2,40.1,30.04,SE,133,2.0,0.0,49,0.00,,OVC003,0.00,VWS V14.01,2013-05-05 02:51:00,
2013-05-04 22:52:00,59.1,40.0,30.04,SE,133,2.0,0.0,49,0.00,,OVC003,0.00,VWS V14.01,2013-05-05 02:52:00,
2013-05-04 22:53:00,59.0,39.9,30.04,SE,133,2.0,0.0,49,0.00,,OVC003,0.00,VWS V14.01,2013-05-05 02:53:00,
2013-05-04 22:54:00,59.0,39.9,30.04,SE,133,2.0,0.0,49,0.00,,OVC003,0.00,VWS V14.01,2013-05-05 02:54:00,
2013-05-04 22:55:00,59.0,39.9,30.04,SE,133,2.0,0.0,49,0.00,,OVC003,0.00,VWS V14.01,2013-05-05 02:55:00,
2013-05-04 22:56:00,59.0,39.9,30.04,SE,133,2.0,0.0,49,0.00,,OVC003,0.00,VWS V14.01,2013-05-05 02:56:00,
2013-05-04 22:57:00,59.0,39.9,30.04,SE,133,2.0,0.0,49,0.00,,OVC003,0.00,VWS V14.01,2013-05-05 02:57:00,
2013-05-04 22:58:00,59.0,39.9,30.04,SE,133,2.0,0.0,49,0.00,,OVC003,0.00,VWS V14.01,2013-05-05 02:58:00,
2013-05-04 22:59:00,59.0,39.9,30.04,SE,133,2.0,0.0,49,0.00,,OVC003,0.00,VWS V14.01,2013-05-05 02:59:00,
2013-05-04 23:00:00,59.0,39.9,30.04,SE,133,2.0,0.0,49,0.00,,OVC003,0.00,VWS V14.01,2013-05-05 03:00:00,
2013-05-04 23:01:00,59.0,39.9,30.04,SE,133,2.0,0.0,49,0.00,,OVC003,0.00,VWS V14.01,2013-05-05 03:01:00,
2013-05-04 23:02:00,59.0,39.9,30.04,SE,133,2.0,0.0,49,0.00,,OVC003,0.00,VWS V14.01,2013-05-05 03:02:00,
2013-05-04 23:03:00,59.0,39.9,30.04,SE,133,2.0,0.0,49,0.00,,OVC003,0.00,VWS V14.01,2013-05-05 03:03:00,
2013-05-04 23:04:00,59.0,39.9,30.04,SE,133,2.0,0.0,49,0.00,,OVC003,0.00,VWS V14.01,2013-05-05 03:04:00,
2013-05-04 23:05:00,58.9,39.8,30.04,SE,133,2.0,0.0,49,0.00,,OVC003,0.00,VWS V14.01,2013-05-05 03:05:00,
2013-05-04 23:06:00,58.8,39.7,30.04,SE,133,2.0,0.0,49,0.00,,OVC003,0.00,VWS V14.01,2013-05-05 03:06:00,
2013-05-04 23:07:00,58.8,40.2,30.04,SE,133,2.0,0.0,50,0.00,,OVC003,0.00,VWS V14.01,2013-05-05 03:07:00,
2013-05-04 23:08:00,58.7,40.1,30.04,SE,133,2.0,0.0,50,0.00,,OVC003,0.00,VWS V14.01,2013-05-05 03:08:00,
2013-05-04 23:09:00,58.7,40.1,30.04,SE,133,2.0,0.0,50,0.00,,OVC003,0.00,VWS V14.01,2013-05-05 03:09:00,
2013-05-04 23:10:00,58.6,40.0,30.04,SE,133,2.0,0.0,50,0.00,,OVC003,0.00,VWS V14.01,2013-05-05 03:10:00,
2013-05-04 23:11:00,58.6,40.0,30.04,SE,133,2.0,0.0,50,0.00,,OVC003,0.00,VWS V14.01,2013-05-05 03:11:00,
2013-05-04 23:12:00,58.6,40.0,30.04,SE,133,2.0,0.0,50,0.00,,OVC003,0.00,VWS V14.01,2013-05-05 03:12:00,
2013-05-04 23:13:00,58.5,39.9,30.04,SE,133,2.0,0.0,50,0.00,,OVC003,0.00,VWS V14.01,2013-05-05 03:13:00,
2013-05-04 23:14:00,58.5,39.9,30.04,SE,133,2.0,0.0,50,0.00,,OVC003,0.00,VWS V14.01,2013-05-05 03:14:00,
2013-05-04 23:15:00,58.4,39.8,30.04,SE,133,2.0,0.0,50,0.00,,OVC003,0.00,VWS V14.01,2013-05-05 03:15:00,
2013-05-04 23:16:00,58.4,39.8,30.04,SE,133,2.0,0.0,50,0.00,,OVC003,0.00,VWS V14.01,2013-05-05 03:16:00,
2013-05-04 23:17:00,58.3,40.3,30.04,SE,133,2.0,0.0,51,0.00,,OVC003,0.00,VWS V14.01,2013-05-05 03:17:00,
2013-05-04 23:18:00,58.2,40.2,30.04,SE,133,2.0,0.0,51,0.00,,OVC003,0.00,VWS V14.01,2013-05-05 03:18:00,
2013-05-04 23:19:00,58.2,40.7,30.04,SE,133,2.0,0.0,52,0.00,,OVC003,0.00,VWS V14.01,2013-05-05 03:19:00,
2013-05-04 23:20:00,58.1,40.6,30.04,SE,133,2.0,0.0,52,0.00,,OVC003,0.00,VWS V14.01,2013-05-05 03:20:00,
2013-05-04 23:21:00,58.1,41.1,30.04,SE,133,2.0,0.0,53,0.00,,OVC003,0.00,VWS V14.01,2013-05-05 03:21:00,
2013-05-04 23:22:00,58.0,41.0,30.04,SE,133,2.0,0.0,53,0.00,,OVC003,0.00,VWS V14.01,2013-05-05 03:22:00,
2013-05-04 23:23:00,57.9,40.9,30.04,SE,133,2.0,0.0,53,0.00,,OVC003,0.00,VWS V14.01,2013-05-05 03:23:00,
2013-05-04 23:24:00,57.8,40.8,30.04,SE,133,2.0,0.0,53,0.00,,OVC003,0.00,VWS V14.01,2013-05-05 03:24:00,
2013-05-04 23:25:00,57.7,40.7,30.04,SE,133,2.0,0.0,53,0.00,,OVC003,0.00,VWS V14.01,2013-05-05 03:25:00,
2013-05-04 23:26:00,57.7,40.7,30.04,SE,133,2.0,0.0,53,0.00,,OVC003,0.00,VWS V14.01,2013-05-05 03:26:00,
2013-05-04 23:27:00,57.6,40.6,30.04,SE,133,2.0,0.0,53,0.00,,OVC003,0.00,VWS V14.01,2013-05-05 03:27:00,
2013-05-04 23:28:00,57.5,41.0,30.04,SE,133,2.0,0.0,54,0.00,,OVC003,0.00,VWS V14.01,2013-05-05 03:28:00,
2013-05-04 23:29:00,57.5,41.0,30.04,SE,133,2.0,0.0,54,0.00,,OVC003,0.00,VWS V14.01,2013-05-05 03:29:00,
2013-05-04 23:30:00,57.4,40.9,30.04,SE,133,2.0,0.0,54,0.00,,OVC003,0.00,VWS V14.01,2013-05-05 03:30:00,
2013-05-04 23:31:00,57.3,41.3,30.04,SE,133,2.0,0.0,55,0.00,,OVC003,0.00,VWS V14.01,2013-05-05 03:31:00,
2013-05-04 23:32:00,57.3,41.8,30.04,SE,133,2.0,0.0,56,0.00,,OVC003,0.00,VWS V14.01,2013-05-05 03:32:00,
2013-05-04 23:33:00,57.2,41.2,30.04,SE,133,2.0,0.0,55,0.00,,OVC003,0.00,VWS V14.01,2013-05-05 03:33:00,
2013-05-04 23:34:00,57.1,41.1,30.04,SE,133,2.0,0.0,55,0.00,,OVC003,0.00,VWS V14.01,2013-05-05 03:34:00,
2013-05-04 23:35:00,57.1,41.1,30.04,SE,133,2.0,0.0,55,0.00,,OVC003,0.00,VWS V14.01,2013-05-05 03:35:00,
2013-05-04 23:36:00,57.0,41.0,30.04,SE,133,2.0,0.0,55,0.00,,OVC003,0.00,VWS V14.01,2013-05-05 03:36:00,
2013-05-04 23:37:00,56.9,41.4,30.04,SE,133,2.0,0.0,56,0.00,,OVC003,0.00,VWS V14.01,2013-05-05 03:37:00,
2013-05-04 23:38:00,56.8,41.3,30.04,SE,133,2.0,0.0,56,0.00,,OVC003,0.00,VWS V14.01,2013-05-05 03:38:00,
2013-05-04 23:39:00,56.8,41.3,30.04,SE,133,2.0,0.0,56,0.00,,OVC003,0.00,VWS V14.01,2013-05-05 03:39:00,
2013-05-04 23:40:00,56.7,41.2,30.04,SE,133,2.0,0.0,56,0.00,,OVC003,0.00,VWS V14.01,2013-05-05 03:40:00,
2013-05-04 23:41:00,56.6,40.6,30.04,SE,133,2.0,0.0,55,0.00,,OVC003,0.00,VWS V14.01,2013-05-05 03:41:00,
2013-05-04 23:42:00,56.5,40.5,30.04,SE,133,2.0,0.0,55,0.00,,OVC003,0.00,VWS V14.01,2013-05-05 03:42:00,
2013-05-04 23:43:00,56.4,40.5,30.04,SE,133,2.0,0.0,55,0.00,,OVC003,0.00,VWS V14.01,2013-05-05 03:43:00,
2013-05-04 23:44:00,56.3,40.4,30.05,SE,133,2.0,0.0,55,0.00,,OVC003,0.00,VWS V14.01,2013-05-05 03:44:00,
2013-05-04 23:45:00,56.2,40.3,30.05,SE,133,2.0,0.0,55,0.00,,OVC003,0.00,VWS V14.01,2013-05-05 03:45:00,
2013-05-04 23:46:00,56.2,40.3,30.05,SE,133,2.0,0.0,55,0.00,,OVC003,0.00,VWS V14.01,2013-05-05 03:46:00,
2013-05-04 23:48:00,56.0,40.5,30.05,SE,133,2.0,0.0,56,0.00,,OVC003,0.00,VWS V14.01,2013-05-05 03:48:00,
2013-05-04 23:49:00,56.0,40.5,30.05,SE,133,2.0,0.0,56,0.00,,OVC003,0.00,VWS V14.01,2013-05-05 03:49:00,
2013-05-04 23:50:00,55.9,40.5,30.05,SE,133,2.0,0.0,56,0.00,,OVC003,0.00,VWS V14.01,2013-05-05 03:50:00,
2013-05-04 23:51:00,55.8,40.8,30.05,SE,133,2.0,0.0,57,0.00,,OVC003,0.00,VWS V14.01,2013-05-05 03:51:00,
2013-05-04 23:52:00,55.8,40.4,30.05,SE,133,2.0,0.0,56,0.00,,OVC003,0.00,VWS V14.01,2013-05-05 03:52:00,
2013-05-04 23:53:00,55.7,40.7,30.05,SE,133,2.0,0.0,57,0.00,,OVC003,0.00,VWS V14.01,2013-05-05 03:53:00,
2013-05-04 23:54:00,55.6,40.6,30.05,SE,133,2.0,0.0,57,0.00,,OVC003,0.00,VWS V14.01,2013-05-05 03:54:00,
2013-05-04 23:55:00,55.5,41.0,30.05,SE,133,2.0,0.0,58,0.00,,OVC003,0.00,VWS V14.01,2013-05-05 03:55:00,
2013-05-04 23:56:00,55.4,40.4,30.05,SE,133,2.0,0.0,57,0.00,,OVC003,0.00,VWS V14.01,2013-05-05 03:56:00,
2013-05-04 23:57:00,56.1,40.6,30.05,SE,133,2.0,0.0,56,0.00,,OVC003,0.00,VWS V14.01,2013-05-05 03:57:00,
2013-05-04 23:58:00,55.3,40.8,30.05,SE,133,2.0,0.0,58,0.00,,OVC003,0.00,VWS V14.01,2013-05-05 03:58:00,
2013-05-04 23:59:00,55.2,40.7,30.05,SE,133,2.0,0.0,58,0.00,,OVC003,0.00,VWS V14.01,2013-05-05 03:59:00,